<?xml version="1.0" encoding="UTF-8" standalone="no" ?>
<gpx xmlns="http://www.topografix.com/GPX/1/1" xmlns:xsi="http://www.w3.org/2001/XMLSchema-instance" xsi:schemaLocation="http://www.topografix.com/GPX/1/1 http://www.topografix.com/GPX/1/1/gpx.xsd" version="1.1" creator="VisuGPX - https://www.visugpx.com">
  <metadata>
    <name>Créon - Dardenac - Camiac</name>
    <desc><![CDATA[Randonnée VTT]]></desc>
  </metadata>
  <trk>
    <name><![CDATA[Creon Dardenac Camiac]]></name>
    <trkseg>
      <trkpt lat="44.77643" lon="-0.3485">
        <ele>100</ele>
        <time>2013-04-13T12:11:34Z</time>
      </trkpt>
      <trkpt lat="44.77642" lon="-0.34852">
        <ele>100</ele>
        <time>2013-04-13T12:11:43Z</time>
      </trkpt>
      <trkpt lat="44.77641" lon="-0.34853">
        <ele>100</ele>
        <time>2013-04-13T12:11:49Z</time>
      </trkpt>
      <trkpt lat="44.77642" lon="-0.34854">
        <ele>100</ele>
        <time>2013-04-13T12:11:59Z</time>
      </trkpt>
      <trkpt lat="44.77643" lon="-0.34856">
        <ele>100</ele>
        <time>2013-04-13T12:12:08Z</time>
      </trkpt>
      <trkpt lat="44.77641" lon="-0.34853">
        <ele>100</ele>
        <time>2013-04-13T12:12:10Z</time>
      </trkpt>
      <trkpt lat="44.77643" lon="-0.34836">
        <ele>100</ele>
        <time>2013-04-13T12:12:17Z</time>
      </trkpt>
      <trkpt lat="44.77645" lon="-0.34824">
        <ele>100</ele>
        <time>2013-04-13T12:12:24Z</time>
      </trkpt>
      <trkpt lat="44.77647" lon="-0.34823">
        <ele>100</ele>
        <time>2013-04-13T12:12:33Z</time>
      </trkpt>
      <trkpt lat="44.77647" lon="-0.34825">
        <ele>100</ele>
        <time>2013-04-13T12:12:38Z</time>
      </trkpt>
      <trkpt lat="44.77647" lon="-0.34827">
        <ele>100</ele>
        <time>2013-04-13T12:12:49Z</time>
      </trkpt>
      <trkpt lat="44.77648" lon="-0.34828">
        <ele>100</ele>
        <time>2013-04-13T12:13:04Z</time>
      </trkpt>
      <trkpt lat="44.77648" lon="-0.34826">
        <ele>100</ele>
        <time>2013-04-13T12:13:21Z</time>
      </trkpt>
      <trkpt lat="44.77648" lon="-0.34827">
        <ele>100</ele>
        <time>2013-04-13T12:13:36Z</time>
      </trkpt>
      <trkpt lat="44.77648" lon="-0.34827">
        <ele>100</ele>
        <time>2013-04-13T12:13:51Z</time>
      </trkpt>
      <trkpt lat="44.77647" lon="-0.34824">
        <ele>100</ele>
        <time>2013-04-13T12:13:59Z</time>
      </trkpt>
      <trkpt lat="44.77645" lon="-0.34825">
        <ele>100</ele>
        <time>2013-04-13T12:14:12Z</time>
      </trkpt>
      <trkpt lat="44.77645" lon="-0.34825">
        <ele>100</ele>
        <time>2013-04-13T12:14:20Z</time>
      </trkpt>
      <trkpt lat="44.77645" lon="-0.34824">
        <ele>100</ele>
        <time>2013-04-13T12:14:37Z</time>
      </trkpt>
      <trkpt lat="44.77645" lon="-0.34823">
        <ele>100</ele>
        <time>2013-04-13T12:14:51Z</time>
      </trkpt>
      <trkpt lat="44.77645" lon="-0.34823">
        <ele>100</ele>
        <time>2013-04-13T12:15:05Z</time>
      </trkpt>
      <trkpt lat="44.77645" lon="-0.34825">
        <ele>100</ele>
        <time>2013-04-13T12:15:10Z</time>
      </trkpt>
      <trkpt lat="44.77645" lon="-0.34825">
        <ele>100</ele>
        <time>2013-04-13T12:15:15Z</time>
      </trkpt>
      <trkpt lat="44.77646" lon="-0.34828">
        <ele>100</ele>
        <time>2013-04-13T12:15:21Z</time>
      </trkpt>
      <trkpt lat="44.77646" lon="-0.34834">
        <ele>100</ele>
        <time>2013-04-13T12:15:31Z</time>
      </trkpt>
      <trkpt lat="44.77644" lon="-0.34852">
        <ele>100</ele>
        <time>2013-04-13T12:15:39Z</time>
      </trkpt>
      <trkpt lat="44.77644" lon="-0.34859">
        <ele>100</ele>
        <time>2013-04-13T12:15:45Z</time>
      </trkpt>
      <trkpt lat="44.77643" lon="-0.34869">
        <ele>100</ele>
        <time>2013-04-13T12:15:49Z</time>
      </trkpt>
      <trkpt lat="44.77634" lon="-0.34878">
        <ele>99</ele>
        <time>2013-04-13T12:15:56Z</time>
      </trkpt>
      <trkpt lat="44.77632" lon="-0.34877">
        <ele>99</ele>
        <time>2013-04-13T12:16:02Z</time>
      </trkpt>
      <trkpt lat="44.77631" lon="-0.34878">
        <ele>99</ele>
        <time>2013-04-13T12:16:11Z</time>
      </trkpt>
      <trkpt lat="44.77627" lon="-0.34862">
        <ele>100</ele>
        <time>2013-04-13T12:16:17Z</time>
      </trkpt>
      <trkpt lat="44.77627" lon="-0.34855">
        <ele>100</ele>
        <time>2013-04-13T12:16:19Z</time>
      </trkpt>
      <trkpt lat="44.77629" lon="-0.34811">
        <ele>101</ele>
        <time>2013-04-13T12:16:29Z</time>
      </trkpt>
      <trkpt lat="44.77625" lon="-0.34761">
        <ele>102</ele>
        <time>2013-04-13T12:16:39Z</time>
      </trkpt>
      <trkpt lat="44.77619" lon="-0.34715">
        <ele>102</ele>
        <time>2013-04-13T12:16:48Z</time>
      </trkpt>
      <trkpt lat="44.77606" lon="-0.34688">
        <ele>103</ele>
        <time>2013-04-13T12:16:54Z</time>
      </trkpt>
      <trkpt lat="44.77587" lon="-0.34665">
        <ele>103</ele>
        <time>2013-04-13T12:17:00Z</time>
      </trkpt>
      <trkpt lat="44.77583" lon="-0.34663">
        <ele>103</ele>
        <time>2013-04-13T12:17:01Z</time>
      </trkpt>
      <trkpt lat="44.77572" lon="-0.34655">
        <ele>104</ele>
        <time>2013-04-13T12:17:04Z</time>
      </trkpt>
      <trkpt lat="44.7757" lon="-0.34651">
        <ele>104</ele>
        <time>2013-04-13T12:17:05Z</time>
      </trkpt>
      <trkpt lat="44.77569" lon="-0.34646">
        <ele>104</ele>
        <time>2013-04-13T12:17:06Z</time>
      </trkpt>
      <trkpt lat="44.7757" lon="-0.34642">
        <ele>104</ele>
        <time>2013-04-13T12:17:07Z</time>
      </trkpt>
      <trkpt lat="44.77572" lon="-0.34638">
        <ele>104</ele>
        <time>2013-04-13T12:17:08Z</time>
      </trkpt>
      <trkpt lat="44.77575" lon="-0.34635">
        <ele>104</ele>
        <time>2013-04-13T12:17:09Z</time>
      </trkpt>
      <trkpt lat="44.77578" lon="-0.34632">
        <ele>104</ele>
        <time>2013-04-13T12:17:10Z</time>
      </trkpt>
      <trkpt lat="44.77582" lon="-0.34631">
        <ele>104</ele>
        <time>2013-04-13T12:17:11Z</time>
      </trkpt>
      <trkpt lat="44.77586" lon="-0.34629">
        <ele>104</ele>
        <time>2013-04-13T12:17:12Z</time>
      </trkpt>
      <trkpt lat="44.77605" lon="-0.34613">
        <ele>104</ele>
        <time>2013-04-13T12:17:18Z</time>
      </trkpt>
      <trkpt lat="44.77627" lon="-0.34578">
        <ele>104</ele>
        <time>2013-04-13T12:17:27Z</time>
      </trkpt>
      <trkpt lat="44.77637" lon="-0.34543">
        <ele>104</ele>
        <time>2013-04-13T12:17:35Z</time>
      </trkpt>
      <trkpt lat="44.77643" lon="-0.34513">
        <ele>104</ele>
        <time>2013-04-13T12:17:41Z</time>
      </trkpt>
      <trkpt lat="44.77647" lon="-0.34502">
        <ele>104</ele>
        <time>2013-04-13T12:17:43Z</time>
      </trkpt>
      <trkpt lat="44.77648" lon="-0.34497">
        <ele>104</ele>
        <time>2013-04-13T12:17:44Z</time>
      </trkpt>
      <trkpt lat="44.77649" lon="-0.34484">
        <ele>104</ele>
        <time>2013-04-13T12:17:46Z</time>
      </trkpt>
      <trkpt lat="44.77651" lon="-0.34472">
        <ele>104</ele>
        <time>2013-04-13T12:17:48Z</time>
      </trkpt>
      <trkpt lat="44.77652" lon="-0.34466">
        <ele>104</ele>
        <time>2013-04-13T12:17:49Z</time>
      </trkpt>
      <trkpt lat="44.7766" lon="-0.34434">
        <ele>102</ele>
        <time>2013-04-13T12:17:54Z</time>
      </trkpt>
      <trkpt lat="44.77661" lon="-0.34421">
        <ele>102</ele>
        <time>2013-04-13T12:17:56Z</time>
      </trkpt>
      <trkpt lat="44.77663" lon="-0.34414">
        <ele>102</ele>
        <time>2013-04-13T12:17:57Z</time>
      </trkpt>
      <trkpt lat="44.77679" lon="-0.34361">
        <ele>99</ele>
        <time>2013-04-13T12:18:05Z</time>
      </trkpt>
      <trkpt lat="44.77697" lon="-0.34322">
        <ele>100</ele>
        <time>2013-04-13T12:18:12Z</time>
      </trkpt>
      <trkpt lat="44.777" lon="-0.34317">
        <ele>100</ele>
        <time>2013-04-13T12:18:13Z</time>
      </trkpt>
      <trkpt lat="44.77703" lon="-0.34311">
        <ele>101</ele>
        <time>2013-04-13T12:18:14Z</time>
      </trkpt>
      <trkpt lat="44.77705" lon="-0.34306">
        <ele>101</ele>
        <time>2013-04-13T12:18:15Z</time>
      </trkpt>
      <trkpt lat="44.77707" lon="-0.34301">
        <ele>101</ele>
        <time>2013-04-13T12:18:16Z</time>
      </trkpt>
      <trkpt lat="44.77727" lon="-0.3426">
        <ele>102</ele>
        <time>2013-04-13T12:18:24Z</time>
      </trkpt>
      <trkpt lat="44.77727" lon="-0.34255">
        <ele>102</ele>
        <time>2013-04-13T12:18:25Z</time>
      </trkpt>
      <trkpt lat="44.77726" lon="-0.3425">
        <ele>102</ele>
        <time>2013-04-13T12:18:26Z</time>
      </trkpt>
      <trkpt lat="44.77724" lon="-0.34246">
        <ele>102</ele>
        <time>2013-04-13T12:18:27Z</time>
      </trkpt>
      <trkpt lat="44.77722" lon="-0.34243">
        <ele>102</ele>
        <time>2013-04-13T12:18:28Z</time>
      </trkpt>
      <trkpt lat="44.7772" lon="-0.34241">
        <ele>102</ele>
        <time>2013-04-13T12:18:29Z</time>
      </trkpt>
      <trkpt lat="44.77718" lon="-0.3424">
        <ele>102</ele>
        <time>2013-04-13T12:18:30Z</time>
      </trkpt>
      <trkpt lat="44.77716" lon="-0.34239">
        <ele>102</ele>
        <time>2013-04-13T12:18:31Z</time>
      </trkpt>
      <trkpt lat="44.77714" lon="-0.34238">
        <ele>102</ele>
        <time>2013-04-13T12:18:32Z</time>
      </trkpt>
      <trkpt lat="44.77712" lon="-0.34237">
        <ele>102</ele>
        <time>2013-04-13T12:18:33Z</time>
      </trkpt>
      <trkpt lat="44.7771" lon="-0.34236">
        <ele>102</ele>
        <time>2013-04-13T12:18:34Z</time>
      </trkpt>
      <trkpt lat="44.77708" lon="-0.34235">
        <ele>102</ele>
        <time>2013-04-13T12:18:35Z</time>
      </trkpt>
      <trkpt lat="44.77706" lon="-0.34235">
        <ele>103</ele>
        <time>2013-04-13T12:18:36Z</time>
      </trkpt>
      <trkpt lat="44.77704" lon="-0.34234">
        <ele>103</ele>
        <time>2013-04-13T12:18:37Z</time>
      </trkpt>
      <trkpt lat="44.77702" lon="-0.34233">
        <ele>103</ele>
        <time>2013-04-13T12:18:38Z</time>
      </trkpt>
      <trkpt lat="44.77699" lon="-0.34231">
        <ele>103</ele>
        <time>2013-04-13T12:18:39Z</time>
      </trkpt>
      <trkpt lat="44.77697" lon="-0.34229">
        <ele>103</ele>
        <time>2013-04-13T12:18:40Z</time>
      </trkpt>
      <trkpt lat="44.77694" lon="-0.34228">
        <ele>103</ele>
        <time>2013-04-13T12:18:41Z</time>
      </trkpt>
      <trkpt lat="44.77692" lon="-0.34226">
        <ele>103</ele>
        <time>2013-04-13T12:18:42Z</time>
      </trkpt>
      <trkpt lat="44.77689" lon="-0.34225">
        <ele>103</ele>
        <time>2013-04-13T12:18:43Z</time>
      </trkpt>
      <trkpt lat="44.77666" lon="-0.34212">
        <ele>104</ele>
        <time>2013-04-13T12:18:52Z</time>
      </trkpt>
      <trkpt lat="44.77648" lon="-0.34201">
        <ele>104</ele>
        <time>2013-04-13T12:18:59Z</time>
      </trkpt>
      <trkpt lat="44.77622" lon="-0.34188">
        <ele>104</ele>
        <time>2013-04-13T12:19:08Z</time>
      </trkpt>
      <trkpt lat="44.77603" lon="-0.34177">
        <ele>105</ele>
        <time>2013-04-13T12:19:15Z</time>
      </trkpt>
      <trkpt lat="44.77588" lon="-0.3417">
        <ele>105</ele>
        <time>2013-04-13T12:19:21Z</time>
      </trkpt>
      <trkpt lat="44.77576" lon="-0.34165">
        <ele>105</ele>
        <time>2013-04-13T12:19:26Z</time>
      </trkpt>
      <trkpt lat="44.77574" lon="-0.34167">
        <ele>105</ele>
        <time>2013-04-13T12:19:27Z</time>
      </trkpt>
      <trkpt lat="44.77573" lon="-0.34169">
        <ele>105</ele>
        <time>2013-04-13T12:19:28Z</time>
      </trkpt>
      <trkpt lat="44.77572" lon="-0.34172">
        <ele>105</ele>
        <time>2013-04-13T12:19:29Z</time>
      </trkpt>
      <trkpt lat="44.77571" lon="-0.34176">
        <ele>105</ele>
        <time>2013-04-13T12:19:30Z</time>
      </trkpt>
      <trkpt lat="44.77571" lon="-0.34179">
        <ele>105</ele>
        <time>2013-04-13T12:19:31Z</time>
      </trkpt>
      <trkpt lat="44.7757" lon="-0.34183">
        <ele>105</ele>
        <time>2013-04-13T12:19:32Z</time>
      </trkpt>
      <trkpt lat="44.77569" lon="-0.34186">
        <ele>105</ele>
        <time>2013-04-13T12:19:33Z</time>
      </trkpt>
      <trkpt lat="44.77564" lon="-0.34207">
        <ele>104</ele>
        <time>2013-04-13T12:19:39Z</time>
      </trkpt>
      <trkpt lat="44.77557" lon="-0.34237">
        <ele>104</ele>
        <time>2013-04-13T12:19:48Z</time>
      </trkpt>
      <trkpt lat="44.77549" lon="-0.34248">
        <ele>104</ele>
        <time>2013-04-13T12:19:54Z</time>
      </trkpt>
      <trkpt lat="44.77549" lon="-0.34247">
        <ele>104</ele>
        <time>2013-04-13T12:19:58Z</time>
      </trkpt>
      <trkpt lat="44.77548" lon="-0.34246">
        <ele>104</ele>
        <time>2013-04-13T12:20:04Z</time>
      </trkpt>
      <trkpt lat="44.77547" lon="-0.34246">
        <ele>104</ele>
        <time>2013-04-13T12:20:13Z</time>
      </trkpt>
      <trkpt lat="44.77547" lon="-0.34246">
        <ele>104</ele>
        <time>2013-04-13T12:20:24Z</time>
      </trkpt>
      <trkpt lat="44.77546" lon="-0.34247">
        <ele>104</ele>
        <time>2013-04-13T12:20:27Z</time>
      </trkpt>
      <trkpt lat="44.7754" lon="-0.3425">
        <ele>105</ele>
        <time>2013-04-13T12:20:31Z</time>
      </trkpt>
      <trkpt lat="44.77532" lon="-0.34245">
        <ele>105</ele>
        <time>2013-04-13T12:20:38Z</time>
      </trkpt>
      <trkpt lat="44.7752" lon="-0.3424">
        <ele>105</ele>
        <time>2013-04-13T12:20:47Z</time>
      </trkpt>
      <trkpt lat="44.77508" lon="-0.3423">
        <ele>105</ele>
        <time>2013-04-13T12:20:53Z</time>
      </trkpt>
      <trkpt lat="44.77502" lon="-0.34228">
        <ele>105</ele>
        <time>2013-04-13T12:20:56Z</time>
      </trkpt>
      <trkpt lat="44.77491" lon="-0.3422">
        <ele>105</ele>
        <time>2013-04-13T12:21:01Z</time>
      </trkpt>
      <trkpt lat="44.77475" lon="-0.34212">
        <ele>105</ele>
        <time>2013-04-13T12:21:07Z</time>
      </trkpt>
      <trkpt lat="44.77469" lon="-0.34209">
        <ele>105</ele>
        <time>2013-04-13T12:21:09Z</time>
      </trkpt>
      <trkpt lat="44.7745" lon="-0.34199">
        <ele>106</ele>
        <time>2013-04-13T12:21:15Z</time>
      </trkpt>
      <trkpt lat="44.77434" lon="-0.34187">
        <ele>106</ele>
        <time>2013-04-13T12:21:20Z</time>
      </trkpt>
      <trkpt lat="44.77417" lon="-0.3417">
        <ele>106</ele>
        <time>2013-04-13T12:21:26Z</time>
      </trkpt>
      <trkpt lat="44.77403" lon="-0.34155">
        <ele>106</ele>
        <time>2013-04-13T12:21:32Z</time>
      </trkpt>
      <trkpt lat="44.77386" lon="-0.34132">
        <ele>106</ele>
        <time>2013-04-13T12:21:39Z</time>
      </trkpt>
      <trkpt lat="44.77366" lon="-0.34112">
        <ele>106</ele>
        <time>2013-04-13T12:21:46Z</time>
      </trkpt>
      <trkpt lat="44.77352" lon="-0.34095">
        <ele>106</ele>
        <time>2013-04-13T12:21:52Z</time>
      </trkpt>
      <trkpt lat="44.77338" lon="-0.3408">
        <ele>106</ele>
        <time>2013-04-13T12:21:59Z</time>
      </trkpt>
      <trkpt lat="44.77331" lon="-0.34071">
        <ele>106</ele>
        <time>2013-04-13T12:22:03Z</time>
      </trkpt>
      <trkpt lat="44.77328" lon="-0.34061">
        <ele>106</ele>
        <time>2013-04-13T12:22:07Z</time>
      </trkpt>
      <trkpt lat="44.77312" lon="-0.34042">
        <ele>106</ele>
        <time>2013-04-13T12:22:14Z</time>
      </trkpt>
      <trkpt lat="44.77298" lon="-0.34031">
        <ele>106</ele>
        <time>2013-04-13T12:22:20Z</time>
      </trkpt>
      <trkpt lat="44.77286" lon="-0.34009">
        <ele>106</ele>
        <time>2013-04-13T12:22:27Z</time>
      </trkpt>
      <trkpt lat="44.77278" lon="-0.33993">
        <ele>105</ele>
        <time>2013-04-13T12:22:32Z</time>
      </trkpt>
      <trkpt lat="44.77269" lon="-0.33981">
        <ele>105</ele>
        <time>2013-04-13T12:22:38Z</time>
      </trkpt>
      <trkpt lat="44.77261" lon="-0.33969">
        <ele>105</ele>
        <time>2013-04-13T12:22:47Z</time>
      </trkpt>
      <trkpt lat="44.77257" lon="-0.33963">
        <ele>105</ele>
        <time>2013-04-13T12:22:53Z</time>
      </trkpt>
      <trkpt lat="44.77256" lon="-0.33959">
        <ele>105</ele>
        <time>2013-04-13T12:22:56Z</time>
      </trkpt>
      <trkpt lat="44.77255" lon="-0.33951">
        <ele>105</ele>
        <time>2013-04-13T12:23:00Z</time>
      </trkpt>
      <trkpt lat="44.77242" lon="-0.33948">
        <ele>105</ele>
        <time>2013-04-13T12:23:09Z</time>
      </trkpt>
      <trkpt lat="44.77238" lon="-0.33949">
        <ele>105</ele>
        <time>2013-04-13T12:23:11Z</time>
      </trkpt>
      <trkpt lat="44.77229" lon="-0.33943">
        <ele>104</ele>
        <time>2013-04-13T12:23:16Z</time>
      </trkpt>
      <trkpt lat="44.77228" lon="-0.33934">
        <ele>104</ele>
        <time>2013-04-13T12:23:18Z</time>
      </trkpt>
      <trkpt lat="44.77231" lon="-0.33906">
        <ele>105</ele>
        <time>2013-04-13T12:23:25Z</time>
      </trkpt>
      <trkpt lat="44.77234" lon="-0.33865">
        <ele>105</ele>
        <time>2013-04-13T12:23:34Z</time>
      </trkpt>
      <trkpt lat="44.77235" lon="-0.33827">
        <ele>105</ele>
        <time>2013-04-13T12:23:42Z</time>
      </trkpt>
      <trkpt lat="44.77229" lon="-0.33772">
        <ele>104</ele>
        <time>2013-04-13T12:23:53Z</time>
      </trkpt>
      <trkpt lat="44.77227" lon="-0.33762">
        <ele>104</ele>
        <time>2013-04-13T12:23:55Z</time>
      </trkpt>
      <trkpt lat="44.77226" lon="-0.33756">
        <ele>104</ele>
        <time>2013-04-13T12:23:56Z</time>
      </trkpt>
      <trkpt lat="44.77218" lon="-0.33713">
        <ele>104</ele>
        <time>2013-04-13T12:24:04Z</time>
      </trkpt>
      <trkpt lat="44.77204" lon="-0.33664">
        <ele>104</ele>
        <time>2013-04-13T12:24:14Z</time>
      </trkpt>
      <trkpt lat="44.772" lon="-0.33639">
        <ele>104</ele>
        <time>2013-04-13T12:24:20Z</time>
      </trkpt>
      <trkpt lat="44.77203" lon="-0.33617">
        <ele>104</ele>
        <time>2013-04-13T12:24:26Z</time>
      </trkpt>
      <trkpt lat="44.77205" lon="-0.33615">
        <ele>104</ele>
        <time>2013-04-13T12:24:27Z</time>
      </trkpt>
      <trkpt lat="44.7722" lon="-0.33614">
        <ele>104</ele>
        <time>2013-04-13T12:24:33Z</time>
      </trkpt>
      <trkpt lat="44.77222" lon="-0.33614">
        <ele>104</ele>
        <time>2013-04-13T12:24:34Z</time>
      </trkpt>
      <trkpt lat="44.77223" lon="-0.33613">
        <ele>104</ele>
        <time>2013-04-13T12:24:35Z</time>
      </trkpt>
      <trkpt lat="44.77224" lon="-0.33611">
        <ele>104</ele>
        <time>2013-04-13T12:24:36Z</time>
      </trkpt>
      <trkpt lat="44.77224" lon="-0.33609">
        <ele>104</ele>
        <time>2013-04-13T12:24:37Z</time>
      </trkpt>
      <trkpt lat="44.77224" lon="-0.33606">
        <ele>104</ele>
        <time>2013-04-13T12:24:38Z</time>
      </trkpt>
      <trkpt lat="44.77224" lon="-0.33604">
        <ele>104</ele>
        <time>2013-04-13T12:24:39Z</time>
      </trkpt>
      <trkpt lat="44.77223" lon="-0.33602">
        <ele>104</ele>
        <time>2013-04-13T12:24:40Z</time>
      </trkpt>
      <trkpt lat="44.77222" lon="-0.336">
        <ele>104</ele>
        <time>2013-04-13T12:24:41Z</time>
      </trkpt>
      <trkpt lat="44.77216" lon="-0.33585">
        <ele>104</ele>
        <time>2013-04-13T12:24:49Z</time>
      </trkpt>
      <trkpt lat="44.77204" lon="-0.33558">
        <ele>104</ele>
        <time>2013-04-13T12:24:57Z</time>
      </trkpt>
      <trkpt lat="44.77195" lon="-0.33537">
        <ele>104</ele>
        <time>2013-04-13T12:25:03Z</time>
      </trkpt>
      <trkpt lat="44.77195" lon="-0.33534">
        <ele>104</ele>
        <time>2013-04-13T12:25:04Z</time>
      </trkpt>
      <trkpt lat="44.77195" lon="-0.3353">
        <ele>104</ele>
        <time>2013-04-13T12:25:05Z</time>
      </trkpt>
      <trkpt lat="44.77194" lon="-0.33526">
        <ele>104</ele>
        <time>2013-04-13T12:25:06Z</time>
      </trkpt>
      <trkpt lat="44.77193" lon="-0.33522">
        <ele>104</ele>
        <time>2013-04-13T12:25:07Z</time>
      </trkpt>
      <trkpt lat="44.77193" lon="-0.33518">
        <ele>104</ele>
        <time>2013-04-13T12:25:08Z</time>
      </trkpt>
      <trkpt lat="44.77193" lon="-0.33514">
        <ele>104</ele>
        <time>2013-04-13T12:25:09Z</time>
      </trkpt>
      <trkpt lat="44.77193" lon="-0.33511">
        <ele>104</ele>
        <time>2013-04-13T12:25:10Z</time>
      </trkpt>
      <trkpt lat="44.77192" lon="-0.33507">
        <ele>104</ele>
        <time>2013-04-13T12:25:11Z</time>
      </trkpt>
      <trkpt lat="44.77187" lon="-0.33481">
        <ele>104</ele>
        <time>2013-04-13T12:25:18Z</time>
      </trkpt>
      <trkpt lat="44.77185" lon="-0.33469">
        <ele>104</ele>
        <time>2013-04-13T12:25:21Z</time>
      </trkpt>
      <trkpt lat="44.77187" lon="-0.33465">
        <ele>104</ele>
        <time>2013-04-13T12:25:22Z</time>
      </trkpt>
      <trkpt lat="44.77189" lon="-0.33461">
        <ele>104</ele>
        <time>2013-04-13T12:25:23Z</time>
      </trkpt>
      <trkpt lat="44.77189" lon="-0.33457">
        <ele>104</ele>
        <time>2013-04-13T12:25:24Z</time>
      </trkpt>
      <trkpt lat="44.77187" lon="-0.33454">
        <ele>104</ele>
        <time>2013-04-13T12:25:25Z</time>
      </trkpt>
      <trkpt lat="44.7718" lon="-0.33446">
        <ele>104</ele>
        <time>2013-04-13T12:25:28Z</time>
      </trkpt>
      <trkpt lat="44.77181" lon="-0.33413">
        <ele>103</ele>
        <time>2013-04-13T12:25:35Z</time>
      </trkpt>
      <trkpt lat="44.77181" lon="-0.33391">
        <ele>103</ele>
        <time>2013-04-13T12:25:39Z</time>
      </trkpt>
      <trkpt lat="44.77186" lon="-0.33337">
        <ele>103</ele>
        <time>2013-04-13T12:25:48Z</time>
      </trkpt>
      <trkpt lat="44.7719" lon="-0.33294">
        <ele>103</ele>
        <time>2013-04-13T12:25:55Z</time>
      </trkpt>
      <trkpt lat="44.7719" lon="-0.33288">
        <ele>103</ele>
        <time>2013-04-13T12:25:56Z</time>
      </trkpt>
      <trkpt lat="44.77188" lon="-0.33243">
        <ele>102</ele>
        <time>2013-04-13T12:26:04Z</time>
      </trkpt>
      <trkpt lat="44.77184" lon="-0.33233">
        <ele>102</ele>
        <time>2013-04-13T12:26:09Z</time>
      </trkpt>
      <trkpt lat="44.77184" lon="-0.33231">
        <ele>102</ele>
        <time>2013-04-13T12:26:10Z</time>
      </trkpt>
      <trkpt lat="44.77185" lon="-0.33229">
        <ele>102</ele>
        <time>2013-04-13T12:26:11Z</time>
      </trkpt>
      <trkpt lat="44.77187" lon="-0.33228">
        <ele>102</ele>
        <time>2013-04-13T12:26:12Z</time>
      </trkpt>
      <trkpt lat="44.77188" lon="-0.33228">
        <ele>102</ele>
        <time>2013-04-13T12:26:13Z</time>
      </trkpt>
      <trkpt lat="44.7719" lon="-0.33228">
        <ele>102</ele>
        <time>2013-04-13T12:26:14Z</time>
      </trkpt>
      <trkpt lat="44.77191" lon="-0.33228">
        <ele>102</ele>
        <time>2013-04-13T12:26:15Z</time>
      </trkpt>
      <trkpt lat="44.77193" lon="-0.33228">
        <ele>102</ele>
        <time>2013-04-13T12:26:16Z</time>
      </trkpt>
      <trkpt lat="44.77195" lon="-0.33227">
        <ele>102</ele>
        <time>2013-04-13T12:26:17Z</time>
      </trkpt>
      <trkpt lat="44.77197" lon="-0.33227">
        <ele>102</ele>
        <time>2013-04-13T12:26:18Z</time>
      </trkpt>
      <trkpt lat="44.77199" lon="-0.33227">
        <ele>102</ele>
        <time>2013-04-13T12:26:19Z</time>
      </trkpt>
      <trkpt lat="44.77201" lon="-0.33227">
        <ele>102</ele>
        <time>2013-04-13T12:26:20Z</time>
      </trkpt>
      <trkpt lat="44.77204" lon="-0.33227">
        <ele>102</ele>
        <time>2013-04-13T12:26:21Z</time>
      </trkpt>
      <trkpt lat="44.77232" lon="-0.33223">
        <ele>103</ele>
        <time>2013-04-13T12:26:30Z</time>
      </trkpt>
      <trkpt lat="44.77251" lon="-0.33221">
        <ele>103</ele>
        <time>2013-04-13T12:26:37Z</time>
      </trkpt>
      <trkpt lat="44.77274" lon="-0.3322">
        <ele>103</ele>
        <time>2013-04-13T12:26:45Z</time>
      </trkpt>
      <trkpt lat="44.77296" lon="-0.33217">
        <ele>103</ele>
        <time>2013-04-13T12:26:52Z</time>
      </trkpt>
      <trkpt lat="44.77306" lon="-0.33214">
        <ele>103</ele>
        <time>2013-04-13T12:26:56Z</time>
      </trkpt>
      <trkpt lat="44.77308" lon="-0.33211">
        <ele>103</ele>
        <time>2013-04-13T12:26:57Z</time>
      </trkpt>
      <trkpt lat="44.77314" lon="-0.33193">
        <ele>103</ele>
        <time>2013-04-13T12:27:04Z</time>
      </trkpt>
      <trkpt lat="44.7732" lon="-0.33173">
        <ele>102</ele>
        <time>2013-04-13T12:27:10Z</time>
      </trkpt>
      <trkpt lat="44.77326" lon="-0.33148">
        <ele>101</ele>
        <time>2013-04-13T12:27:18Z</time>
      </trkpt>
      <trkpt lat="44.7733" lon="-0.33134">
        <ele>101</ele>
        <time>2013-04-13T12:27:23Z</time>
      </trkpt>
      <trkpt lat="44.77331" lon="-0.33123">
        <ele>101</ele>
        <time>2013-04-13T12:27:28Z</time>
      </trkpt>
      <trkpt lat="44.77333" lon="-0.33111">
        <ele>100</ele>
        <time>2013-04-13T12:27:33Z</time>
      </trkpt>
      <trkpt lat="44.77335" lon="-0.3309">
        <ele>100</ele>
        <time>2013-04-13T12:27:39Z</time>
      </trkpt>
      <trkpt lat="44.77339" lon="-0.33065">
        <ele>99</ele>
        <time>2013-04-13T12:27:46Z</time>
      </trkpt>
      <trkpt lat="44.77345" lon="-0.33041">
        <ele>99</ele>
        <time>2013-04-13T12:27:53Z</time>
      </trkpt>
      <trkpt lat="44.77352" lon="-0.33017">
        <ele>98</ele>
        <time>2013-04-13T12:28:00Z</time>
      </trkpt>
      <trkpt lat="44.77355" lon="-0.33011">
        <ele>98</ele>
        <time>2013-04-13T12:28:02Z</time>
      </trkpt>
      <trkpt lat="44.77357" lon="-0.3301">
        <ele>98</ele>
        <time>2013-04-13T12:28:03Z</time>
      </trkpt>
      <trkpt lat="44.77359" lon="-0.33009">
        <ele>98</ele>
        <time>2013-04-13T12:28:04Z</time>
      </trkpt>
      <trkpt lat="44.77361" lon="-0.33007">
        <ele>98</ele>
        <time>2013-04-13T12:28:05Z</time>
      </trkpt>
      <trkpt lat="44.77362" lon="-0.33005">
        <ele>98</ele>
        <time>2013-04-13T12:28:06Z</time>
      </trkpt>
      <trkpt lat="44.77363" lon="-0.33003">
        <ele>98</ele>
        <time>2013-04-13T12:28:12Z</time>
      </trkpt>
      <trkpt lat="44.77364" lon="-0.33004">
        <ele>98</ele>
        <time>2013-04-13T12:28:21Z</time>
      </trkpt>
      <trkpt lat="44.77364" lon="-0.33003">
        <ele>98</ele>
        <time>2013-04-13T12:28:36Z</time>
      </trkpt>
      <trkpt lat="44.77363" lon="-0.33002">
        <ele>98</ele>
        <time>2013-04-13T12:28:53Z</time>
      </trkpt>
      <trkpt lat="44.77366" lon="-0.33001">
        <ele>98</ele>
        <time>2013-04-13T12:28:59Z</time>
      </trkpt>
      <trkpt lat="44.77379" lon="-0.33">
        <ele>98</ele>
        <time>2013-04-13T12:29:04Z</time>
      </trkpt>
      <trkpt lat="44.77396" lon="-0.32995">
        <ele>98</ele>
        <time>2013-04-13T12:29:10Z</time>
      </trkpt>
      <trkpt lat="44.77415" lon="-0.32977">
        <ele>98</ele>
        <time>2013-04-13T12:29:18Z</time>
      </trkpt>
      <trkpt lat="44.77436" lon="-0.32957">
        <ele>98</ele>
        <time>2013-04-13T12:29:26Z</time>
      </trkpt>
      <trkpt lat="44.77437" lon="-0.32955">
        <ele>98</ele>
        <time>2013-04-13T12:29:27Z</time>
      </trkpt>
      <trkpt lat="44.77448" lon="-0.32942">
        <ele>98</ele>
        <time>2013-04-13T12:29:34Z</time>
      </trkpt>
      <trkpt lat="44.7746" lon="-0.32927">
        <ele>98</ele>
        <time>2013-04-13T12:29:41Z</time>
      </trkpt>
      <trkpt lat="44.77472" lon="-0.32914">
        <ele>98</ele>
        <time>2013-04-13T12:29:47Z</time>
      </trkpt>
      <trkpt lat="44.77486" lon="-0.32902">
        <ele>98</ele>
        <time>2013-04-13T12:29:53Z</time>
      </trkpt>
      <trkpt lat="44.77497" lon="-0.32893">
        <ele>99</ele>
        <time>2013-04-13T12:29:58Z</time>
      </trkpt>
      <trkpt lat="44.77515" lon="-0.32877">
        <ele>99</ele>
        <time>2013-04-13T12:30:05Z</time>
      </trkpt>
      <trkpt lat="44.77527" lon="-0.32866">
        <ele>99</ele>
        <time>2013-04-13T12:30:10Z</time>
      </trkpt>
      <trkpt lat="44.77529" lon="-0.32867">
        <ele>99</ele>
        <time>2013-04-13T12:30:11Z</time>
      </trkpt>
      <trkpt lat="44.77532" lon="-0.32867">
        <ele>99</ele>
        <time>2013-04-13T12:30:12Z</time>
      </trkpt>
      <trkpt lat="44.77534" lon="-0.32866">
        <ele>99</ele>
        <time>2013-04-13T12:30:13Z</time>
      </trkpt>
      <trkpt lat="44.77536" lon="-0.32864">
        <ele>99</ele>
        <time>2013-04-13T12:30:14Z</time>
      </trkpt>
      <trkpt lat="44.77538" lon="-0.32863">
        <ele>99</ele>
        <time>2013-04-13T12:30:15Z</time>
      </trkpt>
      <trkpt lat="44.77557" lon="-0.32857">
        <ele>98</ele>
        <time>2013-04-13T12:30:23Z</time>
      </trkpt>
      <trkpt lat="44.77575" lon="-0.32848">
        <ele>98</ele>
        <time>2013-04-13T12:30:29Z</time>
      </trkpt>
      <trkpt lat="44.77596" lon="-0.32844">
        <ele>97</ele>
        <time>2013-04-13T12:30:35Z</time>
      </trkpt>
      <trkpt lat="44.77608" lon="-0.32827">
        <ele>96</ele>
        <time>2013-04-13T12:30:40Z</time>
      </trkpt>
      <trkpt lat="44.77605" lon="-0.32808">
        <ele>97</ele>
        <time>2013-04-13T12:30:45Z</time>
      </trkpt>
      <trkpt lat="44.776" lon="-0.32787">
        <ele>97</ele>
        <time>2013-04-13T12:30:51Z</time>
      </trkpt>
      <trkpt lat="44.77595" lon="-0.32754">
        <ele>97</ele>
        <time>2013-04-13T12:30:58Z</time>
      </trkpt>
      <trkpt lat="44.7759" lon="-0.32733">
        <ele>96</ele>
        <time>2013-04-13T12:31:03Z</time>
      </trkpt>
      <trkpt lat="44.77587" lon="-0.32709">
        <ele>95</ele>
        <time>2013-04-13T12:31:08Z</time>
      </trkpt>
      <trkpt lat="44.77582" lon="-0.32674">
        <ele>93</ele>
        <time>2013-04-13T12:31:15Z</time>
      </trkpt>
      <trkpt lat="44.77587" lon="-0.32639">
        <ele>91</ele>
        <time>2013-04-13T12:31:21Z</time>
      </trkpt>
      <trkpt lat="44.77588" lon="-0.32618">
        <ele>90</ele>
        <time>2013-04-13T12:31:24Z</time>
      </trkpt>
      <trkpt lat="44.77584" lon="-0.32564">
        <ele>88</ele>
        <time>2013-04-13T12:31:31Z</time>
      </trkpt>
      <trkpt lat="44.77579" lon="-0.32515">
        <ele>86</ele>
        <time>2013-04-13T12:31:36Z</time>
      </trkpt>
      <trkpt lat="44.77578" lon="-0.32487">
        <ele>85</ele>
        <time>2013-04-13T12:31:39Z</time>
      </trkpt>
      <trkpt lat="44.77568" lon="-0.32454">
        <ele>85</ele>
        <time>2013-04-13T12:31:44Z</time>
      </trkpt>
      <trkpt lat="44.77558" lon="-0.32426">
        <ele>84</ele>
        <time>2013-04-13T12:31:50Z</time>
      </trkpt>
      <trkpt lat="44.77553" lon="-0.32415">
        <ele>83</ele>
        <time>2013-04-13T12:31:53Z</time>
      </trkpt>
      <trkpt lat="44.7755" lon="-0.32405">
        <ele>82</ele>
        <time>2013-04-13T12:31:57Z</time>
      </trkpt>
      <trkpt lat="44.77549" lon="-0.3239">
        <ele>81</ele>
        <time>2013-04-13T12:32:04Z</time>
      </trkpt>
      <trkpt lat="44.77552" lon="-0.32387">
        <ele>81</ele>
        <time>2013-04-13T12:32:09Z</time>
      </trkpt>
      <trkpt lat="44.77553" lon="-0.32387">
        <ele>81</ele>
        <time>2013-04-13T12:32:13Z</time>
      </trkpt>
      <trkpt lat="44.77557" lon="-0.32387">
        <ele>82</ele>
        <time>2013-04-13T12:32:20Z</time>
      </trkpt>
      <trkpt lat="44.77557" lon="-0.32386">
        <ele>82</ele>
        <time>2013-04-13T12:32:33Z</time>
      </trkpt>
      <trkpt lat="44.77558" lon="-0.32386">
        <ele>82</ele>
        <time>2013-04-13T12:32:41Z</time>
      </trkpt>
      <trkpt lat="44.77558" lon="-0.32386">
        <ele>82</ele>
        <time>2013-04-13T12:32:52Z</time>
      </trkpt>
      <trkpt lat="44.7756" lon="-0.32386">
        <ele>82</ele>
        <time>2013-04-13T12:33:10Z</time>
      </trkpt>
      <trkpt lat="44.77561" lon="-0.32386">
        <ele>82</ele>
        <time>2013-04-13T12:33:11Z</time>
      </trkpt>
      <trkpt lat="44.77577" lon="-0.32386">
        <ele>81</ele>
        <time>2013-04-13T12:33:18Z</time>
      </trkpt>
      <trkpt lat="44.7758" lon="-0.32386">
        <ele>81</ele>
        <time>2013-04-13T12:33:19Z</time>
      </trkpt>
      <trkpt lat="44.77613" lon="-0.3239">
        <ele>80</ele>
        <time>2013-04-13T12:33:28Z</time>
      </trkpt>
      <trkpt lat="44.77658" lon="-0.32393">
        <ele>78</ele>
        <time>2013-04-13T12:33:38Z</time>
      </trkpt>
      <trkpt lat="44.77698" lon="-0.32396">
        <ele>76</ele>
        <time>2013-04-13T12:33:47Z</time>
      </trkpt>
      <trkpt lat="44.77708" lon="-0.32392">
        <ele>75</ele>
        <time>2013-04-13T12:33:51Z</time>
      </trkpt>
      <trkpt lat="44.77715" lon="-0.32388">
        <ele>75</ele>
        <time>2013-04-13T12:33:55Z</time>
      </trkpt>
      <trkpt lat="44.77724" lon="-0.32393">
        <ele>75</ele>
        <time>2013-04-13T12:34:01Z</time>
      </trkpt>
      <trkpt lat="44.77725" lon="-0.32393">
        <ele>75</ele>
        <time>2013-04-13T12:34:02Z</time>
      </trkpt>
      <trkpt lat="44.77735" lon="-0.32394">
        <ele>74</ele>
        <time>2013-04-13T12:34:07Z</time>
      </trkpt>
      <trkpt lat="44.7775" lon="-0.32398">
        <ele>74</ele>
        <time>2013-04-13T12:34:14Z</time>
      </trkpt>
      <trkpt lat="44.77757" lon="-0.32401">
        <ele>74</ele>
        <time>2013-04-13T12:34:19Z</time>
      </trkpt>
      <trkpt lat="44.77778" lon="-0.32402">
        <ele>73</ele>
        <time>2013-04-13T12:34:28Z</time>
      </trkpt>
      <trkpt lat="44.77803" lon="-0.32403">
        <ele>73</ele>
        <time>2013-04-13T12:34:35Z</time>
      </trkpt>
      <trkpt lat="44.77811" lon="-0.32403">
        <ele>73</ele>
        <time>2013-04-13T12:34:37Z</time>
      </trkpt>
      <trkpt lat="44.77825" lon="-0.32386">
        <ele>72</ele>
        <time>2013-04-13T12:34:42Z</time>
      </trkpt>
      <trkpt lat="44.7783" lon="-0.32364">
        <ele>71</ele>
        <time>2013-04-13T12:34:46Z</time>
      </trkpt>
      <trkpt lat="44.77834" lon="-0.32326">
        <ele>70</ele>
        <time>2013-04-13T12:34:52Z</time>
      </trkpt>
      <trkpt lat="44.77835" lon="-0.32309">
        <ele>70</ele>
        <time>2013-04-13T12:34:55Z</time>
      </trkpt>
      <trkpt lat="44.7784" lon="-0.32272">
        <ele>69</ele>
        <time>2013-04-13T12:35:01Z</time>
      </trkpt>
      <trkpt lat="44.77843" lon="-0.32269">
        <ele>68</ele>
        <time>2013-04-13T12:35:02Z</time>
      </trkpt>
      <trkpt lat="44.77869" lon="-0.32271">
        <ele>67</ele>
        <time>2013-04-13T12:35:08Z</time>
      </trkpt>
      <trkpt lat="44.77874" lon="-0.32272">
        <ele>66</ele>
        <time>2013-04-13T12:35:09Z</time>
      </trkpt>
      <trkpt lat="44.77902" lon="-0.32282">
        <ele>66</ele>
        <time>2013-04-13T12:35:16Z</time>
      </trkpt>
      <trkpt lat="44.77923" lon="-0.32289">
        <ele>66</ele>
        <time>2013-04-13T12:35:22Z</time>
      </trkpt>
      <trkpt lat="44.77933" lon="-0.32292">
        <ele>66</ele>
        <time>2013-04-13T12:35:25Z</time>
      </trkpt>
      <trkpt lat="44.77944" lon="-0.3228">
        <ele>66</ele>
        <time>2013-04-13T12:35:30Z</time>
      </trkpt>
      <trkpt lat="44.7795" lon="-0.3227">
        <ele>65</ele>
        <time>2013-04-13T12:35:33Z</time>
      </trkpt>
      <trkpt lat="44.77958" lon="-0.32269">
        <ele>65</ele>
        <time>2013-04-13T12:35:39Z</time>
      </trkpt>
      <trkpt lat="44.7796" lon="-0.32272">
        <ele>65</ele>
        <time>2013-04-13T12:35:43Z</time>
      </trkpt>
      <trkpt lat="44.77969" lon="-0.32273">
        <ele>65</ele>
        <time>2013-04-13T12:35:49Z</time>
      </trkpt>
      <trkpt lat="44.77979" lon="-0.32272">
        <ele>64</ele>
        <time>2013-04-13T12:35:53Z</time>
      </trkpt>
      <trkpt lat="44.77993" lon="-0.3226">
        <ele>64</ele>
        <time>2013-04-13T12:35:57Z</time>
      </trkpt>
      <trkpt lat="44.77999" lon="-0.32249">
        <ele>63</ele>
        <time>2013-04-13T12:36:02Z</time>
      </trkpt>
      <trkpt lat="44.78002" lon="-0.32248">
        <ele>63</ele>
        <time>2013-04-13T12:36:12Z</time>
      </trkpt>
      <trkpt lat="44.78004" lon="-0.32247">
        <ele>63</ele>
        <time>2013-04-13T12:36:28Z</time>
      </trkpt>
      <trkpt lat="44.78004" lon="-0.32248">
        <ele>63</ele>
        <time>2013-04-13T12:36:38Z</time>
      </trkpt>
      <trkpt lat="44.78003" lon="-0.32247">
        <ele>63</ele>
        <time>2013-04-13T12:36:53Z</time>
      </trkpt>
      <trkpt lat="44.78003" lon="-0.32247">
        <ele>63</ele>
        <time>2013-04-13T12:37:09Z</time>
      </trkpt>
      <trkpt lat="44.78004" lon="-0.32245">
        <ele>63</ele>
        <time>2013-04-13T12:37:29Z</time>
      </trkpt>
      <trkpt lat="44.78004" lon="-0.32245">
        <ele>63</ele>
        <time>2013-04-13T12:37:47Z</time>
      </trkpt>
      <trkpt lat="44.78005" lon="-0.32244">
        <ele>63</ele>
        <time>2013-04-13T12:38:09Z</time>
      </trkpt>
      <trkpt lat="44.78004" lon="-0.32244">
        <ele>63</ele>
        <time>2013-04-13T12:38:25Z</time>
      </trkpt>
      <trkpt lat="44.78004" lon="-0.32245">
        <ele>63</ele>
        <time>2013-04-13T12:38:40Z</time>
      </trkpt>
      <trkpt lat="44.78004" lon="-0.32244">
        <ele>63</ele>
        <time>2013-04-13T12:38:56Z</time>
      </trkpt>
      <trkpt lat="44.78003" lon="-0.32245">
        <ele>63</ele>
        <time>2013-04-13T12:39:15Z</time>
      </trkpt>
      <trkpt lat="44.78003" lon="-0.32244">
        <ele>63</ele>
        <time>2013-04-13T12:39:31Z</time>
      </trkpt>
      <trkpt lat="44.78002" lon="-0.32244">
        <ele>63</ele>
        <time>2013-04-13T12:39:48Z</time>
      </trkpt>
      <trkpt lat="44.78002" lon="-0.32244">
        <ele>63</ele>
        <time>2013-04-13T12:40:05Z</time>
      </trkpt>
      <trkpt lat="44.78008" lon="-0.32225">
        <ele>62</ele>
        <time>2013-04-13T12:40:14Z</time>
      </trkpt>
      <trkpt lat="44.78011" lon="-0.32212">
        <ele>62</ele>
        <time>2013-04-13T12:40:20Z</time>
      </trkpt>
      <trkpt lat="44.78012" lon="-0.32199">
        <ele>61</ele>
        <time>2013-04-13T12:40:27Z</time>
      </trkpt>
      <trkpt lat="44.78017" lon="-0.3218">
        <ele>61</ele>
        <time>2013-04-13T12:40:34Z</time>
      </trkpt>
      <trkpt lat="44.78022" lon="-0.3216">
        <ele>60</ele>
        <time>2013-04-13T12:40:42Z</time>
      </trkpt>
      <trkpt lat="44.78025" lon="-0.32148">
        <ele>60</ele>
        <time>2013-04-13T12:40:48Z</time>
      </trkpt>
      <trkpt lat="44.78014" lon="-0.32144">
        <ele>60</ele>
        <time>2013-04-13T12:40:54Z</time>
      </trkpt>
      <trkpt lat="44.77994" lon="-0.32133">
        <ele>60</ele>
        <time>2013-04-13T12:41:01Z</time>
      </trkpt>
      <trkpt lat="44.7797" lon="-0.32118">
        <ele>60</ele>
        <time>2013-04-13T12:41:09Z</time>
      </trkpt>
      <trkpt lat="44.7795" lon="-0.32107">
        <ele>61</ele>
        <time>2013-04-13T12:41:16Z</time>
      </trkpt>
      <trkpt lat="44.77944" lon="-0.32099">
        <ele>61</ele>
        <time>2013-04-13T12:41:19Z</time>
      </trkpt>
      <trkpt lat="44.77949" lon="-0.3208">
        <ele>60</ele>
        <time>2013-04-13T12:41:25Z</time>
      </trkpt>
      <trkpt lat="44.77954" lon="-0.32064">
        <ele>60</ele>
        <time>2013-04-13T12:41:29Z</time>
      </trkpt>
      <trkpt lat="44.77961" lon="-0.32035">
        <ele>60</ele>
        <time>2013-04-13T12:41:36Z</time>
      </trkpt>
      <trkpt lat="44.77962" lon="-0.32006">
        <ele>60</ele>
        <time>2013-04-13T12:41:42Z</time>
      </trkpt>
      <trkpt lat="44.77948" lon="-0.31971">
        <ele>60</ele>
        <time>2013-04-13T12:41:50Z</time>
      </trkpt>
      <trkpt lat="44.77934" lon="-0.31941">
        <ele>60</ele>
        <time>2013-04-13T12:41:57Z</time>
      </trkpt>
      <trkpt lat="44.7793" lon="-0.31909">
        <ele>61</ele>
        <time>2013-04-13T12:42:04Z</time>
      </trkpt>
      <trkpt lat="44.77935" lon="-0.31875">
        <ele>62</ele>
        <time>2013-04-13T12:42:12Z</time>
      </trkpt>
      <trkpt lat="44.77942" lon="-0.31841">
        <ele>63</ele>
        <time>2013-04-13T12:42:20Z</time>
      </trkpt>
      <trkpt lat="44.7795" lon="-0.318">
        <ele>64</ele>
        <time>2013-04-13T12:42:29Z</time>
      </trkpt>
      <trkpt lat="44.77953" lon="-0.31771">
        <ele>65</ele>
        <time>2013-04-13T12:42:35Z</time>
      </trkpt>
      <trkpt lat="44.77961" lon="-0.31734">
        <ele>66</ele>
        <time>2013-04-13T12:42:43Z</time>
      </trkpt>
      <trkpt lat="44.77969" lon="-0.31692">
        <ele>67</ele>
        <time>2013-04-13T12:42:53Z</time>
      </trkpt>
      <trkpt lat="44.7797" lon="-0.31676">
        <ele>68</ele>
        <time>2013-04-13T12:42:57Z</time>
      </trkpt>
      <trkpt lat="44.77959" lon="-0.31672">
        <ele>68</ele>
        <time>2013-04-13T12:43:01Z</time>
      </trkpt>
      <trkpt lat="44.7794" lon="-0.31668">
        <ele>68</ele>
        <time>2013-04-13T12:43:08Z</time>
      </trkpt>
      <trkpt lat="44.77924" lon="-0.31659">
        <ele>69</ele>
        <time>2013-04-13T12:43:15Z</time>
      </trkpt>
      <trkpt lat="44.77911" lon="-0.31649">
        <ele>70</ele>
        <time>2013-04-13T12:43:21Z</time>
      </trkpt>
      <trkpt lat="44.77895" lon="-0.31643">
        <ele>70</ele>
        <time>2013-04-13T12:43:28Z</time>
      </trkpt>
      <trkpt lat="44.77882" lon="-0.31641">
        <ele>71</ele>
        <time>2013-04-13T12:43:34Z</time>
      </trkpt>
      <trkpt lat="44.77864" lon="-0.31636">
        <ele>71</ele>
        <time>2013-04-13T12:43:42Z</time>
      </trkpt>
      <trkpt lat="44.77841" lon="-0.31628">
        <ele>71</ele>
        <time>2013-04-13T12:43:50Z</time>
      </trkpt>
      <trkpt lat="44.77824" lon="-0.31621">
        <ele>71</ele>
        <time>2013-04-13T12:43:56Z</time>
      </trkpt>
      <trkpt lat="44.77807" lon="-0.31613">
        <ele>70</ele>
        <time>2013-04-13T12:44:03Z</time>
      </trkpt>
      <trkpt lat="44.77785" lon="-0.3161">
        <ele>69</ele>
        <time>2013-04-13T12:44:09Z</time>
      </trkpt>
      <trkpt lat="44.77763" lon="-0.31602">
        <ele>68</ele>
        <time>2013-04-13T12:44:15Z</time>
      </trkpt>
      <trkpt lat="44.77736" lon="-0.31599">
        <ele>68</ele>
        <time>2013-04-13T12:44:22Z</time>
      </trkpt>
      <trkpt lat="44.77717" lon="-0.31603">
        <ele>68</ele>
        <time>2013-04-13T12:44:28Z</time>
      </trkpt>
      <trkpt lat="44.77703" lon="-0.3161">
        <ele>68</ele>
        <time>2013-04-13T12:44:33Z</time>
      </trkpt>
      <trkpt lat="44.77684" lon="-0.31613">
        <ele>70</ele>
        <time>2013-04-13T12:44:39Z</time>
      </trkpt>
      <trkpt lat="44.77662" lon="-0.31619">
        <ele>70</ele>
        <time>2013-04-13T12:44:46Z</time>
      </trkpt>
      <trkpt lat="44.77648" lon="-0.31622">
        <ele>70</ele>
        <time>2013-04-13T12:44:51Z</time>
      </trkpt>
      <trkpt lat="44.77636" lon="-0.31622">
        <ele>71</ele>
        <time>2013-04-13T12:44:58Z</time>
      </trkpt>
      <trkpt lat="44.77632" lon="-0.3162">
        <ele>71</ele>
        <time>2013-04-13T12:45:05Z</time>
      </trkpt>
      <trkpt lat="44.77632" lon="-0.31619">
        <ele>71</ele>
        <time>2013-04-13T12:45:13Z</time>
      </trkpt>
      <trkpt lat="44.77632" lon="-0.31618">
        <ele>71</ele>
        <time>2013-04-13T12:45:27Z</time>
      </trkpt>
      <trkpt lat="44.77631" lon="-0.31618">
        <ele>71</ele>
        <time>2013-04-13T12:45:38Z</time>
      </trkpt>
      <trkpt lat="44.77635" lon="-0.31612">
        <ele>72</ele>
        <time>2013-04-13T12:45:45Z</time>
      </trkpt>
      <trkpt lat="44.77638" lon="-0.31609">
        <ele>72</ele>
        <time>2013-04-13T12:45:51Z</time>
      </trkpt>
      <trkpt lat="44.77638" lon="-0.31608">
        <ele>72</ele>
        <time>2013-04-13T12:45:53Z</time>
      </trkpt>
      <trkpt lat="44.77642" lon="-0.316">
        <ele>72</ele>
        <time>2013-04-13T12:46:01Z</time>
      </trkpt>
      <trkpt lat="44.77643" lon="-0.31597">
        <ele>72</ele>
        <time>2013-04-13T12:46:06Z</time>
      </trkpt>
      <trkpt lat="44.77656" lon="-0.3158">
        <ele>73</ele>
        <time>2013-04-13T12:46:14Z</time>
      </trkpt>
      <trkpt lat="44.7766" lon="-0.31574">
        <ele>73</ele>
        <time>2013-04-13T12:46:17Z</time>
      </trkpt>
      <trkpt lat="44.77667" lon="-0.31562">
        <ele>74</ele>
        <time>2013-04-13T12:46:24Z</time>
      </trkpt>
      <trkpt lat="44.77666" lon="-0.31558">
        <ele>74</ele>
        <time>2013-04-13T12:46:30Z</time>
      </trkpt>
      <trkpt lat="44.77669" lon="-0.3155">
        <ele>75</ele>
        <time>2013-04-13T12:46:39Z</time>
      </trkpt>
      <trkpt lat="44.77671" lon="-0.31544">
        <ele>75</ele>
        <time>2013-04-13T12:46:47Z</time>
      </trkpt>
      <trkpt lat="44.77674" lon="-0.31538">
        <ele>75</ele>
        <time>2013-04-13T12:46:54Z</time>
      </trkpt>
      <trkpt lat="44.77678" lon="-0.31534">
        <ele>75</ele>
        <time>2013-04-13T12:46:58Z</time>
      </trkpt>
      <trkpt lat="44.77682" lon="-0.31526">
        <ele>75</ele>
        <time>2013-04-13T12:47:05Z</time>
      </trkpt>
      <trkpt lat="44.77686" lon="-0.31519">
        <ele>75</ele>
        <time>2013-04-13T12:47:13Z</time>
      </trkpt>
      <trkpt lat="44.7769" lon="-0.3151">
        <ele>75</ele>
        <time>2013-04-13T12:47:21Z</time>
      </trkpt>
      <trkpt lat="44.77691" lon="-0.31508">
        <ele>75</ele>
        <time>2013-04-13T12:47:22Z</time>
      </trkpt>
      <trkpt lat="44.77692" lon="-0.31502">
        <ele>76</ele>
        <time>2013-04-13T12:47:26Z</time>
      </trkpt>
      <trkpt lat="44.77695" lon="-0.31496">
        <ele>76</ele>
        <time>2013-04-13T12:47:35Z</time>
      </trkpt>
      <trkpt lat="44.77699" lon="-0.31486">
        <ele>77</ele>
        <time>2013-04-13T12:47:42Z</time>
      </trkpt>
      <trkpt lat="44.77704" lon="-0.31474">
        <ele>77</ele>
        <time>2013-04-13T12:47:47Z</time>
      </trkpt>
      <trkpt lat="44.77704" lon="-0.31471">
        <ele>77</ele>
        <time>2013-04-13T12:47:48Z</time>
      </trkpt>
      <trkpt lat="44.77706" lon="-0.31459">
        <ele>78</ele>
        <time>2013-04-13T12:47:53Z</time>
      </trkpt>
      <trkpt lat="44.77713" lon="-0.3144">
        <ele>78</ele>
        <time>2013-04-13T12:48:01Z</time>
      </trkpt>
      <trkpt lat="44.77716" lon="-0.31432">
        <ele>79</ele>
        <time>2013-04-13T12:48:05Z</time>
      </trkpt>
      <trkpt lat="44.77723" lon="-0.31422">
        <ele>79</ele>
        <time>2013-04-13T12:48:12Z</time>
      </trkpt>
      <trkpt lat="44.77725" lon="-0.31419">
        <ele>79</ele>
        <time>2013-04-13T12:48:17Z</time>
      </trkpt>
      <trkpt lat="44.77729" lon="-0.31414">
        <ele>79</ele>
        <time>2013-04-13T12:48:24Z</time>
      </trkpt>
      <trkpt lat="44.77735" lon="-0.31408">
        <ele>79</ele>
        <time>2013-04-13T12:48:32Z</time>
      </trkpt>
      <trkpt lat="44.77738" lon="-0.31403">
        <ele>80</ele>
        <time>2013-04-13T12:48:39Z</time>
      </trkpt>
      <trkpt lat="44.77742" lon="-0.31393">
        <ele>80</ele>
        <time>2013-04-13T12:48:47Z</time>
      </trkpt>
      <trkpt lat="44.77743" lon="-0.31392">
        <ele>80</ele>
        <time>2013-04-13T12:48:52Z</time>
      </trkpt>
      <trkpt lat="44.77744" lon="-0.31392">
        <ele>80</ele>
        <time>2013-04-13T12:49:03Z</time>
      </trkpt>
      <trkpt lat="44.77744" lon="-0.31392">
        <ele>80</ele>
        <time>2013-04-13T12:49:16Z</time>
      </trkpt>
      <trkpt lat="44.77743" lon="-0.31392">
        <ele>80</ele>
        <time>2013-04-13T12:49:24Z</time>
      </trkpt>
      <trkpt lat="44.77743" lon="-0.31388">
        <ele>81</ele>
        <time>2013-04-13T12:49:31Z</time>
      </trkpt>
      <trkpt lat="44.77742" lon="-0.31384">
        <ele>81</ele>
        <time>2013-04-13T12:49:37Z</time>
      </trkpt>
      <trkpt lat="44.77742" lon="-0.31385">
        <ele>81</ele>
        <time>2013-04-13T12:49:40Z</time>
      </trkpt>
      <trkpt lat="44.77742" lon="-0.31383">
        <ele>81</ele>
        <time>2013-04-13T12:49:42Z</time>
      </trkpt>
      <trkpt lat="44.77741" lon="-0.31366">
        <ele>82</ele>
        <time>2013-04-13T12:49:49Z</time>
      </trkpt>
      <trkpt lat="44.77741" lon="-0.31361">
        <ele>82</ele>
        <time>2013-04-13T12:49:51Z</time>
      </trkpt>
      <trkpt lat="44.77741" lon="-0.31356">
        <ele>83</ele>
        <time>2013-04-13T12:49:53Z</time>
      </trkpt>
      <trkpt lat="44.77742" lon="-0.31345">
        <ele>83</ele>
        <time>2013-04-13T12:49:57Z</time>
      </trkpt>
      <trkpt lat="44.77745" lon="-0.31317">
        <ele>84</ele>
        <time>2013-04-13T12:50:05Z</time>
      </trkpt>
      <trkpt lat="44.77751" lon="-0.31289">
        <ele>83</ele>
        <time>2013-04-13T12:50:11Z</time>
      </trkpt>
      <trkpt lat="44.77761" lon="-0.31249">
        <ele>82</ele>
        <time>2013-04-13T12:50:17Z</time>
      </trkpt>
      <trkpt lat="44.77766" lon="-0.31216">
        <ele>80</ele>
        <time>2013-04-13T12:50:21Z</time>
      </trkpt>
      <trkpt lat="44.77772" lon="-0.31174">
        <ele>79</ele>
        <time>2013-04-13T12:50:26Z</time>
      </trkpt>
      <trkpt lat="44.77773" lon="-0.31166">
        <ele>78</ele>
        <time>2013-04-13T12:50:27Z</time>
      </trkpt>
      <trkpt lat="44.77775" lon="-0.3115">
        <ele>78</ele>
        <time>2013-04-13T12:50:29Z</time>
      </trkpt>
      <trkpt lat="44.77775" lon="-0.31142">
        <ele>78</ele>
        <time>2013-04-13T12:50:30Z</time>
      </trkpt>
      <trkpt lat="44.77776" lon="-0.31135">
        <ele>78</ele>
        <time>2013-04-13T12:50:31Z</time>
      </trkpt>
      <trkpt lat="44.77779" lon="-0.31121">
        <ele>78</ele>
        <time>2013-04-13T12:50:33Z</time>
      </trkpt>
      <trkpt lat="44.77782" lon="-0.31107">
        <ele>78</ele>
        <time>2013-04-13T12:50:35Z</time>
      </trkpt>
      <trkpt lat="44.77787" lon="-0.31074">
        <ele>78</ele>
        <time>2013-04-13T12:50:40Z</time>
      </trkpt>
      <trkpt lat="44.77792" lon="-0.31028">
        <ele>79</ele>
        <time>2013-04-13T12:50:47Z</time>
      </trkpt>
      <trkpt lat="44.77793" lon="-0.3102">
        <ele>79</ele>
        <time>2013-04-13T12:50:48Z</time>
      </trkpt>
      <trkpt lat="44.77794" lon="-0.31012">
        <ele>79</ele>
        <time>2013-04-13T12:50:49Z</time>
      </trkpt>
      <trkpt lat="44.77795" lon="-0.31004">
        <ele>79</ele>
        <time>2013-04-13T12:50:50Z</time>
      </trkpt>
      <trkpt lat="44.77795" lon="-0.30995">
        <ele>79</ele>
        <time>2013-04-13T12:50:51Z</time>
      </trkpt>
      <trkpt lat="44.77795" lon="-0.30987">
        <ele>79</ele>
        <time>2013-04-13T12:50:52Z</time>
      </trkpt>
      <trkpt lat="44.77797" lon="-0.30955">
        <ele>79</ele>
        <time>2013-04-13T12:50:57Z</time>
      </trkpt>
      <trkpt lat="44.77797" lon="-0.30953">
        <ele>79</ele>
        <time>2013-04-13T12:51:02Z</time>
      </trkpt>
      <trkpt lat="44.77798" lon="-0.30952">
        <ele>79</ele>
        <time>2013-04-13T12:51:12Z</time>
      </trkpt>
      <trkpt lat="44.77798" lon="-0.30953">
        <ele>79</ele>
        <time>2013-04-13T12:51:22Z</time>
      </trkpt>
      <trkpt lat="44.77799" lon="-0.30951">
        <ele>79</ele>
        <time>2013-04-13T12:51:24Z</time>
      </trkpt>
      <trkpt lat="44.77799" lon="-0.30948">
        <ele>79</ele>
        <time>2013-04-13T12:51:26Z</time>
      </trkpt>
      <trkpt lat="44.77798" lon="-0.30947">
        <ele>79</ele>
        <time>2013-04-13T12:51:27Z</time>
      </trkpt>
      <trkpt lat="44.77798" lon="-0.30945">
        <ele>79</ele>
        <time>2013-04-13T12:51:28Z</time>
      </trkpt>
      <trkpt lat="44.77797" lon="-0.30942">
        <ele>79</ele>
        <time>2013-04-13T12:51:29Z</time>
      </trkpt>
      <trkpt lat="44.77796" lon="-0.3094">
        <ele>79</ele>
        <time>2013-04-13T12:51:30Z</time>
      </trkpt>
      <trkpt lat="44.77795" lon="-0.30937">
        <ele>79</ele>
        <time>2013-04-13T12:51:31Z</time>
      </trkpt>
      <trkpt lat="44.77794" lon="-0.30935">
        <ele>79</ele>
        <time>2013-04-13T12:51:32Z</time>
      </trkpt>
      <trkpt lat="44.77793" lon="-0.30933">
        <ele>79</ele>
        <time>2013-04-13T12:51:33Z</time>
      </trkpt>
      <trkpt lat="44.77793" lon="-0.30931">
        <ele>79</ele>
        <time>2013-04-13T12:51:34Z</time>
      </trkpt>
      <trkpt lat="44.77792" lon="-0.30929">
        <ele>79</ele>
        <time>2013-04-13T12:51:35Z</time>
      </trkpt>
      <trkpt lat="44.77786" lon="-0.30913">
        <ele>80</ele>
        <time>2013-04-13T12:51:40Z</time>
      </trkpt>
      <trkpt lat="44.77777" lon="-0.3089">
        <ele>80</ele>
        <time>2013-04-13T12:51:45Z</time>
      </trkpt>
      <trkpt lat="44.77764" lon="-0.30856">
        <ele>81</ele>
        <time>2013-04-13T12:51:52Z</time>
      </trkpt>
      <trkpt lat="44.77751" lon="-0.30825">
        <ele>82</ele>
        <time>2013-04-13T12:51:58Z</time>
      </trkpt>
      <trkpt lat="44.77739" lon="-0.30796">
        <ele>82</ele>
        <time>2013-04-13T12:52:04Z</time>
      </trkpt>
      <trkpt lat="44.77727" lon="-0.30761">
        <ele>81</ele>
        <time>2013-04-13T12:52:11Z</time>
      </trkpt>
      <trkpt lat="44.77724" lon="-0.30755">
        <ele>81</ele>
        <time>2013-04-13T12:52:12Z</time>
      </trkpt>
      <trkpt lat="44.77722" lon="-0.3075">
        <ele>81</ele>
        <time>2013-04-13T12:52:13Z</time>
      </trkpt>
      <trkpt lat="44.77707" lon="-0.30717">
        <ele>80</ele>
        <time>2013-04-13T12:52:19Z</time>
      </trkpt>
      <trkpt lat="44.777" lon="-0.30702">
        <ele>80</ele>
        <time>2013-04-13T12:52:22Z</time>
      </trkpt>
      <trkpt lat="44.77694" lon="-0.30692">
        <ele>80</ele>
        <time>2013-04-13T12:52:24Z</time>
      </trkpt>
      <trkpt lat="44.77692" lon="-0.30687">
        <ele>80</ele>
        <time>2013-04-13T12:52:25Z</time>
      </trkpt>
      <trkpt lat="44.7769" lon="-0.30682">
        <ele>80</ele>
        <time>2013-04-13T12:52:26Z</time>
      </trkpt>
      <trkpt lat="44.77687" lon="-0.30677">
        <ele>80</ele>
        <time>2013-04-13T12:52:27Z</time>
      </trkpt>
      <trkpt lat="44.77685" lon="-0.30673">
        <ele>80</ele>
        <time>2013-04-13T12:52:28Z</time>
      </trkpt>
      <trkpt lat="44.77682" lon="-0.30668">
        <ele>80</ele>
        <time>2013-04-13T12:52:29Z</time>
      </trkpt>
      <trkpt lat="44.7766" lon="-0.3063">
        <ele>79</ele>
        <time>2013-04-13T12:52:37Z</time>
      </trkpt>
      <trkpt lat="44.77634" lon="-0.30592">
        <ele>78</ele>
        <time>2013-04-13T12:52:46Z</time>
      </trkpt>
      <trkpt lat="44.77614" lon="-0.30561">
        <ele>78</ele>
        <time>2013-04-13T12:52:53Z</time>
      </trkpt>
      <trkpt lat="44.77595" lon="-0.3053">
        <ele>79</ele>
        <time>2013-04-13T12:53:00Z</time>
      </trkpt>
      <trkpt lat="44.77572" lon="-0.30495">
        <ele>79</ele>
        <time>2013-04-13T12:53:08Z</time>
      </trkpt>
      <trkpt lat="44.77551" lon="-0.30461">
        <ele>79</ele>
        <time>2013-04-13T12:53:16Z</time>
      </trkpt>
      <trkpt lat="44.77548" lon="-0.30456">
        <ele>79</ele>
        <time>2013-04-13T12:53:17Z</time>
      </trkpt>
      <trkpt lat="44.77518" lon="-0.3041">
        <ele>79</ele>
        <time>2013-04-13T12:53:27Z</time>
      </trkpt>
      <trkpt lat="44.77485" lon="-0.30361">
        <ele>79</ele>
        <time>2013-04-13T12:53:38Z</time>
      </trkpt>
      <trkpt lat="44.77455" lon="-0.30315">
        <ele>81</ele>
        <time>2013-04-13T12:53:49Z</time>
      </trkpt>
      <trkpt lat="44.7742" lon="-0.30261">
        <ele>82</ele>
        <time>2013-04-13T12:54:02Z</time>
      </trkpt>
      <trkpt lat="44.774" lon="-0.30231">
        <ele>83</ele>
        <time>2013-04-13T12:54:11Z</time>
      </trkpt>
      <trkpt lat="44.77391" lon="-0.30217">
        <ele>83</ele>
        <time>2013-04-13T12:54:18Z</time>
      </trkpt>
      <trkpt lat="44.77378" lon="-0.30196">
        <ele>83</ele>
        <time>2013-04-13T12:54:25Z</time>
      </trkpt>
      <trkpt lat="44.77361" lon="-0.3017">
        <ele>83</ele>
        <time>2013-04-13T12:54:33Z</time>
      </trkpt>
      <trkpt lat="44.77335" lon="-0.30133">
        <ele>83</ele>
        <time>2013-04-13T12:54:43Z</time>
      </trkpt>
      <trkpt lat="44.7732" lon="-0.30108">
        <ele>84</ele>
        <time>2013-04-13T12:54:49Z</time>
      </trkpt>
      <trkpt lat="44.77302" lon="-0.30081">
        <ele>84</ele>
        <time>2013-04-13T12:54:56Z</time>
      </trkpt>
      <trkpt lat="44.77281" lon="-0.30051">
        <ele>84</ele>
        <time>2013-04-13T12:55:04Z</time>
      </trkpt>
      <trkpt lat="44.77269" lon="-0.30032">
        <ele>84</ele>
        <time>2013-04-13T12:55:09Z</time>
      </trkpt>
      <trkpt lat="44.77249" lon="-0.30002">
        <ele>84</ele>
        <time>2013-04-13T12:55:17Z</time>
      </trkpt>
      <trkpt lat="44.77234" lon="-0.29981">
        <ele>84</ele>
        <time>2013-04-13T12:55:23Z</time>
      </trkpt>
      <trkpt lat="44.77213" lon="-0.29947">
        <ele>83</ele>
        <time>2013-04-13T12:55:32Z</time>
      </trkpt>
      <trkpt lat="44.77201" lon="-0.29924">
        <ele>83</ele>
        <time>2013-04-13T12:55:39Z</time>
      </trkpt>
      <trkpt lat="44.77189" lon="-0.29904">
        <ele>83</ele>
        <time>2013-04-13T12:55:46Z</time>
      </trkpt>
      <trkpt lat="44.77185" lon="-0.29895">
        <ele>84</ele>
        <time>2013-04-13T12:55:50Z</time>
      </trkpt>
      <trkpt lat="44.77186" lon="-0.29893">
        <ele>84</ele>
        <time>2013-04-13T12:55:51Z</time>
      </trkpt>
      <trkpt lat="44.77187" lon="-0.29886">
        <ele>84</ele>
        <time>2013-04-13T12:55:55Z</time>
      </trkpt>
      <trkpt lat="44.77188" lon="-0.29881">
        <ele>84</ele>
        <time>2013-04-13T12:55:57Z</time>
      </trkpt>
      <trkpt lat="44.77185" lon="-0.29859">
        <ele>85</ele>
        <time>2013-04-13T12:56:04Z</time>
      </trkpt>
      <trkpt lat="44.77185" lon="-0.29841">
        <ele>86</ele>
        <time>2013-04-13T12:56:10Z</time>
      </trkpt>
      <trkpt lat="44.77185" lon="-0.29838">
        <ele>86</ele>
        <time>2013-04-13T12:56:11Z</time>
      </trkpt>
      <trkpt lat="44.77187" lon="-0.29829">
        <ele>86</ele>
        <time>2013-04-13T12:56:14Z</time>
      </trkpt>
      <trkpt lat="44.77191" lon="-0.2981">
        <ele>87</ele>
        <time>2013-04-13T12:56:20Z</time>
      </trkpt>
      <trkpt lat="44.77194" lon="-0.298">
        <ele>87</ele>
        <time>2013-04-13T12:56:24Z</time>
      </trkpt>
      <trkpt lat="44.77197" lon="-0.29793">
        <ele>88</ele>
        <time>2013-04-13T12:56:27Z</time>
      </trkpt>
      <trkpt lat="44.77203" lon="-0.29766">
        <ele>89</ele>
        <time>2013-04-13T12:56:35Z</time>
      </trkpt>
      <trkpt lat="44.7721" lon="-0.29748">
        <ele>90</ele>
        <time>2013-04-13T12:56:41Z</time>
      </trkpt>
      <trkpt lat="44.77218" lon="-0.29728">
        <ele>91</ele>
        <time>2013-04-13T12:56:48Z</time>
      </trkpt>
      <trkpt lat="44.77226" lon="-0.29712">
        <ele>92</ele>
        <time>2013-04-13T12:56:55Z</time>
      </trkpt>
      <trkpt lat="44.77227" lon="-0.29709">
        <ele>92</ele>
        <time>2013-04-13T12:56:56Z</time>
      </trkpt>
      <trkpt lat="44.77232" lon="-0.297">
        <ele>93</ele>
        <time>2013-04-13T12:57:00Z</time>
      </trkpt>
      <trkpt lat="44.77241" lon="-0.29684">
        <ele>94</ele>
        <time>2013-04-13T12:57:09Z</time>
      </trkpt>
      <trkpt lat="44.77244" lon="-0.29678">
        <ele>95</ele>
        <time>2013-04-13T12:57:12Z</time>
      </trkpt>
      <trkpt lat="44.77247" lon="-0.29668">
        <ele>95</ele>
        <time>2013-04-13T12:57:17Z</time>
      </trkpt>
      <trkpt lat="44.7725" lon="-0.29654">
        <ele>96</ele>
        <time>2013-04-13T12:57:24Z</time>
      </trkpt>
      <trkpt lat="44.77251" lon="-0.29652">
        <ele>97</ele>
        <time>2013-04-13T12:57:25Z</time>
      </trkpt>
      <trkpt lat="44.77253" lon="-0.29634">
        <ele>98</ele>
        <time>2013-04-13T12:57:33Z</time>
      </trkpt>
      <trkpt lat="44.77254" lon="-0.2963">
        <ele>98</ele>
        <time>2013-04-13T12:57:35Z</time>
      </trkpt>
      <trkpt lat="44.77258" lon="-0.29615">
        <ele>100</ele>
        <time>2013-04-13T12:57:42Z</time>
      </trkpt>
      <trkpt lat="44.77263" lon="-0.29605">
        <ele>101</ele>
        <time>2013-04-13T12:57:47Z</time>
      </trkpt>
      <trkpt lat="44.77263" lon="-0.296">
        <ele>101</ele>
        <time>2013-04-13T12:57:50Z</time>
      </trkpt>
      <trkpt lat="44.77267" lon="-0.29585">
        <ele>102</ele>
        <time>2013-04-13T12:57:57Z</time>
      </trkpt>
      <trkpt lat="44.77272" lon="-0.29572">
        <ele>103</ele>
        <time>2013-04-13T12:58:04Z</time>
      </trkpt>
      <trkpt lat="44.77269" lon="-0.29565">
        <ele>103</ele>
        <time>2013-04-13T12:58:09Z</time>
      </trkpt>
      <trkpt lat="44.77266" lon="-0.29563">
        <ele>103</ele>
        <time>2013-04-13T12:58:12Z</time>
      </trkpt>
      <trkpt lat="44.77258" lon="-0.29558">
        <ele>103</ele>
        <time>2013-04-13T12:58:19Z</time>
      </trkpt>
      <trkpt lat="44.77258" lon="-0.29558">
        <ele>103</ele>
        <time>2013-04-13T12:58:25Z</time>
      </trkpt>
      <trkpt lat="44.77257" lon="-0.29559">
        <ele>103</ele>
        <time>2013-04-13T12:58:40Z</time>
      </trkpt>
      <trkpt lat="44.77257" lon="-0.29559">
        <ele>103</ele>
        <time>2013-04-13T12:58:52Z</time>
      </trkpt>
      <trkpt lat="44.77257" lon="-0.29558">
        <ele>103</ele>
        <time>2013-04-13T12:59:04Z</time>
      </trkpt>
      <trkpt lat="44.77257" lon="-0.29557">
        <ele>103</ele>
        <time>2013-04-13T12:59:17Z</time>
      </trkpt>
      <trkpt lat="44.7725" lon="-0.29556">
        <ele>103</ele>
        <time>2013-04-13T12:59:23Z</time>
      </trkpt>
      <trkpt lat="44.77237" lon="-0.29551">
        <ele>103</ele>
        <time>2013-04-13T12:59:32Z</time>
      </trkpt>
      <trkpt lat="44.77228" lon="-0.29546">
        <ele>103</ele>
        <time>2013-04-13T12:59:39Z</time>
      </trkpt>
      <trkpt lat="44.77213" lon="-0.29543">
        <ele>103</ele>
        <time>2013-04-13T12:59:48Z</time>
      </trkpt>
      <trkpt lat="44.77203" lon="-0.29542">
        <ele>103</ele>
        <time>2013-04-13T12:59:56Z</time>
      </trkpt>
      <trkpt lat="44.77196" lon="-0.29542">
        <ele>103</ele>
        <time>2013-04-13T13:00:02Z</time>
      </trkpt>
      <trkpt lat="44.77189" lon="-0.29539">
        <ele>103</ele>
        <time>2013-04-13T13:00:07Z</time>
      </trkpt>
      <trkpt lat="44.77183" lon="-0.29532">
        <ele>104</ele>
        <time>2013-04-13T13:00:14Z</time>
      </trkpt>
      <trkpt lat="44.77173" lon="-0.29532">
        <ele>104</ele>
        <time>2013-04-13T13:00:20Z</time>
      </trkpt>
      <trkpt lat="44.77163" lon="-0.29534">
        <ele>104</ele>
        <time>2013-04-13T13:00:25Z</time>
      </trkpt>
      <trkpt lat="44.77147" lon="-0.29539">
        <ele>104</ele>
        <time>2013-04-13T13:00:33Z</time>
      </trkpt>
      <trkpt lat="44.77133" lon="-0.29544">
        <ele>103</ele>
        <time>2013-04-13T13:00:39Z</time>
      </trkpt>
      <trkpt lat="44.77119" lon="-0.29548">
        <ele>103</ele>
        <time>2013-04-13T13:00:46Z</time>
      </trkpt>
      <trkpt lat="44.77102" lon="-0.2955">
        <ele>102</ele>
        <time>2013-04-13T13:00:52Z</time>
      </trkpt>
      <trkpt lat="44.77084" lon="-0.29554">
        <ele>102</ele>
        <time>2013-04-13T13:00:57Z</time>
      </trkpt>
      <trkpt lat="44.77068" lon="-0.29562">
        <ele>101</ele>
        <time>2013-04-13T13:01:02Z</time>
      </trkpt>
      <trkpt lat="44.77065" lon="-0.29566">
        <ele>101</ele>
        <time>2013-04-13T13:01:03Z</time>
      </trkpt>
      <trkpt lat="44.77061" lon="-0.29569">
        <ele>100</ele>
        <time>2013-04-13T13:01:04Z</time>
      </trkpt>
      <trkpt lat="44.77043" lon="-0.29584">
        <ele>99</ele>
        <time>2013-04-13T13:01:10Z</time>
      </trkpt>
      <trkpt lat="44.77038" lon="-0.29588">
        <ele>99</ele>
        <time>2013-04-13T13:01:12Z</time>
      </trkpt>
      <trkpt lat="44.77035" lon="-0.29588">
        <ele>99</ele>
        <time>2013-04-13T13:01:13Z</time>
      </trkpt>
      <trkpt lat="44.77033" lon="-0.29586">
        <ele>99</ele>
        <time>2013-04-13T13:01:14Z</time>
      </trkpt>
      <trkpt lat="44.7703" lon="-0.29584">
        <ele>99</ele>
        <time>2013-04-13T13:01:15Z</time>
      </trkpt>
      <trkpt lat="44.77028" lon="-0.29582">
        <ele>100</ele>
        <time>2013-04-13T13:01:16Z</time>
      </trkpt>
      <trkpt lat="44.77023" lon="-0.29576">
        <ele>100</ele>
        <time>2013-04-13T13:01:19Z</time>
      </trkpt>
      <trkpt lat="44.77023" lon="-0.29574">
        <ele>100</ele>
        <time>2013-04-13T13:01:20Z</time>
      </trkpt>
      <trkpt lat="44.77022" lon="-0.29573">
        <ele>100</ele>
        <time>2013-04-13T13:01:21Z</time>
      </trkpt>
      <trkpt lat="44.77021" lon="-0.29571">
        <ele>101</ele>
        <time>2013-04-13T13:01:22Z</time>
      </trkpt>
      <trkpt lat="44.77021" lon="-0.2957">
        <ele>101</ele>
        <time>2013-04-13T13:01:23Z</time>
      </trkpt>
      <trkpt lat="44.7702" lon="-0.29567">
        <ele>101</ele>
        <time>2013-04-13T13:01:24Z</time>
      </trkpt>
      <trkpt lat="44.7702" lon="-0.29564">
        <ele>101</ele>
        <time>2013-04-13T13:01:25Z</time>
      </trkpt>
      <trkpt lat="44.77019" lon="-0.29562">
        <ele>101</ele>
        <time>2013-04-13T13:01:26Z</time>
      </trkpt>
      <trkpt lat="44.77019" lon="-0.2956">
        <ele>101</ele>
        <time>2013-04-13T13:01:27Z</time>
      </trkpt>
      <trkpt lat="44.77018" lon="-0.29557">
        <ele>102</ele>
        <time>2013-04-13T13:01:28Z</time>
      </trkpt>
      <trkpt lat="44.77013" lon="-0.29542">
        <ele>103</ele>
        <time>2013-04-13T13:01:34Z</time>
      </trkpt>
      <trkpt lat="44.77012" lon="-0.2954">
        <ele>103</ele>
        <time>2013-04-13T13:01:35Z</time>
      </trkpt>
      <trkpt lat="44.77011" lon="-0.29538">
        <ele>103</ele>
        <time>2013-04-13T13:01:36Z</time>
      </trkpt>
      <trkpt lat="44.7701" lon="-0.29535">
        <ele>103</ele>
        <time>2013-04-13T13:01:37Z</time>
      </trkpt>
      <trkpt lat="44.7701" lon="-0.29532">
        <ele>103</ele>
        <time>2013-04-13T13:01:42Z</time>
      </trkpt>
      <trkpt lat="44.77009" lon="-0.29532">
        <ele>103</ele>
        <time>2013-04-13T13:01:54Z</time>
      </trkpt>
      <trkpt lat="44.77009" lon="-0.29533">
        <ele>103</ele>
        <time>2013-04-13T13:02:08Z</time>
      </trkpt>
      <trkpt lat="44.77009" lon="-0.29534">
        <ele>103</ele>
        <time>2013-04-13T13:02:25Z</time>
      </trkpt>
      <trkpt lat="44.77008" lon="-0.29532">
        <ele>103</ele>
        <time>2013-04-13T13:02:35Z</time>
      </trkpt>
      <trkpt lat="44.77008" lon="-0.29528">
        <ele>104</ele>
        <time>2013-04-13T13:02:38Z</time>
      </trkpt>
      <trkpt lat="44.77008" lon="-0.29526">
        <ele>104</ele>
        <time>2013-04-13T13:02:39Z</time>
      </trkpt>
      <trkpt lat="44.77008" lon="-0.29519">
        <ele>104</ele>
        <time>2013-04-13T13:02:45Z</time>
      </trkpt>
      <trkpt lat="44.77008" lon="-0.29515">
        <ele>104</ele>
        <time>2013-04-13T13:02:51Z</time>
      </trkpt>
      <trkpt lat="44.77008" lon="-0.2951">
        <ele>104</ele>
        <time>2013-04-13T13:02:58Z</time>
      </trkpt>
      <trkpt lat="44.77007" lon="-0.29503">
        <ele>105</ele>
        <time>2013-04-13T13:03:01Z</time>
      </trkpt>
      <trkpt lat="44.77006" lon="-0.29496">
        <ele>105</ele>
        <time>2013-04-13T13:03:06Z</time>
      </trkpt>
      <trkpt lat="44.77004" lon="-0.29489">
        <ele>105</ele>
        <time>2013-04-13T13:03:10Z</time>
      </trkpt>
      <trkpt lat="44.77003" lon="-0.29488">
        <ele>105</ele>
        <time>2013-04-13T13:03:11Z</time>
      </trkpt>
      <trkpt lat="44.76997" lon="-0.29479">
        <ele>105</ele>
        <time>2013-04-13T13:03:16Z</time>
      </trkpt>
      <trkpt lat="44.76997" lon="-0.29477">
        <ele>105</ele>
        <time>2013-04-13T13:03:17Z</time>
      </trkpt>
      <trkpt lat="44.76997" lon="-0.29462">
        <ele>106</ele>
        <time>2013-04-13T13:03:23Z</time>
      </trkpt>
      <trkpt lat="44.76997" lon="-0.29459">
        <ele>106</ele>
        <time>2013-04-13T13:03:24Z</time>
      </trkpt>
      <trkpt lat="44.76996" lon="-0.29458">
        <ele>106</ele>
        <time>2013-04-13T13:03:25Z</time>
      </trkpt>
      <trkpt lat="44.76996" lon="-0.29455">
        <ele>106</ele>
        <time>2013-04-13T13:03:26Z</time>
      </trkpt>
      <trkpt lat="44.76995" lon="-0.29452">
        <ele>106</ele>
        <time>2013-04-13T13:03:27Z</time>
      </trkpt>
      <trkpt lat="44.76995" lon="-0.2945">
        <ele>106</ele>
        <time>2013-04-13T13:03:28Z</time>
      </trkpt>
      <trkpt lat="44.76993" lon="-0.29438">
        <ele>106</ele>
        <time>2013-04-13T13:03:34Z</time>
      </trkpt>
      <trkpt lat="44.76993" lon="-0.29435">
        <ele>106</ele>
        <time>2013-04-13T13:03:35Z</time>
      </trkpt>
      <trkpt lat="44.76991" lon="-0.29432">
        <ele>106</ele>
        <time>2013-04-13T13:03:39Z</time>
      </trkpt>
      <trkpt lat="44.7699" lon="-0.2943">
        <ele>106</ele>
        <time>2013-04-13T13:03:40Z</time>
      </trkpt>
      <trkpt lat="44.76988" lon="-0.29428">
        <ele>106</ele>
        <time>2013-04-13T13:03:41Z</time>
      </trkpt>
      <trkpt lat="44.76983" lon="-0.29422">
        <ele>106</ele>
        <time>2013-04-13T13:03:46Z</time>
      </trkpt>
      <trkpt lat="44.76978" lon="-0.29418">
        <ele>106</ele>
        <time>2013-04-13T13:03:50Z</time>
      </trkpt>
      <trkpt lat="44.76975" lon="-0.29413">
        <ele>106</ele>
        <time>2013-04-13T13:03:57Z</time>
      </trkpt>
      <trkpt lat="44.76973" lon="-0.29412">
        <ele>106</ele>
        <time>2013-04-13T13:04:10Z</time>
      </trkpt>
      <trkpt lat="44.76973" lon="-0.29409">
        <ele>106</ele>
        <time>2013-04-13T13:04:28Z</time>
      </trkpt>
      <trkpt lat="44.76972" lon="-0.29407">
        <ele>107</ele>
        <time>2013-04-13T13:04:39Z</time>
      </trkpt>
      <trkpt lat="44.76969" lon="-0.29398">
        <ele>107</ele>
        <time>2013-04-13T13:04:45Z</time>
      </trkpt>
      <trkpt lat="44.76969" lon="-0.29396">
        <ele>107</ele>
        <time>2013-04-13T13:04:46Z</time>
      </trkpt>
      <trkpt lat="44.76966" lon="-0.29386">
        <ele>107</ele>
        <time>2013-04-13T13:04:52Z</time>
      </trkpt>
      <trkpt lat="44.76963" lon="-0.2938">
        <ele>107</ele>
        <time>2013-04-13T13:04:55Z</time>
      </trkpt>
      <trkpt lat="44.76958" lon="-0.29371">
        <ele>107</ele>
        <time>2013-04-13T13:05:01Z</time>
      </trkpt>
      <trkpt lat="44.76954" lon="-0.29362">
        <ele>107</ele>
        <time>2013-04-13T13:05:08Z</time>
      </trkpt>
      <trkpt lat="44.76953" lon="-0.29357">
        <ele>107</ele>
        <time>2013-04-13T13:05:10Z</time>
      </trkpt>
      <trkpt lat="44.76952" lon="-0.29352">
        <ele>107</ele>
        <time>2013-04-13T13:05:16Z</time>
      </trkpt>
      <trkpt lat="44.7695" lon="-0.2935">
        <ele>107</ele>
        <time>2013-04-13T13:05:28Z</time>
      </trkpt>
      <trkpt lat="44.76947" lon="-0.29342">
        <ele>107</ele>
        <time>2013-04-13T13:05:35Z</time>
      </trkpt>
      <trkpt lat="44.76942" lon="-0.29328">
        <ele>106</ele>
        <time>2013-04-13T13:05:43Z</time>
      </trkpt>
      <trkpt lat="44.76942" lon="-0.29322">
        <ele>106</ele>
        <time>2013-04-13T13:05:46Z</time>
      </trkpt>
      <trkpt lat="44.76942" lon="-0.2932">
        <ele>106</ele>
        <time>2013-04-13T13:05:47Z</time>
      </trkpt>
      <trkpt lat="44.76942" lon="-0.29317">
        <ele>106</ele>
        <time>2013-04-13T13:05:48Z</time>
      </trkpt>
      <trkpt lat="44.76941" lon="-0.29315">
        <ele>106</ele>
        <time>2013-04-13T13:05:49Z</time>
      </trkpt>
      <trkpt lat="44.76942" lon="-0.29313">
        <ele>106</ele>
        <time>2013-04-13T13:05:50Z</time>
      </trkpt>
      <trkpt lat="44.76941" lon="-0.29297">
        <ele>106</ele>
        <time>2013-04-13T13:05:56Z</time>
      </trkpt>
      <trkpt lat="44.76941" lon="-0.29279">
        <ele>106</ele>
        <time>2013-04-13T13:06:04Z</time>
      </trkpt>
      <trkpt lat="44.76939" lon="-0.29261">
        <ele>105</ele>
        <time>2013-04-13T13:06:10Z</time>
      </trkpt>
      <trkpt lat="44.76939" lon="-0.29259">
        <ele>105</ele>
        <time>2013-04-13T13:06:11Z</time>
      </trkpt>
      <trkpt lat="44.76939" lon="-0.29256">
        <ele>105</ele>
        <time>2013-04-13T13:06:12Z</time>
      </trkpt>
      <trkpt lat="44.7694" lon="-0.29254">
        <ele>105</ele>
        <time>2013-04-13T13:06:13Z</time>
      </trkpt>
      <trkpt lat="44.76939" lon="-0.29252">
        <ele>105</ele>
        <time>2013-04-13T13:06:14Z</time>
      </trkpt>
      <trkpt lat="44.76939" lon="-0.29249">
        <ele>105</ele>
        <time>2013-04-13T13:06:15Z</time>
      </trkpt>
      <trkpt lat="44.76938" lon="-0.29236">
        <ele>105</ele>
        <time>2013-04-13T13:06:20Z</time>
      </trkpt>
      <trkpt lat="44.76938" lon="-0.29233">
        <ele>105</ele>
        <time>2013-04-13T13:06:21Z</time>
      </trkpt>
      <trkpt lat="44.76938" lon="-0.29231">
        <ele>105</ele>
        <time>2013-04-13T13:06:22Z</time>
      </trkpt>
      <trkpt lat="44.76937" lon="-0.29228">
        <ele>105</ele>
        <time>2013-04-13T13:06:23Z</time>
      </trkpt>
      <trkpt lat="44.76937" lon="-0.29225">
        <ele>105</ele>
        <time>2013-04-13T13:06:24Z</time>
      </trkpt>
      <trkpt lat="44.76937" lon="-0.29221">
        <ele>105</ele>
        <time>2013-04-13T13:06:25Z</time>
      </trkpt>
      <trkpt lat="44.76937" lon="-0.29218">
        <ele>105</ele>
        <time>2013-04-13T13:06:26Z</time>
      </trkpt>
      <trkpt lat="44.76936" lon="-0.29215">
        <ele>105</ele>
        <time>2013-04-13T13:06:27Z</time>
      </trkpt>
      <trkpt lat="44.76936" lon="-0.29212">
        <ele>105</ele>
        <time>2013-04-13T13:06:28Z</time>
      </trkpt>
      <trkpt lat="44.76935" lon="-0.29199">
        <ele>105</ele>
        <time>2013-04-13T13:06:32Z</time>
      </trkpt>
      <trkpt lat="44.76934" lon="-0.29197">
        <ele>105</ele>
        <time>2013-04-13T13:06:33Z</time>
      </trkpt>
      <trkpt lat="44.76931" lon="-0.29191">
        <ele>105</ele>
        <time>2013-04-13T13:06:37Z</time>
      </trkpt>
      <trkpt lat="44.76927" lon="-0.29183">
        <ele>105</ele>
        <time>2013-04-13T13:06:40Z</time>
      </trkpt>
      <trkpt lat="44.76922" lon="-0.29162">
        <ele>105</ele>
        <time>2013-04-13T13:06:47Z</time>
      </trkpt>
      <trkpt lat="44.76919" lon="-0.29136">
        <ele>105</ele>
        <time>2013-04-13T13:06:53Z</time>
      </trkpt>
      <trkpt lat="44.76916" lon="-0.29111">
        <ele>104</ele>
        <time>2013-04-13T13:06:58Z</time>
      </trkpt>
      <trkpt lat="44.76915" lon="-0.29098">
        <ele>103</ele>
        <time>2013-04-13T13:07:00Z</time>
      </trkpt>
      <trkpt lat="44.76914" lon="-0.29091">
        <ele>103</ele>
        <time>2013-04-13T13:07:01Z</time>
      </trkpt>
      <trkpt lat="44.76912" lon="-0.29029">
        <ele>102</ele>
        <time>2013-04-13T13:07:10Z</time>
      </trkpt>
      <trkpt lat="44.76909" lon="-0.28975">
        <ele>100</ele>
        <time>2013-04-13T13:07:18Z</time>
      </trkpt>
      <trkpt lat="44.76909" lon="-0.28943">
        <ele>99</ele>
        <time>2013-04-13T13:07:22Z</time>
      </trkpt>
      <trkpt lat="44.7691" lon="-0.28934">
        <ele>98</ele>
        <time>2013-04-13T13:07:23Z</time>
      </trkpt>
      <trkpt lat="44.76912" lon="-0.28926">
        <ele>97</ele>
        <time>2013-04-13T13:07:24Z</time>
      </trkpt>
      <trkpt lat="44.76914" lon="-0.28918">
        <ele>97</ele>
        <time>2013-04-13T13:07:25Z</time>
      </trkpt>
      <trkpt lat="44.76915" lon="-0.2891">
        <ele>96</ele>
        <time>2013-04-13T13:07:26Z</time>
      </trkpt>
      <trkpt lat="44.76916" lon="-0.28902">
        <ele>95</ele>
        <time>2013-04-13T13:07:27Z</time>
      </trkpt>
      <trkpt lat="44.76916" lon="-0.28894">
        <ele>95</ele>
        <time>2013-04-13T13:07:28Z</time>
      </trkpt>
      <trkpt lat="44.76916" lon="-0.28885">
        <ele>94</ele>
        <time>2013-04-13T13:07:29Z</time>
      </trkpt>
      <trkpt lat="44.76915" lon="-0.28876">
        <ele>93</ele>
        <time>2013-04-13T13:07:30Z</time>
      </trkpt>
      <trkpt lat="44.76913" lon="-0.28866">
        <ele>93</ele>
        <time>2013-04-13T13:07:31Z</time>
      </trkpt>
      <trkpt lat="44.7691" lon="-0.28856">
        <ele>92</ele>
        <time>2013-04-13T13:07:32Z</time>
      </trkpt>
      <trkpt lat="44.76908" lon="-0.28846">
        <ele>91</ele>
        <time>2013-04-13T13:07:33Z</time>
      </trkpt>
      <trkpt lat="44.76906" lon="-0.28836">
        <ele>90</ele>
        <time>2013-04-13T13:07:34Z</time>
      </trkpt>
      <trkpt lat="44.76905" lon="-0.28825">
        <ele>90</ele>
        <time>2013-04-13T13:07:35Z</time>
      </trkpt>
      <trkpt lat="44.76905" lon="-0.28816">
        <ele>89</ele>
        <time>2013-04-13T13:07:36Z</time>
      </trkpt>
      <trkpt lat="44.76907" lon="-0.28807">
        <ele>89</ele>
        <time>2013-04-13T13:07:37Z</time>
      </trkpt>
      <trkpt lat="44.76909" lon="-0.28799">
        <ele>89</ele>
        <time>2013-04-13T13:07:38Z</time>
      </trkpt>
      <trkpt lat="44.76912" lon="-0.2879">
        <ele>89</ele>
        <time>2013-04-13T13:07:39Z</time>
      </trkpt>
      <trkpt lat="44.76914" lon="-0.28782">
        <ele>88</ele>
        <time>2013-04-13T13:07:40Z</time>
      </trkpt>
      <trkpt lat="44.76919" lon="-0.28767">
        <ele>88</ele>
        <time>2013-04-13T13:07:42Z</time>
      </trkpt>
      <trkpt lat="44.76921" lon="-0.28761">
        <ele>88</ele>
        <time>2013-04-13T13:07:43Z</time>
      </trkpt>
      <trkpt lat="44.76922" lon="-0.28755">
        <ele>88</ele>
        <time>2013-04-13T13:07:44Z</time>
      </trkpt>
      <trkpt lat="44.76924" lon="-0.28751">
        <ele>88</ele>
        <time>2013-04-13T13:07:45Z</time>
      </trkpt>
      <trkpt lat="44.76924" lon="-0.28748">
        <ele>88</ele>
        <time>2013-04-13T13:07:46Z</time>
      </trkpt>
      <trkpt lat="44.76924" lon="-0.28746">
        <ele>88</ele>
        <time>2013-04-13T13:07:47Z</time>
      </trkpt>
      <trkpt lat="44.76924" lon="-0.28744">
        <ele>88</ele>
        <time>2013-04-13T13:07:52Z</time>
      </trkpt>
      <trkpt lat="44.76926" lon="-0.28747">
        <ele>88</ele>
        <time>2013-04-13T13:08:07Z</time>
      </trkpt>
      <trkpt lat="44.76927" lon="-0.28748">
        <ele>88</ele>
        <time>2013-04-13T13:08:21Z</time>
      </trkpt>
      <trkpt lat="44.76928" lon="-0.28747">
        <ele>88</ele>
        <time>2013-04-13T13:08:30Z</time>
      </trkpt>
      <trkpt lat="44.76928" lon="-0.28747">
        <ele>88</ele>
        <time>2013-04-13T13:08:35Z</time>
      </trkpt>
      <trkpt lat="44.7693" lon="-0.28742">
        <ele>88</ele>
        <time>2013-04-13T13:08:41Z</time>
      </trkpt>
      <trkpt lat="44.7693" lon="-0.28741">
        <ele>88</ele>
        <time>2013-04-13T13:08:53Z</time>
      </trkpt>
      <trkpt lat="44.76931" lon="-0.28741">
        <ele>88</ele>
        <time>2013-04-13T13:09:03Z</time>
      </trkpt>
      <trkpt lat="44.76931" lon="-0.28737">
        <ele>88</ele>
        <time>2013-04-13T13:09:12Z</time>
      </trkpt>
      <trkpt lat="44.7693" lon="-0.28736">
        <ele>88</ele>
        <time>2013-04-13T13:09:22Z</time>
      </trkpt>
      <trkpt lat="44.76931" lon="-0.28734">
        <ele>88</ele>
        <time>2013-04-13T13:09:33Z</time>
      </trkpt>
      <trkpt lat="44.76931" lon="-0.28734">
        <ele>88</ele>
        <time>2013-04-13T13:09:37Z</time>
      </trkpt>
      <trkpt lat="44.76929" lon="-0.28726">
        <ele>87</ele>
        <time>2013-04-13T13:09:42Z</time>
      </trkpt>
      <trkpt lat="44.76926" lon="-0.28718">
        <ele>87</ele>
        <time>2013-04-13T13:09:46Z</time>
      </trkpt>
      <trkpt lat="44.76916" lon="-0.28699">
        <ele>87</ele>
        <time>2013-04-13T13:09:53Z</time>
      </trkpt>
      <trkpt lat="44.76912" lon="-0.28693">
        <ele>87</ele>
        <time>2013-04-13T13:09:56Z</time>
      </trkpt>
      <trkpt lat="44.76902" lon="-0.28677">
        <ele>87</ele>
        <time>2013-04-13T13:10:03Z</time>
      </trkpt>
      <trkpt lat="44.76896" lon="-0.28663">
        <ele>87</ele>
        <time>2013-04-13T13:10:09Z</time>
      </trkpt>
      <trkpt lat="44.76896" lon="-0.28647">
        <ele>87</ele>
        <time>2013-04-13T13:10:14Z</time>
      </trkpt>
      <trkpt lat="44.76894" lon="-0.28628">
        <ele>87</ele>
        <time>2013-04-13T13:10:20Z</time>
      </trkpt>
      <trkpt lat="44.76889" lon="-0.28611">
        <ele>86</ele>
        <time>2013-04-13T13:10:25Z</time>
      </trkpt>
      <trkpt lat="44.76881" lon="-0.28586">
        <ele>85</ele>
        <time>2013-04-13T13:10:31Z</time>
      </trkpt>
      <trkpt lat="44.7688" lon="-0.28572">
        <ele>85</ele>
        <time>2013-04-13T13:10:35Z</time>
      </trkpt>
      <trkpt lat="44.76872" lon="-0.2855">
        <ele>84</ele>
        <time>2013-04-13T13:10:41Z</time>
      </trkpt>
      <trkpt lat="44.76872" lon="-0.28548">
        <ele>83</ele>
        <time>2013-04-13T13:10:42Z</time>
      </trkpt>
      <trkpt lat="44.76871" lon="-0.28533">
        <ele>82</ele>
        <time>2013-04-13T13:10:48Z</time>
      </trkpt>
      <trkpt lat="44.76869" lon="-0.28524">
        <ele>82</ele>
        <time>2013-04-13T13:10:55Z</time>
      </trkpt>
      <trkpt lat="44.76866" lon="-0.28509">
        <ele>81</ele>
        <time>2013-04-13T13:11:01Z</time>
      </trkpt>
      <trkpt lat="44.76865" lon="-0.28498">
        <ele>80</ele>
        <time>2013-04-13T13:11:08Z</time>
      </trkpt>
      <trkpt lat="44.76863" lon="-0.28482">
        <ele>79</ele>
        <time>2013-04-13T13:11:15Z</time>
      </trkpt>
      <trkpt lat="44.76863" lon="-0.2848">
        <ele>79</ele>
        <time>2013-04-13T13:11:16Z</time>
      </trkpt>
      <trkpt lat="44.76861" lon="-0.28463">
        <ele>77</ele>
        <time>2013-04-13T13:11:23Z</time>
      </trkpt>
      <trkpt lat="44.76861" lon="-0.28455">
        <ele>77</ele>
        <time>2013-04-13T13:11:26Z</time>
      </trkpt>
      <trkpt lat="44.76862" lon="-0.28441">
        <ele>76</ele>
        <time>2013-04-13T13:11:32Z</time>
      </trkpt>
      <trkpt lat="44.76862" lon="-0.2843">
        <ele>75</ele>
        <time>2013-04-13T13:11:37Z</time>
      </trkpt>
      <trkpt lat="44.76863" lon="-0.28406">
        <ele>74</ele>
        <time>2013-04-13T13:11:43Z</time>
      </trkpt>
      <trkpt lat="44.76863" lon="-0.28386">
        <ele>74</ele>
        <time>2013-04-13T13:11:48Z</time>
      </trkpt>
      <trkpt lat="44.76862" lon="-0.28383">
        <ele>74</ele>
        <time>2013-04-13T13:11:49Z</time>
      </trkpt>
      <trkpt lat="44.76858" lon="-0.28365">
        <ele>73</ele>
        <time>2013-04-13T13:11:55Z</time>
      </trkpt>
      <trkpt lat="44.76856" lon="-0.28353">
        <ele>73</ele>
        <time>2013-04-13T13:12:00Z</time>
      </trkpt>
      <trkpt lat="44.76857" lon="-0.28348">
        <ele>73</ele>
        <time>2013-04-13T13:12:02Z</time>
      </trkpt>
      <trkpt lat="44.76853" lon="-0.28327">
        <ele>72</ele>
        <time>2013-04-13T13:12:10Z</time>
      </trkpt>
      <trkpt lat="44.76851" lon="-0.28317">
        <ele>72</ele>
        <time>2013-04-13T13:12:14Z</time>
      </trkpt>
      <trkpt lat="44.76851" lon="-0.28307">
        <ele>72</ele>
        <time>2013-04-13T13:12:22Z</time>
      </trkpt>
      <trkpt lat="44.7685" lon="-0.28304">
        <ele>72</ele>
        <time>2013-04-13T13:12:33Z</time>
      </trkpt>
      <trkpt lat="44.7685" lon="-0.28302">
        <ele>72</ele>
        <time>2013-04-13T13:12:38Z</time>
      </trkpt>
      <trkpt lat="44.76851" lon="-0.283">
        <ele>72</ele>
        <time>2013-04-13T13:12:40Z</time>
      </trkpt>
      <trkpt lat="44.76862" lon="-0.28296">
        <ele>72</ele>
        <time>2013-04-13T13:12:47Z</time>
      </trkpt>
      <trkpt lat="44.76865" lon="-0.28295">
        <ele>72</ele>
        <time>2013-04-13T13:12:48Z</time>
      </trkpt>
      <trkpt lat="44.76868" lon="-0.28292">
        <ele>72</ele>
        <time>2013-04-13T13:12:50Z</time>
      </trkpt>
      <trkpt lat="44.76871" lon="-0.28288">
        <ele>72</ele>
        <time>2013-04-13T13:12:52Z</time>
      </trkpt>
      <trkpt lat="44.76874" lon="-0.28274">
        <ele>71</ele>
        <time>2013-04-13T13:12:58Z</time>
      </trkpt>
      <trkpt lat="44.76877" lon="-0.28265">
        <ele>71</ele>
        <time>2013-04-13T13:13:01Z</time>
      </trkpt>
      <trkpt lat="44.76882" lon="-0.28247">
        <ele>71</ele>
        <time>2013-04-13T13:13:08Z</time>
      </trkpt>
      <trkpt lat="44.76882" lon="-0.28244">
        <ele>71</ele>
        <time>2013-04-13T13:13:09Z</time>
      </trkpt>
      <trkpt lat="44.76882" lon="-0.28238">
        <ele>70</ele>
        <time>2013-04-13T13:13:11Z</time>
      </trkpt>
      <trkpt lat="44.76889" lon="-0.28223">
        <ele>70</ele>
        <time>2013-04-13T13:13:16Z</time>
      </trkpt>
      <trkpt lat="44.76893" lon="-0.28205">
        <ele>70</ele>
        <time>2013-04-13T13:13:21Z</time>
      </trkpt>
      <trkpt lat="44.76896" lon="-0.28197">
        <ele>70</ele>
        <time>2013-04-13T13:13:23Z</time>
      </trkpt>
      <trkpt lat="44.769" lon="-0.28161">
        <ele>69</ele>
        <time>2013-04-13T13:13:31Z</time>
      </trkpt>
      <trkpt lat="44.76903" lon="-0.28132">
        <ele>68</ele>
        <time>2013-04-13T13:13:37Z</time>
      </trkpt>
      <trkpt lat="44.76907" lon="-0.28096">
        <ele>68</ele>
        <time>2013-04-13T13:13:44Z</time>
      </trkpt>
      <trkpt lat="44.76907" lon="-0.28079">
        <ele>68</ele>
        <time>2013-04-13T13:13:47Z</time>
      </trkpt>
      <trkpt lat="44.76906" lon="-0.28049">
        <ele>67</ele>
        <time>2013-04-13T13:13:52Z</time>
      </trkpt>
      <trkpt lat="44.76905" lon="-0.28036">
        <ele>67</ele>
        <time>2013-04-13T13:13:54Z</time>
      </trkpt>
      <trkpt lat="44.76903" lon="-0.28017">
        <ele>67</ele>
        <time>2013-04-13T13:13:57Z</time>
      </trkpt>
      <trkpt lat="44.76894" lon="-0.27977">
        <ele>66</ele>
        <time>2013-04-13T13:14:04Z</time>
      </trkpt>
      <trkpt lat="44.76892" lon="-0.27965">
        <ele>66</ele>
        <time>2013-04-13T13:14:06Z</time>
      </trkpt>
      <trkpt lat="44.76886" lon="-0.27937">
        <ele>66</ele>
        <time>2013-04-13T13:14:12Z</time>
      </trkpt>
      <trkpt lat="44.76882" lon="-0.27907">
        <ele>65</ele>
        <time>2013-04-13T13:14:21Z</time>
      </trkpt>
      <trkpt lat="44.76882" lon="-0.27881">
        <ele>65</ele>
        <time>2013-04-13T13:14:29Z</time>
      </trkpt>
      <trkpt lat="44.76883" lon="-0.27866">
        <ele>65</ele>
        <time>2013-04-13T13:14:36Z</time>
      </trkpt>
      <trkpt lat="44.76884" lon="-0.27847">
        <ele>65</ele>
        <time>2013-04-13T13:14:42Z</time>
      </trkpt>
      <trkpt lat="44.76885" lon="-0.27826">
        <ele>65</ele>
        <time>2013-04-13T13:14:49Z</time>
      </trkpt>
      <trkpt lat="44.7689" lon="-0.27819">
        <ele>65</ele>
        <time>2013-04-13T13:14:55Z</time>
      </trkpt>
      <trkpt lat="44.76891" lon="-0.2782">
        <ele>65</ele>
        <time>2013-04-13T13:15:01Z</time>
      </trkpt>
      <trkpt lat="44.76892" lon="-0.2782">
        <ele>65</ele>
        <time>2013-04-13T13:15:02Z</time>
      </trkpt>
      <trkpt lat="44.76894" lon="-0.2782">
        <ele>65</ele>
        <time>2013-04-13T13:15:03Z</time>
      </trkpt>
      <trkpt lat="44.76895" lon="-0.27821">
        <ele>65</ele>
        <time>2013-04-13T13:15:04Z</time>
      </trkpt>
      <trkpt lat="44.76897" lon="-0.27822">
        <ele>65</ele>
        <time>2013-04-13T13:15:05Z</time>
      </trkpt>
      <trkpt lat="44.76899" lon="-0.27822">
        <ele>65</ele>
        <time>2013-04-13T13:15:06Z</time>
      </trkpt>
      <trkpt lat="44.76908" lon="-0.27823">
        <ele>65</ele>
        <time>2013-04-13T13:15:10Z</time>
      </trkpt>
      <trkpt lat="44.76928" lon="-0.27821">
        <ele>66</ele>
        <time>2013-04-13T13:15:17Z</time>
      </trkpt>
      <trkpt lat="44.76949" lon="-0.27814">
        <ele>66</ele>
        <time>2013-04-13T13:15:24Z</time>
      </trkpt>
      <trkpt lat="44.76975" lon="-0.278">
        <ele>67</ele>
        <time>2013-04-13T13:15:32Z</time>
      </trkpt>
      <trkpt lat="44.77001" lon="-0.27793">
        <ele>68</ele>
        <time>2013-04-13T13:15:40Z</time>
      </trkpt>
      <trkpt lat="44.7703" lon="-0.27787">
        <ele>69</ele>
        <time>2013-04-13T13:15:49Z</time>
      </trkpt>
      <trkpt lat="44.77066" lon="-0.27781">
        <ele>70</ele>
        <time>2013-04-13T13:15:59Z</time>
      </trkpt>
      <trkpt lat="44.77102" lon="-0.27775">
        <ele>70</ele>
        <time>2013-04-13T13:16:09Z</time>
      </trkpt>
      <trkpt lat="44.77128" lon="-0.27772">
        <ele>71</ele>
        <time>2013-04-13T13:16:17Z</time>
      </trkpt>
      <trkpt lat="44.77144" lon="-0.2777">
        <ele>71</ele>
        <time>2013-04-13T13:16:23Z</time>
      </trkpt>
      <trkpt lat="44.77146" lon="-0.27766">
        <ele>71</ele>
        <time>2013-04-13T13:16:24Z</time>
      </trkpt>
      <trkpt lat="44.77147" lon="-0.27762">
        <ele>71</ele>
        <time>2013-04-13T13:16:25Z</time>
      </trkpt>
      <trkpt lat="44.77147" lon="-0.27758">
        <ele>71</ele>
        <time>2013-04-13T13:16:26Z</time>
      </trkpt>
      <trkpt lat="44.77146" lon="-0.27754">
        <ele>71</ele>
        <time>2013-04-13T13:16:27Z</time>
      </trkpt>
      <trkpt lat="44.77144" lon="-0.27728">
        <ele>70</ele>
        <time>2013-04-13T13:16:34Z</time>
      </trkpt>
      <trkpt lat="44.77138" lon="-0.27696">
        <ele>70</ele>
        <time>2013-04-13T13:16:41Z</time>
      </trkpt>
      <trkpt lat="44.77137" lon="-0.2769">
        <ele>70</ele>
        <time>2013-04-13T13:16:42Z</time>
      </trkpt>
      <trkpt lat="44.77136" lon="-0.27672">
        <ele>70</ele>
        <time>2013-04-13T13:16:45Z</time>
      </trkpt>
      <trkpt lat="44.77136" lon="-0.27666">
        <ele>70</ele>
        <time>2013-04-13T13:16:46Z</time>
      </trkpt>
      <trkpt lat="44.77136" lon="-0.2766">
        <ele>69</ele>
        <time>2013-04-13T13:16:47Z</time>
      </trkpt>
      <trkpt lat="44.77136" lon="-0.27652">
        <ele>69</ele>
        <time>2013-04-13T13:16:48Z</time>
      </trkpt>
      <trkpt lat="44.77135" lon="-0.27644">
        <ele>69</ele>
        <time>2013-04-13T13:16:49Z</time>
      </trkpt>
      <trkpt lat="44.77135" lon="-0.27636">
        <ele>69</ele>
        <time>2013-04-13T13:16:50Z</time>
      </trkpt>
      <trkpt lat="44.77134" lon="-0.27599">
        <ele>68</ele>
        <time>2013-04-13T13:16:55Z</time>
      </trkpt>
      <trkpt lat="44.77131" lon="-0.27577">
        <ele>67</ele>
        <time>2013-04-13T13:16:58Z</time>
      </trkpt>
      <trkpt lat="44.7713" lon="-0.2757">
        <ele>67</ele>
        <time>2013-04-13T13:16:59Z</time>
      </trkpt>
      <trkpt lat="44.7713" lon="-0.27565">
        <ele>66</ele>
        <time>2013-04-13T13:17:00Z</time>
      </trkpt>
      <trkpt lat="44.77126" lon="-0.27539">
        <ele>65</ele>
        <time>2013-04-13T13:17:06Z</time>
      </trkpt>
      <trkpt lat="44.77122" lon="-0.27508">
        <ele>63</ele>
        <time>2013-04-13T13:17:12Z</time>
      </trkpt>
      <trkpt lat="44.77114" lon="-0.27467">
        <ele>60</ele>
        <time>2013-04-13T13:17:17Z</time>
      </trkpt>
      <trkpt lat="44.77107" lon="-0.27426">
        <ele>58</ele>
        <time>2013-04-13T13:17:22Z</time>
      </trkpt>
      <trkpt lat="44.77101" lon="-0.27405">
        <ele>57</ele>
        <time>2013-04-13T13:17:27Z</time>
      </trkpt>
      <trkpt lat="44.77092" lon="-0.27382">
        <ele>55</ele>
        <time>2013-04-13T13:17:33Z</time>
      </trkpt>
      <trkpt lat="44.77087" lon="-0.27362">
        <ele>55</ele>
        <time>2013-04-13T13:17:39Z</time>
      </trkpt>
      <trkpt lat="44.77086" lon="-0.27356">
        <ele>54</ele>
        <time>2013-04-13T13:17:41Z</time>
      </trkpt>
      <trkpt lat="44.7709" lon="-0.27339">
        <ele>54</ele>
        <time>2013-04-13T13:17:47Z</time>
      </trkpt>
      <trkpt lat="44.77094" lon="-0.27336">
        <ele>54</ele>
        <time>2013-04-13T13:17:50Z</time>
      </trkpt>
      <trkpt lat="44.77102" lon="-0.27332">
        <ele>54</ele>
        <time>2013-04-13T13:17:56Z</time>
      </trkpt>
      <trkpt lat="44.77115" lon="-0.27325">
        <ele>54</ele>
        <time>2013-04-13T13:18:02Z</time>
      </trkpt>
      <trkpt lat="44.77126" lon="-0.27319">
        <ele>54</ele>
        <time>2013-04-13T13:18:08Z</time>
      </trkpt>
      <trkpt lat="44.77133" lon="-0.27314">
        <ele>54</ele>
        <time>2013-04-13T13:18:14Z</time>
      </trkpt>
      <trkpt lat="44.77136" lon="-0.27311">
        <ele>54</ele>
        <time>2013-04-13T13:18:21Z</time>
      </trkpt>
      <trkpt lat="44.77141" lon="-0.27307">
        <ele>54</ele>
        <time>2013-04-13T13:18:29Z</time>
      </trkpt>
      <trkpt lat="44.77141" lon="-0.27302">
        <ele>54</ele>
        <time>2013-04-13T13:18:39Z</time>
      </trkpt>
      <trkpt lat="44.77141" lon="-0.27296">
        <ele>54</ele>
        <time>2013-04-13T13:18:45Z</time>
      </trkpt>
      <trkpt lat="44.7714" lon="-0.27283">
        <ele>54</ele>
        <time>2013-04-13T13:18:53Z</time>
      </trkpt>
      <trkpt lat="44.77141" lon="-0.27274">
        <ele>53</ele>
        <time>2013-04-13T13:18:57Z</time>
      </trkpt>
      <trkpt lat="44.77139" lon="-0.27249">
        <ele>53</ele>
        <time>2013-04-13T13:19:05Z</time>
      </trkpt>
      <trkpt lat="44.77136" lon="-0.27233">
        <ele>54</ele>
        <time>2013-04-13T13:19:10Z</time>
      </trkpt>
      <trkpt lat="44.77134" lon="-0.27209">
        <ele>54</ele>
        <time>2013-04-13T13:19:17Z</time>
      </trkpt>
      <trkpt lat="44.77124" lon="-0.27189">
        <ele>55</ele>
        <time>2013-04-13T13:19:24Z</time>
      </trkpt>
      <trkpt lat="44.77116" lon="-0.27165">
        <ele>55</ele>
        <time>2013-04-13T13:19:30Z</time>
      </trkpt>
      <trkpt lat="44.77109" lon="-0.27147">
        <ele>56</ele>
        <time>2013-04-13T13:19:35Z</time>
      </trkpt>
      <trkpt lat="44.77103" lon="-0.27131">
        <ele>57</ele>
        <time>2013-04-13T13:19:40Z</time>
      </trkpt>
      <trkpt lat="44.77095" lon="-0.27103">
        <ele>58</ele>
        <time>2013-04-13T13:19:47Z</time>
      </trkpt>
      <trkpt lat="44.77085" lon="-0.27073">
        <ele>59</ele>
        <time>2013-04-13T13:19:55Z</time>
      </trkpt>
      <trkpt lat="44.77076" lon="-0.27052">
        <ele>59</ele>
        <time>2013-04-13T13:20:02Z</time>
      </trkpt>
      <trkpt lat="44.77074" lon="-0.2705">
        <ele>59</ele>
        <time>2013-04-13T13:20:06Z</time>
      </trkpt>
      <trkpt lat="44.77073" lon="-0.27047">
        <ele>59</ele>
        <time>2013-04-13T13:20:12Z</time>
      </trkpt>
      <trkpt lat="44.77073" lon="-0.27047">
        <ele>59</ele>
        <time>2013-04-13T13:20:13Z</time>
      </trkpt>
      <trkpt lat="44.77074" lon="-0.27041">
        <ele>59</ele>
        <time>2013-04-13T13:20:19Z</time>
      </trkpt>
      <trkpt lat="44.77074" lon="-0.27041">
        <ele>59</ele>
        <time>2013-04-13T13:20:26Z</time>
      </trkpt>
      <trkpt lat="44.77074" lon="-0.2704">
        <ele>59</ele>
        <time>2013-04-13T13:20:35Z</time>
      </trkpt>
      <trkpt lat="44.77073" lon="-0.27041">
        <ele>59</ele>
        <time>2013-04-13T13:20:46Z</time>
      </trkpt>
      <trkpt lat="44.77073" lon="-0.2704">
        <ele>59</ele>
        <time>2013-04-13T13:20:57Z</time>
      </trkpt>
      <trkpt lat="44.77074" lon="-0.27041">
        <ele>59</ele>
        <time>2013-04-13T13:21:09Z</time>
      </trkpt>
      <trkpt lat="44.77074" lon="-0.2704">
        <ele>59</ele>
        <time>2013-04-13T13:21:21Z</time>
      </trkpt>
      <trkpt lat="44.77075" lon="-0.27035">
        <ele>60</ele>
        <time>2013-04-13T13:21:24Z</time>
      </trkpt>
      <trkpt lat="44.77073" lon="-0.27027">
        <ele>60</ele>
        <time>2013-04-13T13:21:29Z</time>
      </trkpt>
      <trkpt lat="44.77074" lon="-0.27027">
        <ele>60</ele>
        <time>2013-04-13T13:21:41Z</time>
      </trkpt>
      <trkpt lat="44.77073" lon="-0.27025">
        <ele>60</ele>
        <time>2013-04-13T13:21:53Z</time>
      </trkpt>
      <trkpt lat="44.77073" lon="-0.27025">
        <ele>60</ele>
        <time>2013-04-13T13:21:55Z</time>
      </trkpt>
      <trkpt lat="44.77072" lon="-0.27022">
        <ele>60</ele>
        <time>2013-04-13T13:21:58Z</time>
      </trkpt>
      <trkpt lat="44.7707" lon="-0.27013">
        <ele>60</ele>
        <time>2013-04-13T13:22:03Z</time>
      </trkpt>
      <trkpt lat="44.77063" lon="-0.2699">
        <ele>60</ele>
        <time>2013-04-13T13:22:12Z</time>
      </trkpt>
      <trkpt lat="44.77057" lon="-0.26971">
        <ele>61</ele>
        <time>2013-04-13T13:22:21Z</time>
      </trkpt>
      <trkpt lat="44.77053" lon="-0.26957">
        <ele>61</ele>
        <time>2013-04-13T13:22:28Z</time>
      </trkpt>
      <trkpt lat="44.77049" lon="-0.26938">
        <ele>62</ele>
        <time>2013-04-13T13:22:36Z</time>
      </trkpt>
      <trkpt lat="44.77046" lon="-0.26918">
        <ele>62</ele>
        <time>2013-04-13T13:22:45Z</time>
      </trkpt>
      <trkpt lat="44.77041" lon="-0.26903">
        <ele>62</ele>
        <time>2013-04-13T13:22:53Z</time>
      </trkpt>
      <trkpt lat="44.77036" lon="-0.26887">
        <ele>62</ele>
        <time>2013-04-13T13:22:58Z</time>
      </trkpt>
      <trkpt lat="44.77029" lon="-0.26865">
        <ele>63</ele>
        <time>2013-04-13T13:23:04Z</time>
      </trkpt>
      <trkpt lat="44.77021" lon="-0.26846">
        <ele>63</ele>
        <time>2013-04-13T13:23:11Z</time>
      </trkpt>
      <trkpt lat="44.77013" lon="-0.26828">
        <ele>63</ele>
        <time>2013-04-13T13:23:18Z</time>
      </trkpt>
      <trkpt lat="44.77003" lon="-0.26805">
        <ele>63</ele>
        <time>2013-04-13T13:23:28Z</time>
      </trkpt>
      <trkpt lat="44.76994" lon="-0.26784">
        <ele>63</ele>
        <time>2013-04-13T13:23:37Z</time>
      </trkpt>
      <trkpt lat="44.76987" lon="-0.26765">
        <ele>63</ele>
        <time>2013-04-13T13:23:45Z</time>
      </trkpt>
      <trkpt lat="44.7698" lon="-0.26746">
        <ele>63</ele>
        <time>2013-04-13T13:23:52Z</time>
      </trkpt>
      <trkpt lat="44.76973" lon="-0.26726">
        <ele>63</ele>
        <time>2013-04-13T13:24:00Z</time>
      </trkpt>
      <trkpt lat="44.76968" lon="-0.26703">
        <ele>63</ele>
        <time>2013-04-13T13:24:08Z</time>
      </trkpt>
      <trkpt lat="44.76961" lon="-0.26675">
        <ele>63</ele>
        <time>2013-04-13T13:24:17Z</time>
      </trkpt>
      <trkpt lat="44.76954" lon="-0.26645">
        <ele>63</ele>
        <time>2013-04-13T13:24:26Z</time>
      </trkpt>
      <trkpt lat="44.76949" lon="-0.26618">
        <ele>64</ele>
        <time>2013-04-13T13:24:34Z</time>
      </trkpt>
      <trkpt lat="44.76942" lon="-0.26585">
        <ele>64</ele>
        <time>2013-04-13T13:24:44Z</time>
      </trkpt>
      <trkpt lat="44.76936" lon="-0.2656">
        <ele>65</ele>
        <time>2013-04-13T13:24:52Z</time>
      </trkpt>
      <trkpt lat="44.76931" lon="-0.26535">
        <ele>65</ele>
        <time>2013-04-13T13:25:00Z</time>
      </trkpt>
      <trkpt lat="44.76925" lon="-0.26507">
        <ele>65</ele>
        <time>2013-04-13T13:25:09Z</time>
      </trkpt>
      <trkpt lat="44.76919" lon="-0.26474">
        <ele>66</ele>
        <time>2013-04-13T13:25:20Z</time>
      </trkpt>
      <trkpt lat="44.76914" lon="-0.26449">
        <ele>66</ele>
        <time>2013-04-13T13:25:29Z</time>
      </trkpt>
      <trkpt lat="44.7691" lon="-0.26425">
        <ele>67</ele>
        <time>2013-04-13T13:25:37Z</time>
      </trkpt>
      <trkpt lat="44.76906" lon="-0.26402">
        <ele>66</ele>
        <time>2013-04-13T13:25:44Z</time>
      </trkpt>
      <trkpt lat="44.76902" lon="-0.26373">
        <ele>66</ele>
        <time>2013-04-13T13:25:53Z</time>
      </trkpt>
      <trkpt lat="44.76899" lon="-0.26349">
        <ele>66</ele>
        <time>2013-04-13T13:26:01Z</time>
      </trkpt>
      <trkpt lat="44.76897" lon="-0.26339">
        <ele>66</ele>
        <time>2013-04-13T13:26:05Z</time>
      </trkpt>
      <trkpt lat="44.76884" lon="-0.26328">
        <ele>66</ele>
        <time>2013-04-13T13:26:13Z</time>
      </trkpt>
      <trkpt lat="44.76882" lon="-0.26328">
        <ele>66</ele>
        <time>2013-04-13T13:26:14Z</time>
      </trkpt>
      <trkpt lat="44.76869" lon="-0.26325">
        <ele>66</ele>
        <time>2013-04-13T13:26:21Z</time>
      </trkpt>
      <trkpt lat="44.76859" lon="-0.26322">
        <ele>66</ele>
        <time>2013-04-13T13:26:27Z</time>
      </trkpt>
      <trkpt lat="44.76855" lon="-0.2632">
        <ele>66</ele>
        <time>2013-04-13T13:26:30Z</time>
      </trkpt>
      <trkpt lat="44.76841" lon="-0.26318">
        <ele>66</ele>
        <time>2013-04-13T13:26:39Z</time>
      </trkpt>
      <trkpt lat="44.7684" lon="-0.26317">
        <ele>66</ele>
        <time>2013-04-13T13:26:40Z</time>
      </trkpt>
      <trkpt lat="44.76837" lon="-0.26315">
        <ele>66</ele>
        <time>2013-04-13T13:26:42Z</time>
      </trkpt>
      <trkpt lat="44.76834" lon="-0.26315">
        <ele>66</ele>
        <time>2013-04-13T13:26:44Z</time>
      </trkpt>
      <trkpt lat="44.76831" lon="-0.26309">
        <ele>66</ele>
        <time>2013-04-13T13:26:48Z</time>
      </trkpt>
      <trkpt lat="44.7683" lon="-0.26306">
        <ele>65</ele>
        <time>2013-04-13T13:26:50Z</time>
      </trkpt>
      <trkpt lat="44.7683" lon="-0.2629">
        <ele>65</ele>
        <time>2013-04-13T13:26:56Z</time>
      </trkpt>
      <trkpt lat="44.76827" lon="-0.26264">
        <ele>64</ele>
        <time>2013-04-13T13:27:02Z</time>
      </trkpt>
      <trkpt lat="44.76827" lon="-0.26237">
        <ele>63</ele>
        <time>2013-04-13T13:27:07Z</time>
      </trkpt>
      <trkpt lat="44.76827" lon="-0.26231">
        <ele>63</ele>
        <time>2013-04-13T13:27:08Z</time>
      </trkpt>
      <trkpt lat="44.76828" lon="-0.26218">
        <ele>63</ele>
        <time>2013-04-13T13:27:10Z</time>
      </trkpt>
      <trkpt lat="44.76831" lon="-0.26204">
        <ele>62</ele>
        <time>2013-04-13T13:27:12Z</time>
      </trkpt>
      <trkpt lat="44.76838" lon="-0.26139">
        <ele>61</ele>
        <time>2013-04-13T13:27:20Z</time>
      </trkpt>
      <trkpt lat="44.76843" lon="-0.26081">
        <ele>60</ele>
        <time>2013-04-13T13:27:29Z</time>
      </trkpt>
      <trkpt lat="44.7685" lon="-0.26039">
        <ele>60</ele>
        <time>2013-04-13T13:27:36Z</time>
      </trkpt>
      <trkpt lat="44.76854" lon="-0.26026">
        <ele>61</ele>
        <time>2013-04-13T13:27:38Z</time>
      </trkpt>
      <trkpt lat="44.76864" lon="-0.26">
        <ele>62</ele>
        <time>2013-04-13T13:27:42Z</time>
      </trkpt>
      <trkpt lat="44.76869" lon="-0.25977">
        <ele>63</ele>
        <time>2013-04-13T13:27:45Z</time>
      </trkpt>
      <trkpt lat="44.76878" lon="-0.25914">
        <ele>65</ele>
        <time>2013-04-13T13:27:53Z</time>
      </trkpt>
      <trkpt lat="44.7688" lon="-0.259">
        <ele>66</ele>
        <time>2013-04-13T13:27:55Z</time>
      </trkpt>
      <trkpt lat="44.76887" lon="-0.25853">
        <ele>66</ele>
        <time>2013-04-13T13:28:02Z</time>
      </trkpt>
      <trkpt lat="44.76896" lon="-0.25798">
        <ele>68</ele>
        <time>2013-04-13T13:28:11Z</time>
      </trkpt>
      <trkpt lat="44.76902" lon="-0.25765">
        <ele>70</ele>
        <time>2013-04-13T13:28:18Z</time>
      </trkpt>
      <trkpt lat="44.76907" lon="-0.25749">
        <ele>70</ele>
        <time>2013-04-13T13:28:25Z</time>
      </trkpt>
      <trkpt lat="44.76908" lon="-0.25749">
        <ele>70</ele>
        <time>2013-04-13T13:28:33Z</time>
      </trkpt>
      <trkpt lat="44.76909" lon="-0.25749">
        <ele>70</ele>
        <time>2013-04-13T13:28:44Z</time>
      </trkpt>
      <trkpt lat="44.76908" lon="-0.2575">
        <ele>70</ele>
        <time>2013-04-13T13:28:51Z</time>
      </trkpt>
      <trkpt lat="44.76908" lon="-0.25747">
        <ele>70</ele>
        <time>2013-04-13T13:28:52Z</time>
      </trkpt>
      <trkpt lat="44.76909" lon="-0.25745">
        <ele>70</ele>
        <time>2013-04-13T13:28:53Z</time>
      </trkpt>
      <trkpt lat="44.76909" lon="-0.25743">
        <ele>70</ele>
        <time>2013-04-13T13:28:54Z</time>
      </trkpt>
      <trkpt lat="44.7691" lon="-0.2574">
        <ele>70</ele>
        <time>2013-04-13T13:28:55Z</time>
      </trkpt>
      <trkpt lat="44.7691" lon="-0.25734">
        <ele>71</ele>
        <time>2013-04-13T13:28:58Z</time>
      </trkpt>
      <trkpt lat="44.76911" lon="-0.25732">
        <ele>71</ele>
        <time>2013-04-13T13:28:59Z</time>
      </trkpt>
      <trkpt lat="44.76911" lon="-0.25729">
        <ele>71</ele>
        <time>2013-04-13T13:29:00Z</time>
      </trkpt>
      <trkpt lat="44.76912" lon="-0.25726">
        <ele>71</ele>
        <time>2013-04-13T13:29:01Z</time>
      </trkpt>
      <trkpt lat="44.76912" lon="-0.25723">
        <ele>71</ele>
        <time>2013-04-13T13:29:02Z</time>
      </trkpt>
      <trkpt lat="44.76912" lon="-0.25719">
        <ele>71</ele>
        <time>2013-04-13T13:29:03Z</time>
      </trkpt>
      <trkpt lat="44.76916" lon="-0.25693">
        <ele>72</ele>
        <time>2013-04-13T13:29:10Z</time>
      </trkpt>
      <trkpt lat="44.76918" lon="-0.25676">
        <ele>72</ele>
        <time>2013-04-13T13:29:15Z</time>
      </trkpt>
      <trkpt lat="44.76921" lon="-0.25651">
        <ele>72</ele>
        <time>2013-04-13T13:29:23Z</time>
      </trkpt>
      <trkpt lat="44.76924" lon="-0.25632">
        <ele>72</ele>
        <time>2013-04-13T13:29:28Z</time>
      </trkpt>
      <trkpt lat="44.76924" lon="-0.25628">
        <ele>72</ele>
        <time>2013-04-13T13:29:29Z</time>
      </trkpt>
      <trkpt lat="44.76923" lon="-0.25623">
        <ele>73</ele>
        <time>2013-04-13T13:29:30Z</time>
      </trkpt>
      <trkpt lat="44.76923" lon="-0.25598">
        <ele>73</ele>
        <time>2013-04-13T13:29:36Z</time>
      </trkpt>
      <trkpt lat="44.76921" lon="-0.25567">
        <ele>73</ele>
        <time>2013-04-13T13:29:43Z</time>
      </trkpt>
      <trkpt lat="44.76919" lon="-0.25547">
        <ele>74</ele>
        <time>2013-04-13T13:29:48Z</time>
      </trkpt>
      <trkpt lat="44.76918" lon="-0.25523">
        <ele>74</ele>
        <time>2013-04-13T13:29:54Z</time>
      </trkpt>
      <trkpt lat="44.76915" lon="-0.25499">
        <ele>75</ele>
        <time>2013-04-13T13:30:00Z</time>
      </trkpt>
      <trkpt lat="44.76916" lon="-0.25483">
        <ele>75</ele>
        <time>2013-04-13T13:30:05Z</time>
      </trkpt>
      <trkpt lat="44.76916" lon="-0.25481">
        <ele>75</ele>
        <time>2013-04-13T13:30:06Z</time>
      </trkpt>
      <trkpt lat="44.76918" lon="-0.25476">
        <ele>75</ele>
        <time>2013-04-13T13:30:08Z</time>
      </trkpt>
      <trkpt lat="44.76919" lon="-0.25473">
        <ele>75</ele>
        <time>2013-04-13T13:30:09Z</time>
      </trkpt>
      <trkpt lat="44.7692" lon="-0.25471">
        <ele>75</ele>
        <time>2013-04-13T13:30:10Z</time>
      </trkpt>
      <trkpt lat="44.76923" lon="-0.25466">
        <ele>75</ele>
        <time>2013-04-13T13:30:12Z</time>
      </trkpt>
      <trkpt lat="44.76924" lon="-0.25464">
        <ele>75</ele>
        <time>2013-04-13T13:30:13Z</time>
      </trkpt>
      <trkpt lat="44.76926" lon="-0.25463">
        <ele>75</ele>
        <time>2013-04-13T13:30:14Z</time>
      </trkpt>
      <trkpt lat="44.76937" lon="-0.2546">
        <ele>75</ele>
        <time>2013-04-13T13:30:19Z</time>
      </trkpt>
      <trkpt lat="44.76945" lon="-0.25454">
        <ele>74</ele>
        <time>2013-04-13T13:30:23Z</time>
      </trkpt>
      <trkpt lat="44.76947" lon="-0.25452">
        <ele>74</ele>
        <time>2013-04-13T13:30:24Z</time>
      </trkpt>
      <trkpt lat="44.76949" lon="-0.25449">
        <ele>74</ele>
        <time>2013-04-13T13:30:25Z</time>
      </trkpt>
      <trkpt lat="44.76951" lon="-0.25447">
        <ele>74</ele>
        <time>2013-04-13T13:30:26Z</time>
      </trkpt>
      <trkpt lat="44.76953" lon="-0.25446">
        <ele>74</ele>
        <time>2013-04-13T13:30:27Z</time>
      </trkpt>
      <trkpt lat="44.76964" lon="-0.2544">
        <ele>74</ele>
        <time>2013-04-13T13:30:32Z</time>
      </trkpt>
      <trkpt lat="44.76966" lon="-0.25439">
        <ele>74</ele>
        <time>2013-04-13T13:30:33Z</time>
      </trkpt>
      <trkpt lat="44.76967" lon="-0.25438">
        <ele>74</ele>
        <time>2013-04-13T13:30:34Z</time>
      </trkpt>
      <trkpt lat="44.76968" lon="-0.25437">
        <ele>74</ele>
        <time>2013-04-13T13:30:35Z</time>
      </trkpt>
      <trkpt lat="44.76973" lon="-0.25432">
        <ele>74</ele>
        <time>2013-04-13T13:30:40Z</time>
      </trkpt>
      <trkpt lat="44.76975" lon="-0.25432">
        <ele>74</ele>
        <time>2013-04-13T13:30:41Z</time>
      </trkpt>
      <trkpt lat="44.76978" lon="-0.25431">
        <ele>73</ele>
        <time>2013-04-13T13:30:42Z</time>
      </trkpt>
      <trkpt lat="44.76981" lon="-0.2543">
        <ele>73</ele>
        <time>2013-04-13T13:30:43Z</time>
      </trkpt>
      <trkpt lat="44.76984" lon="-0.25429">
        <ele>73</ele>
        <time>2013-04-13T13:30:44Z</time>
      </trkpt>
      <trkpt lat="44.77" lon="-0.25419">
        <ele>72</ele>
        <time>2013-04-13T13:30:51Z</time>
      </trkpt>
      <trkpt lat="44.7702" lon="-0.2541">
        <ele>72</ele>
        <time>2013-04-13T13:30:57Z</time>
      </trkpt>
      <trkpt lat="44.77042" lon="-0.25401">
        <ele>71</ele>
        <time>2013-04-13T13:31:04Z</time>
      </trkpt>
      <trkpt lat="44.77059" lon="-0.25393">
        <ele>71</ele>
        <time>2013-04-13T13:31:10Z</time>
      </trkpt>
      <trkpt lat="44.77081" lon="-0.25381">
        <ele>70</ele>
        <time>2013-04-13T13:31:18Z</time>
      </trkpt>
      <trkpt lat="44.77102" lon="-0.2537">
        <ele>70</ele>
        <time>2013-04-13T13:31:25Z</time>
      </trkpt>
      <trkpt lat="44.77116" lon="-0.25358">
        <ele>70</ele>
        <time>2013-04-13T13:31:31Z</time>
      </trkpt>
      <trkpt lat="44.77129" lon="-0.25343">
        <ele>69</ele>
        <time>2013-04-13T13:31:37Z</time>
      </trkpt>
      <trkpt lat="44.77144" lon="-0.25328">
        <ele>69</ele>
        <time>2013-04-13T13:31:44Z</time>
      </trkpt>
      <trkpt lat="44.77158" lon="-0.25315">
        <ele>68</ele>
        <time>2013-04-13T13:31:51Z</time>
      </trkpt>
      <trkpt lat="44.77172" lon="-0.25296">
        <ele>67</ele>
        <time>2013-04-13T13:32:00Z</time>
      </trkpt>
      <trkpt lat="44.77173" lon="-0.25295">
        <ele>67</ele>
        <time>2013-04-13T13:32:01Z</time>
      </trkpt>
      <trkpt lat="44.77175" lon="-0.25293">
        <ele>67</ele>
        <time>2013-04-13T13:32:02Z</time>
      </trkpt>
      <trkpt lat="44.77187" lon="-0.25279">
        <ele>67</ele>
        <time>2013-04-13T13:32:11Z</time>
      </trkpt>
      <trkpt lat="44.77198" lon="-0.25266">
        <ele>67</ele>
        <time>2013-04-13T13:32:18Z</time>
      </trkpt>
      <trkpt lat="44.77212" lon="-0.2525">
        <ele>66</ele>
        <time>2013-04-13T13:32:26Z</time>
      </trkpt>
      <trkpt lat="44.77228" lon="-0.2524">
        <ele>66</ele>
        <time>2013-04-13T13:32:34Z</time>
      </trkpt>
      <trkpt lat="44.77246" lon="-0.25236">
        <ele>66</ele>
        <time>2013-04-13T13:32:41Z</time>
      </trkpt>
      <trkpt lat="44.7725" lon="-0.25235">
        <ele>66</ele>
        <time>2013-04-13T13:32:43Z</time>
      </trkpt>
      <trkpt lat="44.77253" lon="-0.25234">
        <ele>66</ele>
        <time>2013-04-13T13:32:44Z</time>
      </trkpt>
      <trkpt lat="44.77257" lon="-0.25234">
        <ele>66</ele>
        <time>2013-04-13T13:32:46Z</time>
      </trkpt>
      <trkpt lat="44.77259" lon="-0.25234">
        <ele>66</ele>
        <time>2013-04-13T13:32:47Z</time>
      </trkpt>
      <trkpt lat="44.7726" lon="-0.25234">
        <ele>65</ele>
        <time>2013-04-13T13:32:48Z</time>
      </trkpt>
      <trkpt lat="44.77261" lon="-0.25233">
        <ele>65</ele>
        <time>2013-04-13T13:32:49Z</time>
      </trkpt>
      <trkpt lat="44.77263" lon="-0.25232">
        <ele>65</ele>
        <time>2013-04-13T13:32:50Z</time>
      </trkpt>
      <trkpt lat="44.77265" lon="-0.25231">
        <ele>65</ele>
        <time>2013-04-13T13:32:51Z</time>
      </trkpt>
      <trkpt lat="44.77266" lon="-0.2523">
        <ele>65</ele>
        <time>2013-04-13T13:32:52Z</time>
      </trkpt>
      <trkpt lat="44.77268" lon="-0.2523">
        <ele>65</ele>
        <time>2013-04-13T13:32:53Z</time>
      </trkpt>
      <trkpt lat="44.77282" lon="-0.25224">
        <ele>65</ele>
        <time>2013-04-13T13:32:59Z</time>
      </trkpt>
      <trkpt lat="44.77298" lon="-0.25217">
        <ele>64</ele>
        <time>2013-04-13T13:33:06Z</time>
      </trkpt>
      <trkpt lat="44.77316" lon="-0.2521">
        <ele>64</ele>
        <time>2013-04-13T13:33:14Z</time>
      </trkpt>
      <trkpt lat="44.7733" lon="-0.25203">
        <ele>64</ele>
        <time>2013-04-13T13:33:21Z</time>
      </trkpt>
      <trkpt lat="44.7734" lon="-0.25199">
        <ele>64</ele>
        <time>2013-04-13T13:33:26Z</time>
      </trkpt>
      <trkpt lat="44.77342" lon="-0.25197">
        <ele>64</ele>
        <time>2013-04-13T13:33:27Z</time>
      </trkpt>
      <trkpt lat="44.77343" lon="-0.25196">
        <ele>64</ele>
        <time>2013-04-13T13:33:28Z</time>
      </trkpt>
      <trkpt lat="44.77358" lon="-0.25187">
        <ele>64</ele>
        <time>2013-04-13T13:33:35Z</time>
      </trkpt>
      <trkpt lat="44.77376" lon="-0.25175">
        <ele>64</ele>
        <time>2013-04-13T13:33:43Z</time>
      </trkpt>
      <trkpt lat="44.77395" lon="-0.25157">
        <ele>64</ele>
        <time>2013-04-13T13:33:52Z</time>
      </trkpt>
      <trkpt lat="44.77406" lon="-0.25142">
        <ele>63</ele>
        <time>2013-04-13T13:33:59Z</time>
      </trkpt>
      <trkpt lat="44.7742" lon="-0.25124">
        <ele>63</ele>
        <time>2013-04-13T13:34:07Z</time>
      </trkpt>
      <trkpt lat="44.77428" lon="-0.25116">
        <ele>63</ele>
        <time>2013-04-13T13:34:13Z</time>
      </trkpt>
      <trkpt lat="44.77428" lon="-0.25117">
        <ele>63</ele>
        <time>2013-04-13T13:34:28Z</time>
      </trkpt>
      <trkpt lat="44.77429" lon="-0.25116">
        <ele>63</ele>
        <time>2013-04-13T13:34:33Z</time>
      </trkpt>
      <trkpt lat="44.7743" lon="-0.25114">
        <ele>63</ele>
        <time>2013-04-13T13:34:34Z</time>
      </trkpt>
      <trkpt lat="44.77431" lon="-0.25113">
        <ele>63</ele>
        <time>2013-04-13T13:34:35Z</time>
      </trkpt>
      <trkpt lat="44.77439" lon="-0.25101">
        <ele>63</ele>
        <time>2013-04-13T13:34:41Z</time>
      </trkpt>
      <trkpt lat="44.77444" lon="-0.25092">
        <ele>63</ele>
        <time>2013-04-13T13:34:48Z</time>
      </trkpt>
      <trkpt lat="44.77445" lon="-0.25091">
        <ele>63</ele>
        <time>2013-04-13T13:34:49Z</time>
      </trkpt>
      <trkpt lat="44.77446" lon="-0.2509">
        <ele>63</ele>
        <time>2013-04-13T13:34:50Z</time>
      </trkpt>
      <trkpt lat="44.77448" lon="-0.25086">
        <ele>63</ele>
        <time>2013-04-13T13:34:53Z</time>
      </trkpt>
      <trkpt lat="44.77449" lon="-0.25083">
        <ele>63</ele>
        <time>2013-04-13T13:34:55Z</time>
      </trkpt>
      <trkpt lat="44.77451" lon="-0.2508">
        <ele>63</ele>
        <time>2013-04-13T13:34:57Z</time>
      </trkpt>
      <trkpt lat="44.77452" lon="-0.25078">
        <ele>63</ele>
        <time>2013-04-13T13:34:58Z</time>
      </trkpt>
      <trkpt lat="44.77453" lon="-0.25077">
        <ele>63</ele>
        <time>2013-04-13T13:34:59Z</time>
      </trkpt>
      <trkpt lat="44.77461" lon="-0.25068">
        <ele>63</ele>
        <time>2013-04-13T13:35:06Z</time>
      </trkpt>
      <trkpt lat="44.77471" lon="-0.25056">
        <ele>63</ele>
        <time>2013-04-13T13:35:13Z</time>
      </trkpt>
      <trkpt lat="44.77484" lon="-0.25039">
        <ele>62</ele>
        <time>2013-04-13T13:35:21Z</time>
      </trkpt>
      <trkpt lat="44.77496" lon="-0.25024">
        <ele>62</ele>
        <time>2013-04-13T13:35:28Z</time>
      </trkpt>
      <trkpt lat="44.77508" lon="-0.25007">
        <ele>61</ele>
        <time>2013-04-13T13:35:34Z</time>
      </trkpt>
      <trkpt lat="44.77523" lon="-0.24987">
        <ele>61</ele>
        <time>2013-04-13T13:35:41Z</time>
      </trkpt>
      <trkpt lat="44.77537" lon="-0.24971">
        <ele>61</ele>
        <time>2013-04-13T13:35:47Z</time>
      </trkpt>
      <trkpt lat="44.77553" lon="-0.24949">
        <ele>61</ele>
        <time>2013-04-13T13:35:55Z</time>
      </trkpt>
      <trkpt lat="44.7757" lon="-0.24923">
        <ele>61</ele>
        <time>2013-04-13T13:36:04Z</time>
      </trkpt>
      <trkpt lat="44.77584" lon="-0.24902">
        <ele>61</ele>
        <time>2013-04-13T13:36:11Z</time>
      </trkpt>
      <trkpt lat="44.77594" lon="-0.24884">
        <ele>61</ele>
        <time>2013-04-13T13:36:17Z</time>
      </trkpt>
      <trkpt lat="44.77604" lon="-0.24871">
        <ele>60</ele>
        <time>2013-04-13T13:36:24Z</time>
      </trkpt>
      <trkpt lat="44.77607" lon="-0.24866">
        <ele>60</ele>
        <time>2013-04-13T13:36:31Z</time>
      </trkpt>
      <trkpt lat="44.77607" lon="-0.24867">
        <ele>60</ele>
        <time>2013-04-13T13:36:43Z</time>
      </trkpt>
      <trkpt lat="44.77608" lon="-0.24866">
        <ele>60</ele>
        <time>2013-04-13T13:36:58Z</time>
      </trkpt>
      <trkpt lat="44.77608" lon="-0.24866">
        <ele>60</ele>
        <time>2013-04-13T13:37:14Z</time>
      </trkpt>
      <trkpt lat="44.77607" lon="-0.24866">
        <ele>60</ele>
        <time>2013-04-13T13:37:22Z</time>
      </trkpt>
      <trkpt lat="44.77607" lon="-0.24866">
        <ele>60</ele>
        <time>2013-04-13T13:37:31Z</time>
      </trkpt>
      <trkpt lat="44.77607" lon="-0.24865">
        <ele>60</ele>
        <time>2013-04-13T13:37:43Z</time>
      </trkpt>
      <trkpt lat="44.77607" lon="-0.24865">
        <ele>60</ele>
        <time>2013-04-13T13:37:54Z</time>
      </trkpt>
      <trkpt lat="44.77607" lon="-0.24865">
        <ele>60</ele>
        <time>2013-04-13T13:38:06Z</time>
      </trkpt>
      <trkpt lat="44.77606" lon="-0.24865">
        <ele>60</ele>
        <time>2013-04-13T13:38:22Z</time>
      </trkpt>
      <trkpt lat="44.77606" lon="-0.24865">
        <ele>60</ele>
        <time>2013-04-13T13:38:39Z</time>
      </trkpt>
      <trkpt lat="44.77606" lon="-0.24866">
        <ele>60</ele>
        <time>2013-04-13T13:38:51Z</time>
      </trkpt>
      <trkpt lat="44.77606" lon="-0.24866">
        <ele>60</ele>
        <time>2013-04-13T13:39:05Z</time>
      </trkpt>
      <trkpt lat="44.77606" lon="-0.24866">
        <ele>60</ele>
        <time>2013-04-13T13:39:15Z</time>
      </trkpt>
      <trkpt lat="44.77606" lon="-0.24866">
        <ele>60</ele>
        <time>2013-04-13T13:39:23Z</time>
      </trkpt>
      <trkpt lat="44.77607" lon="-0.24866">
        <ele>60</ele>
        <time>2013-04-13T13:39:36Z</time>
      </trkpt>
      <trkpt lat="44.77607" lon="-0.24866">
        <ele>60</ele>
        <time>2013-04-13T13:39:45Z</time>
      </trkpt>
      <trkpt lat="44.77607" lon="-0.24866">
        <ele>60</ele>
        <time>2013-04-13T13:39:54Z</time>
      </trkpt>
      <trkpt lat="44.77609" lon="-0.24864">
        <ele>60</ele>
        <time>2013-04-13T13:40:03Z</time>
      </trkpt>
      <trkpt lat="44.77615" lon="-0.24856">
        <ele>60</ele>
        <time>2013-04-13T13:40:08Z</time>
      </trkpt>
      <trkpt lat="44.77616" lon="-0.24855">
        <ele>60</ele>
        <time>2013-04-13T13:40:09Z</time>
      </trkpt>
      <trkpt lat="44.77627" lon="-0.24851">
        <ele>60</ele>
        <time>2013-04-13T13:40:14Z</time>
      </trkpt>
      <trkpt lat="44.77636" lon="-0.24843">
        <ele>60</ele>
        <time>2013-04-13T13:40:22Z</time>
      </trkpt>
      <trkpt lat="44.77645" lon="-0.24836">
        <ele>60</ele>
        <time>2013-04-13T13:40:30Z</time>
      </trkpt>
      <trkpt lat="44.77657" lon="-0.24827">
        <ele>60</ele>
        <time>2013-04-13T13:40:37Z</time>
      </trkpt>
      <trkpt lat="44.77672" lon="-0.24819">
        <ele>59</ele>
        <time>2013-04-13T13:40:44Z</time>
      </trkpt>
      <trkpt lat="44.7769" lon="-0.24806">
        <ele>58</ele>
        <time>2013-04-13T13:40:51Z</time>
      </trkpt>
      <trkpt lat="44.77711" lon="-0.24791">
        <ele>58</ele>
        <time>2013-04-13T13:40:59Z</time>
      </trkpt>
      <trkpt lat="44.77723" lon="-0.2478">
        <ele>57</ele>
        <time>2013-04-13T13:41:05Z</time>
      </trkpt>
      <trkpt lat="44.77735" lon="-0.2477">
        <ele>57</ele>
        <time>2013-04-13T13:41:12Z</time>
      </trkpt>
      <trkpt lat="44.77746" lon="-0.2476">
        <ele>57</ele>
        <time>2013-04-13T13:41:18Z</time>
      </trkpt>
      <trkpt lat="44.77755" lon="-0.24752">
        <ele>57</ele>
        <time>2013-04-13T13:41:24Z</time>
      </trkpt>
      <trkpt lat="44.77769" lon="-0.24743">
        <ele>56</ele>
        <time>2013-04-13T13:41:32Z</time>
      </trkpt>
      <trkpt lat="44.77775" lon="-0.24737">
        <ele>56</ele>
        <time>2013-04-13T13:41:38Z</time>
      </trkpt>
      <trkpt lat="44.77783" lon="-0.24729">
        <ele>55</ele>
        <time>2013-04-13T13:41:45Z</time>
      </trkpt>
      <trkpt lat="44.77789" lon="-0.24724">
        <ele>55</ele>
        <time>2013-04-13T13:41:49Z</time>
      </trkpt>
      <trkpt lat="44.77795" lon="-0.24721">
        <ele>55</ele>
        <time>2013-04-13T13:41:53Z</time>
      </trkpt>
      <trkpt lat="44.77801" lon="-0.24718">
        <ele>55</ele>
        <time>2013-04-13T13:41:56Z</time>
      </trkpt>
      <trkpt lat="44.77806" lon="-0.24709">
        <ele>54</ele>
        <time>2013-04-13T13:42:00Z</time>
      </trkpt>
      <trkpt lat="44.77809" lon="-0.24706">
        <ele>54</ele>
        <time>2013-04-13T13:42:02Z</time>
      </trkpt>
      <trkpt lat="44.77819" lon="-0.24685">
        <ele>54</ele>
        <time>2013-04-13T13:42:10Z</time>
      </trkpt>
      <trkpt lat="44.77831" lon="-0.24661">
        <ele>54</ele>
        <time>2013-04-13T13:42:19Z</time>
      </trkpt>
      <trkpt lat="44.77843" lon="-0.24635">
        <ele>53</ele>
        <time>2013-04-13T13:42:29Z</time>
      </trkpt>
      <trkpt lat="44.77852" lon="-0.24617">
        <ele>53</ele>
        <time>2013-04-13T13:42:36Z</time>
      </trkpt>
      <trkpt lat="44.77859" lon="-0.24619">
        <ele>53</ele>
        <time>2013-04-13T13:42:41Z</time>
      </trkpt>
      <trkpt lat="44.7786" lon="-0.24624">
        <ele>53</ele>
        <time>2013-04-13T13:42:43Z</time>
      </trkpt>
      <trkpt lat="44.77877" lon="-0.2465">
        <ele>53</ele>
        <time>2013-04-13T13:42:54Z</time>
      </trkpt>
      <trkpt lat="44.77894" lon="-0.24675">
        <ele>53</ele>
        <time>2013-04-13T13:43:04Z</time>
      </trkpt>
      <trkpt lat="44.7791" lon="-0.24699">
        <ele>53</ele>
        <time>2013-04-13T13:43:13Z</time>
      </trkpt>
      <trkpt lat="44.77927" lon="-0.24724">
        <ele>53</ele>
        <time>2013-04-13T13:43:22Z</time>
      </trkpt>
      <trkpt lat="44.77943" lon="-0.24749">
        <ele>52</ele>
        <time>2013-04-13T13:43:31Z</time>
      </trkpt>
      <trkpt lat="44.77954" lon="-0.24759">
        <ele>51</ele>
        <time>2013-04-13T13:43:40Z</time>
      </trkpt>
      <trkpt lat="44.77967" lon="-0.24741">
        <ele>52</ele>
        <time>2013-04-13T13:43:49Z</time>
      </trkpt>
      <trkpt lat="44.77984" lon="-0.24719">
        <ele>52</ele>
        <time>2013-04-13T13:43:57Z</time>
      </trkpt>
      <trkpt lat="44.78" lon="-0.24699">
        <ele>53</ele>
        <time>2013-04-13T13:44:04Z</time>
      </trkpt>
      <trkpt lat="44.78017" lon="-0.24671">
        <ele>54</ele>
        <time>2013-04-13T13:44:12Z</time>
      </trkpt>
      <trkpt lat="44.7802" lon="-0.24666">
        <ele>54</ele>
        <time>2013-04-13T13:44:13Z</time>
      </trkpt>
      <trkpt lat="44.78037" lon="-0.24639">
        <ele>55</ele>
        <time>2013-04-13T13:44:20Z</time>
      </trkpt>
      <trkpt lat="44.78055" lon="-0.24613">
        <ele>56</ele>
        <time>2013-04-13T13:44:27Z</time>
      </trkpt>
      <trkpt lat="44.78071" lon="-0.24598">
        <ele>57</ele>
        <time>2013-04-13T13:44:33Z</time>
      </trkpt>
      <trkpt lat="44.78087" lon="-0.24584">
        <ele>57</ele>
        <time>2013-04-13T13:44:39Z</time>
      </trkpt>
      <trkpt lat="44.78112" lon="-0.24563">
        <ele>57</ele>
        <time>2013-04-13T13:44:47Z</time>
      </trkpt>
      <trkpt lat="44.78137" lon="-0.24547">
        <ele>56</ele>
        <time>2013-04-13T13:44:55Z</time>
      </trkpt>
      <trkpt lat="44.78158" lon="-0.24532">
        <ele>56</ele>
        <time>2013-04-13T13:45:00Z</time>
      </trkpt>
      <trkpt lat="44.7817" lon="-0.24521">
        <ele>56</ele>
        <time>2013-04-13T13:45:03Z</time>
      </trkpt>
      <trkpt lat="44.78173" lon="-0.24516">
        <ele>56</ele>
        <time>2013-04-13T13:45:04Z</time>
      </trkpt>
      <trkpt lat="44.78178" lon="-0.24507">
        <ele>55</ele>
        <time>2013-04-13T13:45:06Z</time>
      </trkpt>
      <trkpt lat="44.78199" lon="-0.24469">
        <ele>55</ele>
        <time>2013-04-13T13:45:14Z</time>
      </trkpt>
      <trkpt lat="44.78222" lon="-0.24419">
        <ele>55</ele>
        <time>2013-04-13T13:45:23Z</time>
      </trkpt>
      <trkpt lat="44.78235" lon="-0.24379">
        <ele>54</ele>
        <time>2013-04-13T13:45:31Z</time>
      </trkpt>
      <trkpt lat="44.78243" lon="-0.24346">
        <ele>54</ele>
        <time>2013-04-13T13:45:38Z</time>
      </trkpt>
      <trkpt lat="44.7825" lon="-0.24313">
        <ele>54</ele>
        <time>2013-04-13T13:45:45Z</time>
      </trkpt>
      <trkpt lat="44.78265" lon="-0.24278">
        <ele>53</ele>
        <time>2013-04-13T13:45:53Z</time>
      </trkpt>
      <trkpt lat="44.78277" lon="-0.24255">
        <ele>53</ele>
        <time>2013-04-13T13:45:59Z</time>
      </trkpt>
      <trkpt lat="44.78296" lon="-0.24227">
        <ele>52</ele>
        <time>2013-04-13T13:46:06Z</time>
      </trkpt>
      <trkpt lat="44.78306" lon="-0.24218">
        <ele>52</ele>
        <time>2013-04-13T13:46:09Z</time>
      </trkpt>
      <trkpt lat="44.7831" lon="-0.24215">
        <ele>52</ele>
        <time>2013-04-13T13:46:10Z</time>
      </trkpt>
      <trkpt lat="44.78313" lon="-0.24212">
        <ele>52</ele>
        <time>2013-04-13T13:46:11Z</time>
      </trkpt>
      <trkpt lat="44.78316" lon="-0.24209">
        <ele>52</ele>
        <time>2013-04-13T13:46:12Z</time>
      </trkpt>
      <trkpt lat="44.78319" lon="-0.24206">
        <ele>52</ele>
        <time>2013-04-13T13:46:13Z</time>
      </trkpt>
      <trkpt lat="44.78322" lon="-0.24204">
        <ele>52</ele>
        <time>2013-04-13T13:46:14Z</time>
      </trkpt>
      <trkpt lat="44.78325" lon="-0.24201">
        <ele>52</ele>
        <time>2013-04-13T13:46:15Z</time>
      </trkpt>
      <trkpt lat="44.78328" lon="-0.24199">
        <ele>52</ele>
        <time>2013-04-13T13:46:16Z</time>
      </trkpt>
      <trkpt lat="44.78345" lon="-0.2418">
        <ele>54</ele>
        <time>2013-04-13T13:46:23Z</time>
      </trkpt>
      <trkpt lat="44.78355" lon="-0.24161">
        <ele>55</ele>
        <time>2013-04-13T13:46:30Z</time>
      </trkpt>
      <trkpt lat="44.7836" lon="-0.2415">
        <ele>56</ele>
        <time>2013-04-13T13:46:38Z</time>
      </trkpt>
      <trkpt lat="44.7836" lon="-0.2415">
        <ele>56</ele>
        <time>2013-04-13T13:46:45Z</time>
      </trkpt>
      <trkpt lat="44.78359" lon="-0.24148">
        <ele>56</ele>
        <time>2013-04-13T13:46:52Z</time>
      </trkpt>
      <trkpt lat="44.7836" lon="-0.24148">
        <ele>56</ele>
        <time>2013-04-13T13:47:01Z</time>
      </trkpt>
      <trkpt lat="44.78364" lon="-0.24143">
        <ele>57</ele>
        <time>2013-04-13T13:47:06Z</time>
      </trkpt>
      <trkpt lat="44.78365" lon="-0.24143">
        <ele>57</ele>
        <time>2013-04-13T13:47:07Z</time>
      </trkpt>
      <trkpt lat="44.78367" lon="-0.24144">
        <ele>57</ele>
        <time>2013-04-13T13:47:08Z</time>
      </trkpt>
      <trkpt lat="44.78369" lon="-0.24144">
        <ele>57</ele>
        <time>2013-04-13T13:47:09Z</time>
      </trkpt>
      <trkpt lat="44.78371" lon="-0.24145">
        <ele>57</ele>
        <time>2013-04-13T13:47:10Z</time>
      </trkpt>
      <trkpt lat="44.78373" lon="-0.24146">
        <ele>57</ele>
        <time>2013-04-13T13:47:11Z</time>
      </trkpt>
      <trkpt lat="44.78375" lon="-0.24147">
        <ele>57</ele>
        <time>2013-04-13T13:47:12Z</time>
      </trkpt>
      <trkpt lat="44.78397" lon="-0.24159">
        <ele>57</ele>
        <time>2013-04-13T13:47:20Z</time>
      </trkpt>
      <trkpt lat="44.78417" lon="-0.24175">
        <ele>57</ele>
        <time>2013-04-13T13:47:28Z</time>
      </trkpt>
      <trkpt lat="44.78437" lon="-0.24197">
        <ele>57</ele>
        <time>2013-04-13T13:47:36Z</time>
      </trkpt>
      <trkpt lat="44.78457" lon="-0.24234">
        <ele>55</ele>
        <time>2013-04-13T13:47:44Z</time>
      </trkpt>
      <trkpt lat="44.78469" lon="-0.24255">
        <ele>53</ele>
        <time>2013-04-13T13:47:48Z</time>
      </trkpt>
      <trkpt lat="44.78471" lon="-0.24262">
        <ele>53</ele>
        <time>2013-04-13T13:47:49Z</time>
      </trkpt>
      <trkpt lat="44.78472" lon="-0.24269">
        <ele>53</ele>
        <time>2013-04-13T13:47:50Z</time>
      </trkpt>
      <trkpt lat="44.78473" lon="-0.24276">
        <ele>52</ele>
        <time>2013-04-13T13:47:51Z</time>
      </trkpt>
      <trkpt lat="44.78473" lon="-0.24283">
        <ele>52</ele>
        <time>2013-04-13T13:47:52Z</time>
      </trkpt>
      <trkpt lat="44.78472" lon="-0.24289">
        <ele>52</ele>
        <time>2013-04-13T13:47:53Z</time>
      </trkpt>
      <trkpt lat="44.78471" lon="-0.24295">
        <ele>52</ele>
        <time>2013-04-13T13:47:54Z</time>
      </trkpt>
      <trkpt lat="44.7847" lon="-0.243">
        <ele>51</ele>
        <time>2013-04-13T13:47:55Z</time>
      </trkpt>
      <trkpt lat="44.78468" lon="-0.24305">
        <ele>51</ele>
        <time>2013-04-13T13:47:56Z</time>
      </trkpt>
      <trkpt lat="44.7846" lon="-0.24334">
        <ele>50</ele>
        <time>2013-04-13T13:48:03Z</time>
      </trkpt>
      <trkpt lat="44.78462" lon="-0.24371">
        <ele>50</ele>
        <time>2013-04-13T13:48:10Z</time>
      </trkpt>
      <trkpt lat="44.78469" lon="-0.24411">
        <ele>50</ele>
        <time>2013-04-13T13:48:16Z</time>
      </trkpt>
      <trkpt lat="44.78471" lon="-0.24418">
        <ele>50</ele>
        <time>2013-04-13T13:48:17Z</time>
      </trkpt>
      <trkpt lat="44.78475" lon="-0.24438">
        <ele>50</ele>
        <time>2013-04-13T13:48:20Z</time>
      </trkpt>
      <trkpt lat="44.78475" lon="-0.24445">
        <ele>50</ele>
        <time>2013-04-13T13:48:21Z</time>
      </trkpt>
      <trkpt lat="44.78477" lon="-0.24498">
        <ele>49</ele>
        <time>2013-04-13T13:48:29Z</time>
      </trkpt>
      <trkpt lat="44.78478" lon="-0.24504">
        <ele>49</ele>
        <time>2013-04-13T13:48:30Z</time>
      </trkpt>
      <trkpt lat="44.78479" lon="-0.2451">
        <ele>49</ele>
        <time>2013-04-13T13:48:31Z</time>
      </trkpt>
      <trkpt lat="44.78482" lon="-0.24515">
        <ele>50</ele>
        <time>2013-04-13T13:48:32Z</time>
      </trkpt>
      <trkpt lat="44.78485" lon="-0.24519">
        <ele>50</ele>
        <time>2013-04-13T13:48:33Z</time>
      </trkpt>
      <trkpt lat="44.78488" lon="-0.24523">
        <ele>50</ele>
        <time>2013-04-13T13:48:34Z</time>
      </trkpt>
      <trkpt lat="44.78492" lon="-0.24525">
        <ele>51</ele>
        <time>2013-04-13T13:48:35Z</time>
      </trkpt>
      <trkpt lat="44.78496" lon="-0.24526">
        <ele>51</ele>
        <time>2013-04-13T13:48:36Z</time>
      </trkpt>
      <trkpt lat="44.785" lon="-0.24527">
        <ele>51</ele>
        <time>2013-04-13T13:48:37Z</time>
      </trkpt>
      <trkpt lat="44.78528" lon="-0.24528">
        <ele>54</ele>
        <time>2013-04-13T13:48:45Z</time>
      </trkpt>
      <trkpt lat="44.78552" lon="-0.24539">
        <ele>55</ele>
        <time>2013-04-13T13:48:52Z</time>
      </trkpt>
      <trkpt lat="44.78568" lon="-0.24568">
        <ele>55</ele>
        <time>2013-04-13T13:48:59Z</time>
      </trkpt>
      <trkpt lat="44.78576" lon="-0.24581">
        <ele>55</ele>
        <time>2013-04-13T13:49:02Z</time>
      </trkpt>
      <trkpt lat="44.78596" lon="-0.24596">
        <ele>54</ele>
        <time>2013-04-13T13:49:08Z</time>
      </trkpt>
      <trkpt lat="44.78601" lon="-0.24598">
        <ele>53</ele>
        <time>2013-04-13T13:49:09Z</time>
      </trkpt>
      <trkpt lat="44.78606" lon="-0.24601">
        <ele>53</ele>
        <time>2013-04-13T13:49:10Z</time>
      </trkpt>
      <trkpt lat="44.78621" lon="-0.24614">
        <ele>51</ele>
        <time>2013-04-13T13:49:13Z</time>
      </trkpt>
      <trkpt lat="44.78624" lon="-0.2462">
        <ele>51</ele>
        <time>2013-04-13T13:49:14Z</time>
      </trkpt>
      <trkpt lat="44.78626" lon="-0.24628">
        <ele>50</ele>
        <time>2013-04-13T13:49:15Z</time>
      </trkpt>
      <trkpt lat="44.78644" lon="-0.24667">
        <ele>46</ele>
        <time>2013-04-13T13:49:19Z</time>
      </trkpt>
      <trkpt lat="44.78677" lon="-0.24706">
        <ele>43</ele>
        <time>2013-04-13T13:49:24Z</time>
      </trkpt>
      <trkpt lat="44.78699" lon="-0.2473">
        <ele>41</ele>
        <time>2013-04-13T13:49:29Z</time>
      </trkpt>
      <trkpt lat="44.78717" lon="-0.24747">
        <ele>40</ele>
        <time>2013-04-13T13:49:33Z</time>
      </trkpt>
      <trkpt lat="44.78721" lon="-0.24751">
        <ele>40</ele>
        <time>2013-04-13T13:49:34Z</time>
      </trkpt>
      <trkpt lat="44.78724" lon="-0.24755">
        <ele>40</ele>
        <time>2013-04-13T13:49:35Z</time>
      </trkpt>
      <trkpt lat="44.78726" lon="-0.24759">
        <ele>40</ele>
        <time>2013-04-13T13:49:36Z</time>
      </trkpt>
      <trkpt lat="44.78729" lon="-0.24763">
        <ele>40</ele>
        <time>2013-04-13T13:49:37Z</time>
      </trkpt>
      <trkpt lat="44.78731" lon="-0.24767">
        <ele>40</ele>
        <time>2013-04-13T13:49:38Z</time>
      </trkpt>
      <trkpt lat="44.78733" lon="-0.24771">
        <ele>40</ele>
        <time>2013-04-13T13:49:39Z</time>
      </trkpt>
      <trkpt lat="44.78734" lon="-0.24774">
        <ele>40</ele>
        <time>2013-04-13T13:49:40Z</time>
      </trkpt>
      <trkpt lat="44.78736" lon="-0.24778">
        <ele>40</ele>
        <time>2013-04-13T13:49:41Z</time>
      </trkpt>
      <trkpt lat="44.78737" lon="-0.24782">
        <ele>41</ele>
        <time>2013-04-13T13:49:42Z</time>
      </trkpt>
      <trkpt lat="44.78739" lon="-0.24786">
        <ele>41</ele>
        <time>2013-04-13T13:49:43Z</time>
      </trkpt>
      <trkpt lat="44.7874" lon="-0.24789">
        <ele>41</ele>
        <time>2013-04-13T13:49:44Z</time>
      </trkpt>
      <trkpt lat="44.78743" lon="-0.24802">
        <ele>42</ele>
        <time>2013-04-13T13:49:48Z</time>
      </trkpt>
      <trkpt lat="44.78743" lon="-0.24805">
        <ele>42</ele>
        <time>2013-04-13T13:49:49Z</time>
      </trkpt>
      <trkpt lat="44.78744" lon="-0.24809">
        <ele>42</ele>
        <time>2013-04-13T13:49:50Z</time>
      </trkpt>
      <trkpt lat="44.78744" lon="-0.24813">
        <ele>43</ele>
        <time>2013-04-13T13:49:51Z</time>
      </trkpt>
      <trkpt lat="44.78745" lon="-0.24817">
        <ele>43</ele>
        <time>2013-04-13T13:49:52Z</time>
      </trkpt>
      <trkpt lat="44.78745" lon="-0.24821">
        <ele>43</ele>
        <time>2013-04-13T13:49:53Z</time>
      </trkpt>
      <trkpt lat="44.78746" lon="-0.24825">
        <ele>43</ele>
        <time>2013-04-13T13:49:54Z</time>
      </trkpt>
      <trkpt lat="44.78754" lon="-0.24856">
        <ele>45</ele>
        <time>2013-04-13T13:50:01Z</time>
      </trkpt>
      <trkpt lat="44.78761" lon="-0.24882">
        <ele>46</ele>
        <time>2013-04-13T13:50:06Z</time>
      </trkpt>
      <trkpt lat="44.78774" lon="-0.24908">
        <ele>47</ele>
        <time>2013-04-13T13:50:14Z</time>
      </trkpt>
      <trkpt lat="44.78791" lon="-0.24931">
        <ele>47</ele>
        <time>2013-04-13T13:50:22Z</time>
      </trkpt>
      <trkpt lat="44.78812" lon="-0.24955">
        <ele>47</ele>
        <time>2013-04-13T13:50:29Z</time>
      </trkpt>
      <trkpt lat="44.7884" lon="-0.24986">
        <ele>45</ele>
        <time>2013-04-13T13:50:37Z</time>
      </trkpt>
      <trkpt lat="44.78856" lon="-0.25001">
        <ele>43</ele>
        <time>2013-04-13T13:50:44Z</time>
      </trkpt>
      <trkpt lat="44.78858" lon="-0.25001">
        <ele>43</ele>
        <time>2013-04-13T13:50:45Z</time>
      </trkpt>
      <trkpt lat="44.78859" lon="-0.25002">
        <ele>43</ele>
        <time>2013-04-13T13:50:50Z</time>
      </trkpt>
      <trkpt lat="44.78859" lon="-0.25001">
        <ele>43</ele>
        <time>2013-04-13T13:51:02Z</time>
      </trkpt>
      <trkpt lat="44.78859" lon="-0.25001">
        <ele>43</ele>
        <time>2013-04-13T13:51:13Z</time>
      </trkpt>
      <trkpt lat="44.78859" lon="-0.25001">
        <ele>43</ele>
        <time>2013-04-13T13:51:28Z</time>
      </trkpt>
      <trkpt lat="44.78859" lon="-0.25002">
        <ele>43</ele>
        <time>2013-04-13T13:51:45Z</time>
      </trkpt>
      <trkpt lat="44.7886" lon="-0.25002">
        <ele>43</ele>
        <time>2013-04-13T13:51:56Z</time>
      </trkpt>
      <trkpt lat="44.78859" lon="-0.25001">
        <ele>43</ele>
        <time>2013-04-13T13:52:07Z</time>
      </trkpt>
      <trkpt lat="44.78859" lon="-0.25001">
        <ele>43</ele>
        <time>2013-04-13T13:52:22Z</time>
      </trkpt>
      <trkpt lat="44.7886" lon="-0.25001">
        <ele>43</ele>
        <time>2013-04-13T13:52:35Z</time>
      </trkpt>
      <trkpt lat="44.7886" lon="-0.25001">
        <ele>43</ele>
        <time>2013-04-13T13:52:52Z</time>
      </trkpt>
      <trkpt lat="44.7886" lon="-0.25001">
        <ele>43</ele>
        <time>2013-04-13T13:53:06Z</time>
      </trkpt>
      <trkpt lat="44.7886" lon="-0.25">
        <ele>43</ele>
        <time>2013-04-13T13:53:12Z</time>
      </trkpt>
      <trkpt lat="44.78861" lon="-0.25001">
        <ele>43</ele>
        <time>2013-04-13T13:53:24Z</time>
      </trkpt>
      <trkpt lat="44.78861" lon="-0.25002">
        <ele>43</ele>
        <time>2013-04-13T13:53:36Z</time>
      </trkpt>
      <trkpt lat="44.7886" lon="-0.25002">
        <ele>43</ele>
        <time>2013-04-13T13:53:43Z</time>
      </trkpt>
      <trkpt lat="44.78861" lon="-0.25004">
        <ele>43</ele>
        <time>2013-04-13T13:53:54Z</time>
      </trkpt>
      <trkpt lat="44.78862" lon="-0.25005">
        <ele>43</ele>
        <time>2013-04-13T13:53:55Z</time>
      </trkpt>
      <trkpt lat="44.78864" lon="-0.25006">
        <ele>43</ele>
        <time>2013-04-13T13:53:56Z</time>
      </trkpt>
      <trkpt lat="44.78866" lon="-0.25005">
        <ele>43</ele>
        <time>2013-04-13T13:53:57Z</time>
      </trkpt>
      <trkpt lat="44.78868" lon="-0.25004">
        <ele>43</ele>
        <time>2013-04-13T13:53:58Z</time>
      </trkpt>
      <trkpt lat="44.78871" lon="-0.25003">
        <ele>43</ele>
        <time>2013-04-13T13:53:59Z</time>
      </trkpt>
      <trkpt lat="44.78873" lon="-0.25003">
        <ele>42</ele>
        <time>2013-04-13T13:54:00Z</time>
      </trkpt>
      <trkpt lat="44.78876" lon="-0.25002">
        <ele>42</ele>
        <time>2013-04-13T13:54:01Z</time>
      </trkpt>
      <trkpt lat="44.78879" lon="-0.25001">
        <ele>42</ele>
        <time>2013-04-13T13:54:02Z</time>
      </trkpt>
      <trkpt lat="44.78882" lon="-0.25001">
        <ele>42</ele>
        <time>2013-04-13T13:54:03Z</time>
      </trkpt>
      <trkpt lat="44.78907" lon="-0.24998">
        <ele>40</ele>
        <time>2013-04-13T13:54:10Z</time>
      </trkpt>
      <trkpt lat="44.78933" lon="-0.25009">
        <ele>40</ele>
        <time>2013-04-13T13:54:17Z</time>
      </trkpt>
      <trkpt lat="44.78945" lon="-0.25016">
        <ele>39</ele>
        <time>2013-04-13T13:54:20Z</time>
      </trkpt>
      <trkpt lat="44.78976" lon="-0.25034">
        <ele>39</ele>
        <time>2013-04-13T13:54:27Z</time>
      </trkpt>
      <trkpt lat="44.7898" lon="-0.25035">
        <ele>39</ele>
        <time>2013-04-13T13:54:28Z</time>
      </trkpt>
      <trkpt lat="44.79002" lon="-0.25038">
        <ele>39</ele>
        <time>2013-04-13T13:54:35Z</time>
      </trkpt>
      <trkpt lat="44.79014" lon="-0.25041">
        <ele>39</ele>
        <time>2013-04-13T13:54:41Z</time>
      </trkpt>
      <trkpt lat="44.79017" lon="-0.25041">
        <ele>39</ele>
        <time>2013-04-13T13:54:42Z</time>
      </trkpt>
      <trkpt lat="44.79019" lon="-0.2504">
        <ele>39</ele>
        <time>2013-04-13T13:54:43Z</time>
      </trkpt>
      <trkpt lat="44.7902" lon="-0.25039">
        <ele>39</ele>
        <time>2013-04-13T13:54:44Z</time>
      </trkpt>
      <trkpt lat="44.79021" lon="-0.25036">
        <ele>39</ele>
        <time>2013-04-13T13:54:45Z</time>
      </trkpt>
      <trkpt lat="44.79021" lon="-0.25034">
        <ele>40</ele>
        <time>2013-04-13T13:54:46Z</time>
      </trkpt>
      <trkpt lat="44.79019" lon="-0.25032">
        <ele>40</ele>
        <time>2013-04-13T13:54:47Z</time>
      </trkpt>
      <trkpt lat="44.79018" lon="-0.25031">
        <ele>40</ele>
        <time>2013-04-13T13:54:48Z</time>
      </trkpt>
      <trkpt lat="44.79016" lon="-0.2503">
        <ele>40</ele>
        <time>2013-04-13T13:54:49Z</time>
      </trkpt>
      <trkpt lat="44.79014" lon="-0.2503">
        <ele>40</ele>
        <time>2013-04-13T13:54:50Z</time>
      </trkpt>
      <trkpt lat="44.79007" lon="-0.25027">
        <ele>41</ele>
        <time>2013-04-13T13:54:54Z</time>
      </trkpt>
      <trkpt lat="44.79005" lon="-0.25025">
        <ele>41</ele>
        <time>2013-04-13T13:54:55Z</time>
      </trkpt>
      <trkpt lat="44.79004" lon="-0.25025">
        <ele>41</ele>
        <time>2013-04-13T13:54:56Z</time>
      </trkpt>
      <trkpt lat="44.79002" lon="-0.25025">
        <ele>41</ele>
        <time>2013-04-13T13:54:57Z</time>
      </trkpt>
      <trkpt lat="44.79" lon="-0.25025">
        <ele>41</ele>
        <time>2013-04-13T13:54:58Z</time>
      </trkpt>
      <trkpt lat="44.78998" lon="-0.25025">
        <ele>41</ele>
        <time>2013-04-13T13:54:59Z</time>
      </trkpt>
      <trkpt lat="44.78995" lon="-0.25024">
        <ele>41</ele>
        <time>2013-04-13T13:55:04Z</time>
      </trkpt>
      <trkpt lat="44.78992" lon="-0.25021">
        <ele>41</ele>
        <time>2013-04-13T13:55:10Z</time>
      </trkpt>
      <trkpt lat="44.7899" lon="-0.25019">
        <ele>42</ele>
        <time>2013-04-13T13:55:16Z</time>
      </trkpt>
      <trkpt lat="44.78987" lon="-0.25019">
        <ele>41</ele>
        <time>2013-04-13T13:55:23Z</time>
      </trkpt>
      <trkpt lat="44.78987" lon="-0.2502">
        <ele>41</ele>
        <time>2013-04-13T13:55:29Z</time>
      </trkpt>
      <trkpt lat="44.78987" lon="-0.2502">
        <ele>41</ele>
        <time>2013-04-13T13:55:39Z</time>
      </trkpt>
      <trkpt lat="44.78987" lon="-0.25021">
        <ele>41</ele>
        <time>2013-04-13T13:55:46Z</time>
      </trkpt>
      <trkpt lat="44.78987" lon="-0.25024">
        <ele>41</ele>
        <time>2013-04-13T13:55:52Z</time>
      </trkpt>
      <trkpt lat="44.78987" lon="-0.25024">
        <ele>41</ele>
        <time>2013-04-13T13:56:00Z</time>
      </trkpt>
      <trkpt lat="44.78987" lon="-0.25025">
        <ele>41</ele>
        <time>2013-04-13T13:56:07Z</time>
      </trkpt>
      <trkpt lat="44.78988" lon="-0.25025">
        <ele>41</ele>
        <time>2013-04-13T13:56:21Z</time>
      </trkpt>
      <trkpt lat="44.78988" lon="-0.25026">
        <ele>40</ele>
        <time>2013-04-13T13:56:32Z</time>
      </trkpt>
      <trkpt lat="44.78988" lon="-0.25027">
        <ele>40</ele>
        <time>2013-04-13T13:56:43Z</time>
      </trkpt>
      <trkpt lat="44.78989" lon="-0.25026">
        <ele>40</ele>
        <time>2013-04-13T13:57:00Z</time>
      </trkpt>
      <trkpt lat="44.78989" lon="-0.25027">
        <ele>40</ele>
        <time>2013-04-13T13:57:09Z</time>
      </trkpt>
      <trkpt lat="44.78988" lon="-0.25029">
        <ele>40</ele>
        <time>2013-04-13T13:57:10Z</time>
      </trkpt>
      <trkpt lat="44.78988" lon="-0.25031">
        <ele>40</ele>
        <time>2013-04-13T13:57:11Z</time>
      </trkpt>
      <trkpt lat="44.78994" lon="-0.25056">
        <ele>36</ele>
        <time>2013-04-13T13:57:19Z</time>
      </trkpt>
      <trkpt lat="44.79" lon="-0.2509">
        <ele>34</ele>
        <time>2013-04-13T13:57:27Z</time>
      </trkpt>
      <trkpt lat="44.79005" lon="-0.25113">
        <ele>33</ele>
        <time>2013-04-13T13:57:31Z</time>
      </trkpt>
      <trkpt lat="44.79007" lon="-0.25125">
        <ele>33</ele>
        <time>2013-04-13T13:57:33Z</time>
      </trkpt>
      <trkpt lat="44.79015" lon="-0.2517">
        <ele>33</ele>
        <time>2013-04-13T13:57:40Z</time>
      </trkpt>
      <trkpt lat="44.79017" lon="-0.25177">
        <ele>33</ele>
        <time>2013-04-13T13:57:41Z</time>
      </trkpt>
      <trkpt lat="44.79023" lon="-0.25209">
        <ele>33</ele>
        <time>2013-04-13T13:57:46Z</time>
      </trkpt>
      <trkpt lat="44.79031" lon="-0.25264">
        <ele>35</ele>
        <time>2013-04-13T13:57:55Z</time>
      </trkpt>
      <trkpt lat="44.79035" lon="-0.25296">
        <ele>37</ele>
        <time>2013-04-13T13:58:00Z</time>
      </trkpt>
      <trkpt lat="44.79035" lon="-0.25302">
        <ele>37</ele>
        <time>2013-04-13T13:58:01Z</time>
      </trkpt>
      <trkpt lat="44.79037" lon="-0.25334">
        <ele>39</ele>
        <time>2013-04-13T13:58:06Z</time>
      </trkpt>
      <trkpt lat="44.79037" lon="-0.2534">
        <ele>39</ele>
        <time>2013-04-13T13:58:07Z</time>
      </trkpt>
      <trkpt lat="44.79037" lon="-0.25346">
        <ele>39</ele>
        <time>2013-04-13T13:58:08Z</time>
      </trkpt>
      <trkpt lat="44.79037" lon="-0.25352">
        <ele>40</ele>
        <time>2013-04-13T13:58:09Z</time>
      </trkpt>
      <trkpt lat="44.79037" lon="-0.25357">
        <ele>40</ele>
        <time>2013-04-13T13:58:10Z</time>
      </trkpt>
      <trkpt lat="44.79037" lon="-0.25363">
        <ele>40</ele>
        <time>2013-04-13T13:58:11Z</time>
      </trkpt>
      <trkpt lat="44.79036" lon="-0.254">
        <ele>42</ele>
        <time>2013-04-13T13:58:18Z</time>
      </trkpt>
      <trkpt lat="44.79034" lon="-0.25433">
        <ele>43</ele>
        <time>2013-04-13T13:58:25Z</time>
      </trkpt>
      <trkpt lat="44.79031" lon="-0.25461">
        <ele>43</ele>
        <time>2013-04-13T13:58:31Z</time>
      </trkpt>
      <trkpt lat="44.79024" lon="-0.25502">
        <ele>44</ele>
        <time>2013-04-13T13:58:39Z</time>
      </trkpt>
      <trkpt lat="44.79016" lon="-0.25535">
        <ele>45</ele>
        <time>2013-04-13T13:58:45Z</time>
      </trkpt>
      <trkpt lat="44.79006" lon="-0.25574">
        <ele>46</ele>
        <time>2013-04-13T13:58:52Z</time>
      </trkpt>
      <trkpt lat="44.78995" lon="-0.25621">
        <ele>47</ele>
        <time>2013-04-13T13:59:01Z</time>
      </trkpt>
      <trkpt lat="44.78989" lon="-0.25644">
        <ele>48</ele>
        <time>2013-04-13T13:59:07Z</time>
      </trkpt>
      <trkpt lat="44.78983" lon="-0.25674">
        <ele>49</ele>
        <time>2013-04-13T13:59:14Z</time>
      </trkpt>
      <trkpt lat="44.78975" lon="-0.25719">
        <ele>49</ele>
        <time>2013-04-13T13:59:23Z</time>
      </trkpt>
      <trkpt lat="44.78969" lon="-0.25747">
        <ele>49</ele>
        <time>2013-04-13T13:59:29Z</time>
      </trkpt>
      <trkpt lat="44.78966" lon="-0.25768">
        <ele>49</ele>
        <time>2013-04-13T13:59:34Z</time>
      </trkpt>
      <trkpt lat="44.78959" lon="-0.25792">
        <ele>48</ele>
        <time>2013-04-13T13:59:39Z</time>
      </trkpt>
      <trkpt lat="44.78946" lon="-0.25845">
        <ele>48</ele>
        <time>2013-04-13T13:59:49Z</time>
      </trkpt>
      <trkpt lat="44.78934" lon="-0.25892">
        <ele>48</ele>
        <time>2013-04-13T13:59:58Z</time>
      </trkpt>
      <trkpt lat="44.78925" lon="-0.25928">
        <ele>48</ele>
        <time>2013-04-13T14:00:05Z</time>
      </trkpt>
      <trkpt lat="44.78918" lon="-0.25967">
        <ele>49</ele>
        <time>2013-04-13T14:00:13Z</time>
      </trkpt>
      <trkpt lat="44.78913" lon="-0.25987">
        <ele>50</ele>
        <time>2013-04-13T14:00:18Z</time>
      </trkpt>
      <trkpt lat="44.78907" lon="-0.26013">
        <ele>50</ele>
        <time>2013-04-13T14:00:24Z</time>
      </trkpt>
      <trkpt lat="44.78895" lon="-0.26048">
        <ele>50</ele>
        <time>2013-04-13T14:00:32Z</time>
      </trkpt>
      <trkpt lat="44.78886" lon="-0.2607">
        <ele>50</ele>
        <time>2013-04-13T14:00:39Z</time>
      </trkpt>
      <trkpt lat="44.78884" lon="-0.26074">
        <ele>50</ele>
        <time>2013-04-13T14:00:40Z</time>
      </trkpt>
      <trkpt lat="44.78883" lon="-0.26077">
        <ele>50</ele>
        <time>2013-04-13T14:00:41Z</time>
      </trkpt>
      <trkpt lat="44.78871" lon="-0.26106">
        <ele>51</ele>
        <time>2013-04-13T14:00:48Z</time>
      </trkpt>
      <trkpt lat="44.78859" lon="-0.26127">
        <ele>52</ele>
        <time>2013-04-13T14:00:54Z</time>
      </trkpt>
      <trkpt lat="44.78846" lon="-0.26152">
        <ele>52</ele>
        <time>2013-04-13T14:01:00Z</time>
      </trkpt>
      <trkpt lat="44.78823" lon="-0.26189">
        <ele>54</ele>
        <time>2013-04-13T14:01:09Z</time>
      </trkpt>
      <trkpt lat="44.78802" lon="-0.2622">
        <ele>55</ele>
        <time>2013-04-13T14:01:17Z</time>
      </trkpt>
      <trkpt lat="44.78786" lon="-0.2624">
        <ele>56</ele>
        <time>2013-04-13T14:01:23Z</time>
      </trkpt>
      <trkpt lat="44.78768" lon="-0.26261">
        <ele>57</ele>
        <time>2013-04-13T14:01:30Z</time>
      </trkpt>
      <trkpt lat="44.78749" lon="-0.26284">
        <ele>57</ele>
        <time>2013-04-13T14:01:37Z</time>
      </trkpt>
      <trkpt lat="44.78729" lon="-0.26303">
        <ele>56</ele>
        <time>2013-04-13T14:01:44Z</time>
      </trkpt>
      <trkpt lat="44.78723" lon="-0.2631">
        <ele>56</ele>
        <time>2013-04-13T14:01:48Z</time>
      </trkpt>
      <trkpt lat="44.78725" lon="-0.26316">
        <ele>56</ele>
        <time>2013-04-13T14:03:14Z</time>
      </trkpt>
      <trkpt lat="44.78726" lon="-0.2632">
        <ele>56</ele>
        <time>2013-04-13T14:03:15Z</time>
      </trkpt>
      <trkpt lat="44.78727" lon="-0.26323">
        <ele>56</ele>
        <time>2013-04-13T14:03:16Z</time>
      </trkpt>
      <trkpt lat="44.78737" lon="-0.26356">
        <ele>57</ele>
        <time>2013-04-13T14:03:25Z</time>
      </trkpt>
      <trkpt lat="44.78743" lon="-0.26384">
        <ele>57</ele>
        <time>2013-04-13T14:03:32Z</time>
      </trkpt>
      <trkpt lat="44.78754" lon="-0.26439">
        <ele>58</ele>
        <time>2013-04-13T14:03:44Z</time>
      </trkpt>
      <trkpt lat="44.7876" lon="-0.26471">
        <ele>59</ele>
        <time>2013-04-13T14:03:52Z</time>
      </trkpt>
      <trkpt lat="44.78758" lon="-0.26489">
        <ele>59</ele>
        <time>2013-04-13T14:03:58Z</time>
      </trkpt>
      <trkpt lat="44.78753" lon="-0.26514">
        <ele>59</ele>
        <time>2013-04-13T14:04:04Z</time>
      </trkpt>
      <trkpt lat="44.78745" lon="-0.2655">
        <ele>60</ele>
        <time>2013-04-13T14:04:11Z</time>
      </trkpt>
      <trkpt lat="44.78736" lon="-0.26594">
        <ele>60</ele>
        <time>2013-04-13T14:04:20Z</time>
      </trkpt>
      <trkpt lat="44.78735" lon="-0.26608">
        <ele>61</ele>
        <time>2013-04-13T14:04:24Z</time>
      </trkpt>
      <trkpt lat="44.78736" lon="-0.2661">
        <ele>61</ele>
        <time>2013-04-13T14:04:25Z</time>
      </trkpt>
      <trkpt lat="44.78737" lon="-0.26611">
        <ele>61</ele>
        <time>2013-04-13T14:04:26Z</time>
      </trkpt>
      <trkpt lat="44.78739" lon="-0.26611">
        <ele>61</ele>
        <time>2013-04-13T14:04:27Z</time>
      </trkpt>
      <trkpt lat="44.78741" lon="-0.26612">
        <ele>61</ele>
        <time>2013-04-13T14:04:28Z</time>
      </trkpt>
      <trkpt lat="44.78743" lon="-0.26614">
        <ele>61</ele>
        <time>2013-04-13T14:04:29Z</time>
      </trkpt>
      <trkpt lat="44.78745" lon="-0.26617">
        <ele>61</ele>
        <time>2013-04-13T14:04:30Z</time>
      </trkpt>
      <trkpt lat="44.78747" lon="-0.26619">
        <ele>61</ele>
        <time>2013-04-13T14:04:31Z</time>
      </trkpt>
      <trkpt lat="44.78758" lon="-0.26636">
        <ele>61</ele>
        <time>2013-04-13T14:04:38Z</time>
      </trkpt>
      <trkpt lat="44.78768" lon="-0.26649">
        <ele>61</ele>
        <time>2013-04-13T14:04:44Z</time>
      </trkpt>
      <trkpt lat="44.78776" lon="-0.26663">
        <ele>61</ele>
        <time>2013-04-13T14:04:49Z</time>
      </trkpt>
      <trkpt lat="44.78777" lon="-0.26665">
        <ele>61</ele>
        <time>2013-04-13T14:04:50Z</time>
      </trkpt>
      <trkpt lat="44.78788" lon="-0.26683">
        <ele>62</ele>
        <time>2013-04-13T14:04:57Z</time>
      </trkpt>
      <trkpt lat="44.78801" lon="-0.26706">
        <ele>62</ele>
        <time>2013-04-13T14:05:04Z</time>
      </trkpt>
      <trkpt lat="44.78809" lon="-0.26734">
        <ele>62</ele>
        <time>2013-04-13T14:05:12Z</time>
      </trkpt>
      <trkpt lat="44.78818" lon="-0.26762">
        <ele>63</ele>
        <time>2013-04-13T14:05:19Z</time>
      </trkpt>
      <trkpt lat="44.78826" lon="-0.26796">
        <ele>63</ele>
        <time>2013-04-13T14:05:28Z</time>
      </trkpt>
      <trkpt lat="44.78834" lon="-0.26835">
        <ele>63</ele>
        <time>2013-04-13T14:05:38Z</time>
      </trkpt>
      <trkpt lat="44.78842" lon="-0.26873">
        <ele>63</ele>
        <time>2013-04-13T14:05:47Z</time>
      </trkpt>
      <trkpt lat="44.78848" lon="-0.26907">
        <ele>63</ele>
        <time>2013-04-13T14:05:56Z</time>
      </trkpt>
      <trkpt lat="44.78856" lon="-0.26937">
        <ele>64</ele>
        <time>2013-04-13T14:06:04Z</time>
      </trkpt>
      <trkpt lat="44.78864" lon="-0.26958">
        <ele>65</ele>
        <time>2013-04-13T14:06:11Z</time>
      </trkpt>
      <trkpt lat="44.78873" lon="-0.26987">
        <ele>65</ele>
        <time>2013-04-13T14:06:20Z</time>
      </trkpt>
      <trkpt lat="44.78881" lon="-0.27011">
        <ele>65</ele>
        <time>2013-04-13T14:06:27Z</time>
      </trkpt>
      <trkpt lat="44.78891" lon="-0.27044">
        <ele>65</ele>
        <time>2013-04-13T14:06:36Z</time>
      </trkpt>
      <trkpt lat="44.78899" lon="-0.27071">
        <ele>65</ele>
        <time>2013-04-13T14:06:45Z</time>
      </trkpt>
      <trkpt lat="44.78902" lon="-0.27082">
        <ele>65</ele>
        <time>2013-04-13T14:06:52Z</time>
      </trkpt>
      <trkpt lat="44.78902" lon="-0.27082">
        <ele>65</ele>
        <time>2013-04-13T14:07:05Z</time>
      </trkpt>
      <trkpt lat="44.78903" lon="-0.27082">
        <ele>65</ele>
        <time>2013-04-13T14:07:19Z</time>
      </trkpt>
      <trkpt lat="44.78903" lon="-0.27082">
        <ele>65</ele>
        <time>2013-04-13T14:07:31Z</time>
      </trkpt>
      <trkpt lat="44.78903" lon="-0.27082">
        <ele>65</ele>
        <time>2013-04-13T14:07:46Z</time>
      </trkpt>
      <trkpt lat="44.78903" lon="-0.27082">
        <ele>65</ele>
        <time>2013-04-13T14:08:02Z</time>
      </trkpt>
      <trkpt lat="44.78903" lon="-0.27081">
        <ele>65</ele>
        <time>2013-04-13T14:08:22Z</time>
      </trkpt>
      <trkpt lat="44.78903" lon="-0.27081">
        <ele>65</ele>
        <time>2013-04-13T14:08:41Z</time>
      </trkpt>
      <trkpt lat="44.78903" lon="-0.27081">
        <ele>65</ele>
        <time>2013-04-13T14:09:02Z</time>
      </trkpt>
      <trkpt lat="44.78903" lon="-0.27081">
        <ele>65</ele>
        <time>2013-04-13T14:09:21Z</time>
      </trkpt>
      <trkpt lat="44.78903" lon="-0.27082">
        <ele>65</ele>
        <time>2013-04-13T14:09:36Z</time>
      </trkpt>
      <trkpt lat="44.78903" lon="-0.27082">
        <ele>65</ele>
        <time>2013-04-13T14:09:49Z</time>
      </trkpt>
      <trkpt lat="44.78903" lon="-0.27082">
        <ele>65</ele>
        <time>2013-04-13T14:10:02Z</time>
      </trkpt>
      <trkpt lat="44.78903" lon="-0.27083">
        <ele>65</ele>
        <time>2013-04-13T14:10:17Z</time>
      </trkpt>
      <trkpt lat="44.78903" lon="-0.27083">
        <ele>65</ele>
        <time>2013-04-13T14:10:35Z</time>
      </trkpt>
      <trkpt lat="44.78903" lon="-0.27082">
        <ele>65</ele>
        <time>2013-04-13T14:10:49Z</time>
      </trkpt>
      <trkpt lat="44.78903" lon="-0.27083">
        <ele>65</ele>
        <time>2013-04-13T14:11:02Z</time>
      </trkpt>
      <trkpt lat="44.78903" lon="-0.27083">
        <ele>65</ele>
        <time>2013-04-13T14:11:13Z</time>
      </trkpt>
      <trkpt lat="44.78903" lon="-0.27083">
        <ele>65</ele>
        <time>2013-04-13T14:11:29Z</time>
      </trkpt>
      <trkpt lat="44.78906" lon="-0.2709">
        <ele>65</ele>
        <time>2013-04-13T14:11:32Z</time>
      </trkpt>
      <trkpt lat="44.78919" lon="-0.27105">
        <ele>65</ele>
        <time>2013-04-13T14:11:39Z</time>
      </trkpt>
      <trkpt lat="44.78929" lon="-0.27122">
        <ele>64</ele>
        <time>2013-04-13T14:11:44Z</time>
      </trkpt>
      <trkpt lat="44.78943" lon="-0.27148">
        <ele>64</ele>
        <time>2013-04-13T14:11:52Z</time>
      </trkpt>
      <trkpt lat="44.78957" lon="-0.27171">
        <ele>63</ele>
        <time>2013-04-13T14:11:59Z</time>
      </trkpt>
      <trkpt lat="44.78972" lon="-0.27194">
        <ele>63</ele>
        <time>2013-04-13T14:12:06Z</time>
      </trkpt>
      <trkpt lat="44.78989" lon="-0.27222">
        <ele>62</ele>
        <time>2013-04-13T14:12:14Z</time>
      </trkpt>
      <trkpt lat="44.79008" lon="-0.27253">
        <ele>61</ele>
        <time>2013-04-13T14:12:23Z</time>
      </trkpt>
      <trkpt lat="44.79022" lon="-0.27277">
        <ele>61</ele>
        <time>2013-04-13T14:12:29Z</time>
      </trkpt>
      <trkpt lat="44.79048" lon="-0.2732">
        <ele>60</ele>
        <time>2013-04-13T14:12:38Z</time>
      </trkpt>
      <trkpt lat="44.79071" lon="-0.2736">
        <ele>59</ele>
        <time>2013-04-13T14:12:45Z</time>
      </trkpt>
      <trkpt lat="44.79104" lon="-0.27415">
        <ele>57</ele>
        <time>2013-04-13T14:12:53Z</time>
      </trkpt>
      <trkpt lat="44.79109" lon="-0.27422">
        <ele>57</ele>
        <time>2013-04-13T14:12:54Z</time>
      </trkpt>
      <trkpt lat="44.79121" lon="-0.27438">
        <ele>56</ele>
        <time>2013-04-13T14:12:58Z</time>
      </trkpt>
      <trkpt lat="44.79123" lon="-0.27438">
        <ele>56</ele>
        <time>2013-04-13T14:12:59Z</time>
      </trkpt>
      <trkpt lat="44.79126" lon="-0.27435">
        <ele>56</ele>
        <time>2013-04-13T14:13:00Z</time>
      </trkpt>
      <trkpt lat="44.79128" lon="-0.27432">
        <ele>56</ele>
        <time>2013-04-13T14:13:01Z</time>
      </trkpt>
      <trkpt lat="44.79131" lon="-0.27429">
        <ele>56</ele>
        <time>2013-04-13T14:13:02Z</time>
      </trkpt>
      <trkpt lat="44.79134" lon="-0.27426">
        <ele>56</ele>
        <time>2013-04-13T14:13:03Z</time>
      </trkpt>
      <trkpt lat="44.79137" lon="-0.27422">
        <ele>56</ele>
        <time>2013-04-13T14:13:04Z</time>
      </trkpt>
      <trkpt lat="44.79154" lon="-0.27407">
        <ele>56</ele>
        <time>2013-04-13T14:13:09Z</time>
      </trkpt>
      <trkpt lat="44.79179" lon="-0.27378">
        <ele>56</ele>
        <time>2013-04-13T14:13:17Z</time>
      </trkpt>
      <trkpt lat="44.79189" lon="-0.27367">
        <ele>56</ele>
        <time>2013-04-13T14:13:20Z</time>
      </trkpt>
      <trkpt lat="44.79192" lon="-0.27364">
        <ele>56</ele>
        <time>2013-04-13T14:13:21Z</time>
      </trkpt>
      <trkpt lat="44.79209" lon="-0.27346">
        <ele>56</ele>
        <time>2013-04-13T14:13:26Z</time>
      </trkpt>
      <trkpt lat="44.79239" lon="-0.27313">
        <ele>57</ele>
        <time>2013-04-13T14:13:35Z</time>
      </trkpt>
      <trkpt lat="44.79264" lon="-0.27289">
        <ele>57</ele>
        <time>2013-04-13T14:13:43Z</time>
      </trkpt>
      <trkpt lat="44.79295" lon="-0.27257">
        <ele>57</ele>
        <time>2013-04-13T14:13:53Z</time>
      </trkpt>
      <trkpt lat="44.79313" lon="-0.27238">
        <ele>57</ele>
        <time>2013-04-13T14:14:00Z</time>
      </trkpt>
      <trkpt lat="44.79332" lon="-0.27223">
        <ele>56</ele>
        <time>2013-04-13T14:14:07Z</time>
      </trkpt>
      <trkpt lat="44.79352" lon="-0.27203">
        <ele>56</ele>
        <time>2013-04-13T14:14:15Z</time>
      </trkpt>
      <trkpt lat="44.79374" lon="-0.27176">
        <ele>55</ele>
        <time>2013-04-13T14:14:24Z</time>
      </trkpt>
      <trkpt lat="44.7938" lon="-0.27167">
        <ele>54</ele>
        <time>2013-04-13T14:14:27Z</time>
      </trkpt>
      <trkpt lat="44.79383" lon="-0.27167">
        <ele>54</ele>
        <time>2013-04-13T14:14:28Z</time>
      </trkpt>
      <trkpt lat="44.79385" lon="-0.2717">
        <ele>54</ele>
        <time>2013-04-13T14:14:29Z</time>
      </trkpt>
      <trkpt lat="44.79387" lon="-0.27172">
        <ele>54</ele>
        <time>2013-04-13T14:14:30Z</time>
      </trkpt>
      <trkpt lat="44.7939" lon="-0.27173">
        <ele>54</ele>
        <time>2013-04-13T14:14:31Z</time>
      </trkpt>
      <trkpt lat="44.79393" lon="-0.27174">
        <ele>54</ele>
        <time>2013-04-13T14:14:32Z</time>
      </trkpt>
      <trkpt lat="44.79413" lon="-0.27186">
        <ele>54</ele>
        <time>2013-04-13T14:14:38Z</time>
      </trkpt>
      <trkpt lat="44.79443" lon="-0.27204">
        <ele>52</ele>
        <time>2013-04-13T14:14:46Z</time>
      </trkpt>
      <trkpt lat="44.79447" lon="-0.27207">
        <ele>52</ele>
        <time>2013-04-13T14:14:47Z</time>
      </trkpt>
      <trkpt lat="44.79463" lon="-0.27226">
        <ele>51</ele>
        <time>2013-04-13T14:14:51Z</time>
      </trkpt>
      <trkpt lat="44.79479" lon="-0.27253">
        <ele>49</ele>
        <time>2013-04-13T14:14:55Z</time>
      </trkpt>
      <trkpt lat="44.79482" lon="-0.27262">
        <ele>48</ele>
        <time>2013-04-13T14:14:56Z</time>
      </trkpt>
      <trkpt lat="44.79484" lon="-0.27272">
        <ele>47</ele>
        <time>2013-04-13T14:14:57Z</time>
      </trkpt>
      <trkpt lat="44.79485" lon="-0.27283">
        <ele>46</ele>
        <time>2013-04-13T14:14:58Z</time>
      </trkpt>
      <trkpt lat="44.79485" lon="-0.27295">
        <ele>45</ele>
        <time>2013-04-13T14:14:59Z</time>
      </trkpt>
      <trkpt lat="44.79484" lon="-0.27307">
        <ele>45</ele>
        <time>2013-04-13T14:15:00Z</time>
      </trkpt>
      <trkpt lat="44.79477" lon="-0.27376">
        <ele>44</ele>
        <time>2013-04-13T14:15:06Z</time>
      </trkpt>
      <trkpt lat="44.79473" lon="-0.27429">
        <ele>44</ele>
        <time>2013-04-13T14:15:12Z</time>
      </trkpt>
      <trkpt lat="44.79471" lon="-0.27482">
        <ele>48</ele>
        <time>2013-04-13T14:15:19Z</time>
      </trkpt>
      <trkpt lat="44.79471" lon="-0.27488">
        <ele>48</ele>
        <time>2013-04-13T14:15:20Z</time>
      </trkpt>
      <trkpt lat="44.79472" lon="-0.27493">
        <ele>48</ele>
        <time>2013-04-13T14:15:21Z</time>
      </trkpt>
      <trkpt lat="44.79473" lon="-0.27498">
        <ele>49</ele>
        <time>2013-04-13T14:15:22Z</time>
      </trkpt>
      <trkpt lat="44.79473" lon="-0.27503">
        <ele>49</ele>
        <time>2013-04-13T14:15:23Z</time>
      </trkpt>
      <trkpt lat="44.79474" lon="-0.27508">
        <ele>49</ele>
        <time>2013-04-13T14:15:24Z</time>
      </trkpt>
      <trkpt lat="44.79475" lon="-0.27513">
        <ele>50</ele>
        <time>2013-04-13T14:15:25Z</time>
      </trkpt>
      <trkpt lat="44.79476" lon="-0.27517">
        <ele>50</ele>
        <time>2013-04-13T14:15:26Z</time>
      </trkpt>
      <trkpt lat="44.79479" lon="-0.27548">
        <ele>52</ele>
        <time>2013-04-13T14:15:33Z</time>
      </trkpt>
      <trkpt lat="44.79481" lon="-0.27569">
        <ele>53</ele>
        <time>2013-04-13T14:15:38Z</time>
      </trkpt>
      <trkpt lat="44.79487" lon="-0.27598">
        <ele>54</ele>
        <time>2013-04-13T14:15:45Z</time>
      </trkpt>
      <trkpt lat="44.79491" lon="-0.27628">
        <ele>54</ele>
        <time>2013-04-13T14:15:52Z</time>
      </trkpt>
      <trkpt lat="44.79495" lon="-0.27665">
        <ele>55</ele>
        <time>2013-04-13T14:16:01Z</time>
      </trkpt>
      <trkpt lat="44.79493" lon="-0.27697">
        <ele>56</ele>
        <time>2013-04-13T14:16:08Z</time>
      </trkpt>
      <trkpt lat="44.79479" lon="-0.27744">
        <ele>58</ele>
        <time>2013-04-13T14:16:19Z</time>
      </trkpt>
      <trkpt lat="44.79464" lon="-0.27783">
        <ele>59</ele>
        <time>2013-04-13T14:16:29Z</time>
      </trkpt>
      <trkpt lat="44.79449" lon="-0.27815">
        <ele>60</ele>
        <time>2013-04-13T14:16:38Z</time>
      </trkpt>
      <trkpt lat="44.79437" lon="-0.2783">
        <ele>61</ele>
        <time>2013-04-13T14:16:44Z</time>
      </trkpt>
      <trkpt lat="44.79427" lon="-0.27846">
        <ele>61</ele>
        <time>2013-04-13T14:16:50Z</time>
      </trkpt>
      <trkpt lat="44.79411" lon="-0.27866">
        <ele>61</ele>
        <time>2013-04-13T14:16:59Z</time>
      </trkpt>
      <trkpt lat="44.794" lon="-0.27879">
        <ele>61</ele>
        <time>2013-04-13T14:17:07Z</time>
      </trkpt>
      <trkpt lat="44.7939" lon="-0.2789">
        <ele>61</ele>
        <time>2013-04-13T14:17:15Z</time>
      </trkpt>
      <trkpt lat="44.79384" lon="-0.27895">
        <ele>61</ele>
        <time>2013-04-13T14:17:20Z</time>
      </trkpt>
      <trkpt lat="44.79376" lon="-0.27904">
        <ele>60</ele>
        <time>2013-04-13T14:17:27Z</time>
      </trkpt>
      <trkpt lat="44.79376" lon="-0.27905">
        <ele>61</ele>
        <time>2013-04-13T14:17:35Z</time>
      </trkpt>
      <trkpt lat="44.79376" lon="-0.27906">
        <ele>61</ele>
        <time>2013-04-13T14:17:44Z</time>
      </trkpt>
      <trkpt lat="44.79376" lon="-0.27905">
        <ele>61</ele>
        <time>2013-04-13T14:17:56Z</time>
      </trkpt>
      <trkpt lat="44.79375" lon="-0.27906">
        <ele>60</ele>
        <time>2013-04-13T14:18:09Z</time>
      </trkpt>
      <trkpt lat="44.79375" lon="-0.27907">
        <ele>61</ele>
        <time>2013-04-13T14:18:10Z</time>
      </trkpt>
      <trkpt lat="44.79374" lon="-0.27909">
        <ele>61</ele>
        <time>2013-04-13T14:18:11Z</time>
      </trkpt>
      <trkpt lat="44.79369" lon="-0.27915">
        <ele>61</ele>
        <time>2013-04-13T14:18:17Z</time>
      </trkpt>
      <trkpt lat="44.79368" lon="-0.27916">
        <ele>60</ele>
        <time>2013-04-13T14:18:18Z</time>
      </trkpt>
      <trkpt lat="44.79366" lon="-0.27917">
        <ele>60</ele>
        <time>2013-04-13T14:18:19Z</time>
      </trkpt>
      <trkpt lat="44.79365" lon="-0.27918">
        <ele>60</ele>
        <time>2013-04-13T14:18:20Z</time>
      </trkpt>
      <trkpt lat="44.79364" lon="-0.2792">
        <ele>60</ele>
        <time>2013-04-13T14:18:21Z</time>
      </trkpt>
      <trkpt lat="44.79363" lon="-0.2792">
        <ele>60</ele>
        <time>2013-04-13T14:18:26Z</time>
      </trkpt>
      <trkpt lat="44.79363" lon="-0.27921">
        <ele>61</ele>
        <time>2013-04-13T14:18:37Z</time>
      </trkpt>
      <trkpt lat="44.79363" lon="-0.27921">
        <ele>61</ele>
        <time>2013-04-13T14:18:45Z</time>
      </trkpt>
      <trkpt lat="44.79363" lon="-0.27921">
        <ele>61</ele>
        <time>2013-04-13T14:18:55Z</time>
      </trkpt>
      <trkpt lat="44.79363" lon="-0.27921">
        <ele>60</ele>
        <time>2013-04-13T14:19:12Z</time>
      </trkpt>
      <trkpt lat="44.79362" lon="-0.27921">
        <ele>60</ele>
        <time>2013-04-13T14:19:22Z</time>
      </trkpt>
      <trkpt lat="44.79363" lon="-0.27921">
        <ele>61</ele>
        <time>2013-04-13T14:19:29Z</time>
      </trkpt>
      <trkpt lat="44.79363" lon="-0.27922">
        <ele>61</ele>
        <time>2013-04-13T14:19:46Z</time>
      </trkpt>
      <trkpt lat="44.79363" lon="-0.27921">
        <ele>61</ele>
        <time>2013-04-13T14:19:58Z</time>
      </trkpt>
      <trkpt lat="44.79362" lon="-0.27921">
        <ele>60</ele>
        <time>2013-04-13T14:20:17Z</time>
      </trkpt>
      <trkpt lat="44.79363" lon="-0.27921">
        <ele>61</ele>
        <time>2013-04-13T14:20:30Z</time>
      </trkpt>
      <trkpt lat="44.79363" lon="-0.27921">
        <ele>61</ele>
        <time>2013-04-13T14:20:44Z</time>
      </trkpt>
      <trkpt lat="44.79363" lon="-0.27921">
        <ele>61</ele>
        <time>2013-04-13T14:20:51Z</time>
      </trkpt>
      <trkpt lat="44.79363" lon="-0.27921">
        <ele>61</ele>
        <time>2013-04-13T14:21:01Z</time>
      </trkpt>
      <trkpt lat="44.79363" lon="-0.27921">
        <ele>60</ele>
        <time>2013-04-13T14:21:16Z</time>
      </trkpt>
      <trkpt lat="44.79363" lon="-0.27921">
        <ele>60</ele>
        <time>2013-04-13T14:21:32Z</time>
      </trkpt>
      <trkpt lat="44.79363" lon="-0.27922">
        <ele>61</ele>
        <time>2013-04-13T14:21:47Z</time>
      </trkpt>
      <trkpt lat="44.79358" lon="-0.27928">
        <ele>61</ele>
        <time>2013-04-13T14:21:54Z</time>
      </trkpt>
      <trkpt lat="44.79357" lon="-0.2793">
        <ele>61</ele>
        <time>2013-04-13T14:21:55Z</time>
      </trkpt>
      <trkpt lat="44.79356" lon="-0.27931">
        <ele>61</ele>
        <time>2013-04-13T14:21:56Z</time>
      </trkpt>
      <trkpt lat="44.79354" lon="-0.27933">
        <ele>61</ele>
        <time>2013-04-13T14:21:57Z</time>
      </trkpt>
      <trkpt lat="44.79353" lon="-0.27935">
        <ele>61</ele>
        <time>2013-04-13T14:21:58Z</time>
      </trkpt>
      <trkpt lat="44.79351" lon="-0.27937">
        <ele>61</ele>
        <time>2013-04-13T14:21:59Z</time>
      </trkpt>
      <trkpt lat="44.79349" lon="-0.27939">
        <ele>61</ele>
        <time>2013-04-13T14:22:00Z</time>
      </trkpt>
      <trkpt lat="44.79347" lon="-0.27941">
        <ele>61</ele>
        <time>2013-04-13T14:22:01Z</time>
      </trkpt>
      <trkpt lat="44.79345" lon="-0.27944">
        <ele>61</ele>
        <time>2013-04-13T14:22:02Z</time>
      </trkpt>
      <trkpt lat="44.79328" lon="-0.27965">
        <ele>61</ele>
        <time>2013-04-13T14:22:10Z</time>
      </trkpt>
      <trkpt lat="44.79306" lon="-0.2799">
        <ele>62</ele>
        <time>2013-04-13T14:22:19Z</time>
      </trkpt>
      <trkpt lat="44.79283" lon="-0.28013">
        <ele>62</ele>
        <time>2013-04-13T14:22:28Z</time>
      </trkpt>
      <trkpt lat="44.7926" lon="-0.28042">
        <ele>62</ele>
        <time>2013-04-13T14:22:37Z</time>
      </trkpt>
      <trkpt lat="44.79245" lon="-0.28072">
        <ele>63</ele>
        <time>2013-04-13T14:22:45Z</time>
      </trkpt>
      <trkpt lat="44.79238" lon="-0.28099">
        <ele>63</ele>
        <time>2013-04-13T14:22:52Z</time>
      </trkpt>
      <trkpt lat="44.79225" lon="-0.28123">
        <ele>63</ele>
        <time>2013-04-13T14:22:59Z</time>
      </trkpt>
      <trkpt lat="44.79215" lon="-0.28138">
        <ele>63</ele>
        <time>2013-04-13T14:23:05Z</time>
      </trkpt>
      <trkpt lat="44.79208" lon="-0.28149">
        <ele>63</ele>
        <time>2013-04-13T14:23:08Z</time>
      </trkpt>
      <trkpt lat="44.79206" lon="-0.28153">
        <ele>63</ele>
        <time>2013-04-13T14:23:09Z</time>
      </trkpt>
      <trkpt lat="44.79203" lon="-0.28157">
        <ele>63</ele>
        <time>2013-04-13T14:23:10Z</time>
      </trkpt>
      <trkpt lat="44.792" lon="-0.28162">
        <ele>63</ele>
        <time>2013-04-13T14:23:11Z</time>
      </trkpt>
      <trkpt lat="44.79197" lon="-0.28168">
        <ele>63</ele>
        <time>2013-04-13T14:23:12Z</time>
      </trkpt>
      <trkpt lat="44.79194" lon="-0.28174">
        <ele>63</ele>
        <time>2013-04-13T14:23:13Z</time>
      </trkpt>
      <trkpt lat="44.7919" lon="-0.28179">
        <ele>62</ele>
        <time>2013-04-13T14:23:14Z</time>
      </trkpt>
      <trkpt lat="44.7916" lon="-0.28214">
        <ele>59</ele>
        <time>2013-04-13T14:23:21Z</time>
      </trkpt>
      <trkpt lat="44.79156" lon="-0.28218">
        <ele>59</ele>
        <time>2013-04-13T14:23:22Z</time>
      </trkpt>
      <trkpt lat="44.79147" lon="-0.28225">
        <ele>58</ele>
        <time>2013-04-13T14:23:24Z</time>
      </trkpt>
      <trkpt lat="44.79143" lon="-0.28227">
        <ele>58</ele>
        <time>2013-04-13T14:23:25Z</time>
      </trkpt>
      <trkpt lat="44.79139" lon="-0.28229">
        <ele>58</ele>
        <time>2013-04-13T14:23:26Z</time>
      </trkpt>
      <trkpt lat="44.79114" lon="-0.28234">
        <ele>59</ele>
        <time>2013-04-13T14:23:32Z</time>
      </trkpt>
      <trkpt lat="44.7911" lon="-0.28234">
        <ele>59</ele>
        <time>2013-04-13T14:23:33Z</time>
      </trkpt>
      <trkpt lat="44.79081" lon="-0.28234">
        <ele>60</ele>
        <time>2013-04-13T14:23:40Z</time>
      </trkpt>
      <trkpt lat="44.79059" lon="-0.28227">
        <ele>60</ele>
        <time>2013-04-13T14:23:46Z</time>
      </trkpt>
      <trkpt lat="44.79056" lon="-0.28226">
        <ele>60</ele>
        <time>2013-04-13T14:23:47Z</time>
      </trkpt>
      <trkpt lat="44.79035" lon="-0.28226">
        <ele>60</ele>
        <time>2013-04-13T14:23:54Z</time>
      </trkpt>
      <trkpt lat="44.7902" lon="-0.28229">
        <ele>60</ele>
        <time>2013-04-13T14:24:02Z</time>
      </trkpt>
      <trkpt lat="44.79009" lon="-0.28236">
        <ele>60</ele>
        <time>2013-04-13T14:24:08Z</time>
      </trkpt>
      <trkpt lat="44.78998" lon="-0.28245">
        <ele>60</ele>
        <time>2013-04-13T14:24:15Z</time>
      </trkpt>
      <trkpt lat="44.78985" lon="-0.28255">
        <ele>60</ele>
        <time>2013-04-13T14:24:21Z</time>
      </trkpt>
      <trkpt lat="44.78971" lon="-0.28271">
        <ele>59</ele>
        <time>2013-04-13T14:24:28Z</time>
      </trkpt>
      <trkpt lat="44.78947" lon="-0.28292">
        <ele>59</ele>
        <time>2013-04-13T14:24:39Z</time>
      </trkpt>
      <trkpt lat="44.78932" lon="-0.28305">
        <ele>59</ele>
        <time>2013-04-13T14:24:47Z</time>
      </trkpt>
      <trkpt lat="44.7891" lon="-0.28323">
        <ele>59</ele>
        <time>2013-04-13T14:24:56Z</time>
      </trkpt>
      <trkpt lat="44.78897" lon="-0.2834">
        <ele>59</ele>
        <time>2013-04-13T14:25:04Z</time>
      </trkpt>
      <trkpt lat="44.78887" lon="-0.28358">
        <ele>58</ele>
        <time>2013-04-13T14:25:09Z</time>
      </trkpt>
      <trkpt lat="44.78868" lon="-0.28378">
        <ele>57</ele>
        <time>2013-04-13T14:25:15Z</time>
      </trkpt>
      <trkpt lat="44.78839" lon="-0.284">
        <ele>55</ele>
        <time>2013-04-13T14:25:22Z</time>
      </trkpt>
      <trkpt lat="44.78819" lon="-0.28417">
        <ele>55</ele>
        <time>2013-04-13T14:25:28Z</time>
      </trkpt>
      <trkpt lat="44.78817" lon="-0.28444">
        <ele>55</ele>
        <time>2013-04-13T14:25:35Z</time>
      </trkpt>
      <trkpt lat="44.78823" lon="-0.28478">
        <ele>55</ele>
        <time>2013-04-13T14:25:45Z</time>
      </trkpt>
      <trkpt lat="44.7883" lon="-0.28507">
        <ele>56</ele>
        <time>2013-04-13T14:25:54Z</time>
      </trkpt>
      <trkpt lat="44.78837" lon="-0.28537">
        <ele>58</ele>
        <time>2013-04-13T14:26:03Z</time>
      </trkpt>
      <trkpt lat="44.78838" lon="-0.28556">
        <ele>58</ele>
        <time>2013-04-13T14:26:11Z</time>
      </trkpt>
      <trkpt lat="44.78841" lon="-0.28577">
        <ele>59</ele>
        <time>2013-04-13T14:26:19Z</time>
      </trkpt>
      <trkpt lat="44.78843" lon="-0.28602">
        <ele>60</ele>
        <time>2013-04-13T14:26:28Z</time>
      </trkpt>
      <trkpt lat="44.78846" lon="-0.28626">
        <ele>60</ele>
        <time>2013-04-13T14:26:37Z</time>
      </trkpt>
      <trkpt lat="44.78849" lon="-0.28646">
        <ele>61</ele>
        <time>2013-04-13T14:26:44Z</time>
      </trkpt>
      <trkpt lat="44.78853" lon="-0.28667">
        <ele>61</ele>
        <time>2013-04-13T14:26:52Z</time>
      </trkpt>
      <trkpt lat="44.78856" lon="-0.28688">
        <ele>61</ele>
        <time>2013-04-13T14:27:00Z</time>
      </trkpt>
      <trkpt lat="44.7886" lon="-0.28702">
        <ele>62</ele>
        <time>2013-04-13T14:27:07Z</time>
      </trkpt>
      <trkpt lat="44.7886" lon="-0.2871">
        <ele>62</ele>
        <time>2013-04-13T14:27:13Z</time>
      </trkpt>
      <trkpt lat="44.7886" lon="-0.2873">
        <ele>62</ele>
        <time>2013-04-13T14:33:16Z</time>
      </trkpt>
      <trkpt lat="44.78861" lon="-0.28734">
        <ele>62</ele>
        <time>2013-04-13T14:33:17Z</time>
      </trkpt>
      <trkpt lat="44.78869" lon="-0.28762">
        <ele>63</ele>
        <time>2013-04-13T14:33:24Z</time>
      </trkpt>
      <trkpt lat="44.78879" lon="-0.28796">
        <ele>63</ele>
        <time>2013-04-13T14:33:34Z</time>
      </trkpt>
      <trkpt lat="44.78886" lon="-0.28821">
        <ele>63</ele>
        <time>2013-04-13T14:33:42Z</time>
      </trkpt>
      <trkpt lat="44.78889" lon="-0.28834">
        <ele>64</ele>
        <time>2013-04-13T14:33:47Z</time>
      </trkpt>
      <trkpt lat="44.78889" lon="-0.28837">
        <ele>64</ele>
        <time>2013-04-13T14:33:48Z</time>
      </trkpt>
      <trkpt lat="44.78888" lon="-0.28839">
        <ele>64</ele>
        <time>2013-04-13T14:33:49Z</time>
      </trkpt>
      <trkpt lat="44.78888" lon="-0.2884">
        <ele>64</ele>
        <time>2013-04-13T14:33:50Z</time>
      </trkpt>
      <trkpt lat="44.78888" lon="-0.28842">
        <ele>64</ele>
        <time>2013-04-13T14:33:51Z</time>
      </trkpt>
      <trkpt lat="44.78888" lon="-0.28844">
        <ele>64</ele>
        <time>2013-04-13T14:33:52Z</time>
      </trkpt>
      <trkpt lat="44.78887" lon="-0.28845">
        <ele>64</ele>
        <time>2013-04-13T14:33:53Z</time>
      </trkpt>
      <trkpt lat="44.78886" lon="-0.28847">
        <ele>64</ele>
        <time>2013-04-13T14:33:54Z</time>
      </trkpt>
      <trkpt lat="44.78883" lon="-0.28849">
        <ele>63</ele>
        <time>2013-04-13T14:34:00Z</time>
      </trkpt>
      <trkpt lat="44.78883" lon="-0.28848">
        <ele>63</ele>
        <time>2013-04-13T14:34:13Z</time>
      </trkpt>
      <trkpt lat="44.78883" lon="-0.28849">
        <ele>63</ele>
        <time>2013-04-13T14:34:27Z</time>
      </trkpt>
      <trkpt lat="44.78883" lon="-0.28848">
        <ele>63</ele>
        <time>2013-04-13T14:34:37Z</time>
      </trkpt>
      <trkpt lat="44.78883" lon="-0.28848">
        <ele>63</ele>
        <time>2013-04-13T14:34:50Z</time>
      </trkpt>
      <trkpt lat="44.78883" lon="-0.28848">
        <ele>63</ele>
        <time>2013-04-13T14:35:00Z</time>
      </trkpt>
      <trkpt lat="44.78883" lon="-0.28847">
        <ele>63</ele>
        <time>2013-04-13T14:35:15Z</time>
      </trkpt>
      <trkpt lat="44.78884" lon="-0.28847">
        <ele>63</ele>
        <time>2013-04-13T14:35:28Z</time>
      </trkpt>
      <trkpt lat="44.78884" lon="-0.28847">
        <ele>63</ele>
        <time>2013-04-13T14:35:38Z</time>
      </trkpt>
      <trkpt lat="44.78884" lon="-0.28847">
        <ele>63</ele>
        <time>2013-04-13T14:35:50Z</time>
      </trkpt>
      <trkpt lat="44.78884" lon="-0.28848">
        <ele>63</ele>
        <time>2013-04-13T14:36:04Z</time>
      </trkpt>
      <trkpt lat="44.78884" lon="-0.28848">
        <ele>63</ele>
        <time>2013-04-13T14:36:22Z</time>
      </trkpt>
      <trkpt lat="44.78884" lon="-0.28848">
        <ele>63</ele>
        <time>2013-04-13T14:36:40Z</time>
      </trkpt>
      <trkpt lat="44.78883" lon="-0.28849">
        <ele>63</ele>
        <time>2013-04-13T14:36:55Z</time>
      </trkpt>
      <trkpt lat="44.78883" lon="-0.28849">
        <ele>63</ele>
        <time>2013-04-13T14:37:12Z</time>
      </trkpt>
      <trkpt lat="44.78884" lon="-0.28849">
        <ele>63</ele>
        <time>2013-04-13T14:37:25Z</time>
      </trkpt>
      <trkpt lat="44.78884" lon="-0.2885">
        <ele>63</ele>
        <time>2013-04-13T14:37:37Z</time>
      </trkpt>
      <trkpt lat="44.78884" lon="-0.28851">
        <ele>63</ele>
        <time>2013-04-13T14:37:55Z</time>
      </trkpt>
      <trkpt lat="44.78878" lon="-0.28857">
        <ele>63</ele>
        <time>2013-04-13T14:38:01Z</time>
      </trkpt>
      <trkpt lat="44.78864" lon="-0.2887">
        <ele>63</ele>
        <time>2013-04-13T14:38:08Z</time>
      </trkpt>
      <trkpt lat="44.7884" lon="-0.28892">
        <ele>64</ele>
        <time>2013-04-13T14:38:18Z</time>
      </trkpt>
      <trkpt lat="44.78819" lon="-0.28913">
        <ele>64</ele>
        <time>2013-04-13T14:38:27Z</time>
      </trkpt>
      <trkpt lat="44.78798" lon="-0.28942">
        <ele>64</ele>
        <time>2013-04-13T14:38:37Z</time>
      </trkpt>
      <trkpt lat="44.7878" lon="-0.28969">
        <ele>65</ele>
        <time>2013-04-13T14:38:46Z</time>
      </trkpt>
      <trkpt lat="44.78763" lon="-0.28994">
        <ele>65</ele>
        <time>2013-04-13T14:38:55Z</time>
      </trkpt>
      <trkpt lat="44.78747" lon="-0.29011">
        <ele>66</ele>
        <time>2013-04-13T14:39:02Z</time>
      </trkpt>
      <trkpt lat="44.78727" lon="-0.29028">
        <ele>67</ele>
        <time>2013-04-13T14:39:10Z</time>
      </trkpt>
      <trkpt lat="44.78714" lon="-0.29038">
        <ele>67</ele>
        <time>2013-04-13T14:39:16Z</time>
      </trkpt>
      <trkpt lat="44.78703" lon="-0.29047">
        <ele>68</ele>
        <time>2013-04-13T14:39:22Z</time>
      </trkpt>
      <trkpt lat="44.7869" lon="-0.29059">
        <ele>68</ele>
        <time>2013-04-13T14:39:29Z</time>
      </trkpt>
      <trkpt lat="44.78676" lon="-0.2907">
        <ele>69</ele>
        <time>2013-04-13T14:39:37Z</time>
      </trkpt>
      <trkpt lat="44.78665" lon="-0.2908">
        <ele>69</ele>
        <time>2013-04-13T14:39:44Z</time>
      </trkpt>
      <trkpt lat="44.7865" lon="-0.2909">
        <ele>69</ele>
        <time>2013-04-13T14:39:53Z</time>
      </trkpt>
      <trkpt lat="44.78637" lon="-0.29101">
        <ele>69</ele>
        <time>2013-04-13T14:40:02Z</time>
      </trkpt>
      <trkpt lat="44.78627" lon="-0.29111">
        <ele>69</ele>
        <time>2013-04-13T14:40:09Z</time>
      </trkpt>
      <trkpt lat="44.78616" lon="-0.2912">
        <ele>69</ele>
        <time>2013-04-13T14:40:16Z</time>
      </trkpt>
      <trkpt lat="44.78604" lon="-0.29132">
        <ele>69</ele>
        <time>2013-04-13T14:40:24Z</time>
      </trkpt>
      <trkpt lat="44.78592" lon="-0.29143">
        <ele>70</ele>
        <time>2013-04-13T14:40:32Z</time>
      </trkpt>
      <trkpt lat="44.78581" lon="-0.29155">
        <ele>70</ele>
        <time>2013-04-13T14:40:40Z</time>
      </trkpt>
      <trkpt lat="44.7857" lon="-0.29165">
        <ele>70</ele>
        <time>2013-04-13T14:40:48Z</time>
      </trkpt>
      <trkpt lat="44.78556" lon="-0.29183">
        <ele>70</ele>
        <time>2013-04-13T14:40:57Z</time>
      </trkpt>
      <trkpt lat="44.78536" lon="-0.29207">
        <ele>71</ele>
        <time>2013-04-13T14:41:08Z</time>
      </trkpt>
      <trkpt lat="44.78521" lon="-0.29224">
        <ele>71</ele>
        <time>2013-04-13T14:41:15Z</time>
      </trkpt>
      <trkpt lat="44.78505" lon="-0.29244">
        <ele>71</ele>
        <time>2013-04-13T14:41:23Z</time>
      </trkpt>
      <trkpt lat="44.78495" lon="-0.29262">
        <ele>71</ele>
        <time>2013-04-13T14:41:29Z</time>
      </trkpt>
      <trkpt lat="44.78492" lon="-0.29266">
        <ele>71</ele>
        <time>2013-04-13T14:41:30Z</time>
      </trkpt>
      <trkpt lat="44.78488" lon="-0.29273">
        <ele>71</ele>
        <time>2013-04-13T14:41:32Z</time>
      </trkpt>
      <trkpt lat="44.78468" lon="-0.29306">
        <ele>70</ele>
        <time>2013-04-13T14:41:40Z</time>
      </trkpt>
      <trkpt lat="44.78466" lon="-0.29312">
        <ele>70</ele>
        <time>2013-04-13T14:41:43Z</time>
      </trkpt>
      <trkpt lat="44.78461" lon="-0.29314">
        <ele>69</ele>
        <time>2013-04-13T14:41:49Z</time>
      </trkpt>
      <trkpt lat="44.78465" lon="-0.29327">
        <ele>69</ele>
        <time>2013-04-13T14:41:56Z</time>
      </trkpt>
      <trkpt lat="44.78469" lon="-0.2934">
        <ele>70</ele>
        <time>2013-04-13T14:42:03Z</time>
      </trkpt>
      <trkpt lat="44.78469" lon="-0.29352">
        <ele>70</ele>
        <time>2013-04-13T14:42:06Z</time>
      </trkpt>
      <trkpt lat="44.78474" lon="-0.29365">
        <ele>70</ele>
        <time>2013-04-13T14:42:13Z</time>
      </trkpt>
      <trkpt lat="44.78474" lon="-0.29368">
        <ele>70</ele>
        <time>2013-04-13T14:42:22Z</time>
      </trkpt>
      <trkpt lat="44.78475" lon="-0.2937">
        <ele>70</ele>
        <time>2013-04-13T14:42:31Z</time>
      </trkpt>
      <trkpt lat="44.78475" lon="-0.29371">
        <ele>70</ele>
        <time>2013-04-13T14:42:50Z</time>
      </trkpt>
      <trkpt lat="44.78475" lon="-0.29371">
        <ele>70</ele>
        <time>2013-04-13T14:43:10Z</time>
      </trkpt>
      <trkpt lat="44.78475" lon="-0.29372">
        <ele>70</ele>
        <time>2013-04-13T14:43:31Z</time>
      </trkpt>
      <trkpt lat="44.78474" lon="-0.2937">
        <ele>70</ele>
        <time>2013-04-13T14:43:49Z</time>
      </trkpt>
      <trkpt lat="44.78474" lon="-0.29371">
        <ele>70</ele>
        <time>2013-04-13T14:43:58Z</time>
      </trkpt>
      <trkpt lat="44.78475" lon="-0.29371">
        <ele>70</ele>
        <time>2013-04-13T14:44:11Z</time>
      </trkpt>
      <trkpt lat="44.78477" lon="-0.29376">
        <ele>70</ele>
        <time>2013-04-13T14:44:18Z</time>
      </trkpt>
      <trkpt lat="44.78484" lon="-0.29387">
        <ele>70</ele>
        <time>2013-04-13T14:44:25Z</time>
      </trkpt>
      <trkpt lat="44.7849" lon="-0.29397">
        <ele>70</ele>
        <time>2013-04-13T14:44:29Z</time>
      </trkpt>
      <trkpt lat="44.785" lon="-0.29417">
        <ele>71</ele>
        <time>2013-04-13T14:44:37Z</time>
      </trkpt>
      <trkpt lat="44.78512" lon="-0.29434">
        <ele>71</ele>
        <time>2013-04-13T14:44:45Z</time>
      </trkpt>
      <trkpt lat="44.78523" lon="-0.29455">
        <ele>72</ele>
        <time>2013-04-13T14:44:53Z</time>
      </trkpt>
      <trkpt lat="44.78532" lon="-0.29476">
        <ele>72</ele>
        <time>2013-04-13T14:45:01Z</time>
      </trkpt>
      <trkpt lat="44.78539" lon="-0.29484">
        <ele>73</ele>
        <time>2013-04-13T14:45:05Z</time>
      </trkpt>
      <trkpt lat="44.78547" lon="-0.29497">
        <ele>73</ele>
        <time>2013-04-13T14:45:11Z</time>
      </trkpt>
      <trkpt lat="44.78558" lon="-0.29521">
        <ele>74</ele>
        <time>2013-04-13T14:45:20Z</time>
      </trkpt>
      <trkpt lat="44.78558" lon="-0.29524">
        <ele>74</ele>
        <time>2013-04-13T14:45:21Z</time>
      </trkpt>
      <trkpt lat="44.78563" lon="-0.29538">
        <ele>74</ele>
        <time>2013-04-13T14:45:27Z</time>
      </trkpt>
      <trkpt lat="44.7857" lon="-0.29552">
        <ele>75</ele>
        <time>2013-04-13T14:45:33Z</time>
      </trkpt>
      <trkpt lat="44.78581" lon="-0.29566">
        <ele>75</ele>
        <time>2013-04-13T14:45:40Z</time>
      </trkpt>
      <trkpt lat="44.78592" lon="-0.29583">
        <ele>76</ele>
        <time>2013-04-13T14:45:48Z</time>
      </trkpt>
      <trkpt lat="44.78604" lon="-0.29606">
        <ele>77</ele>
        <time>2013-04-13T14:45:56Z</time>
      </trkpt>
      <trkpt lat="44.78607" lon="-0.29613">
        <ele>78</ele>
        <time>2013-04-13T14:45:59Z</time>
      </trkpt>
      <trkpt lat="44.78622" lon="-0.2963">
        <ele>79</ele>
        <time>2013-04-13T14:46:07Z</time>
      </trkpt>
      <trkpt lat="44.78632" lon="-0.29647">
        <ele>81</ele>
        <time>2013-04-13T14:46:13Z</time>
      </trkpt>
      <trkpt lat="44.78643" lon="-0.29665">
        <ele>82</ele>
        <time>2013-04-13T14:46:20Z</time>
      </trkpt>
      <trkpt lat="44.78645" lon="-0.29667">
        <ele>82</ele>
        <time>2013-04-13T14:46:21Z</time>
      </trkpt>
      <trkpt lat="44.78656" lon="-0.29681">
        <ele>82</ele>
        <time>2013-04-13T14:46:28Z</time>
      </trkpt>
      <trkpt lat="44.78668" lon="-0.29701">
        <ele>83</ele>
        <time>2013-04-13T14:46:37Z</time>
      </trkpt>
      <trkpt lat="44.78678" lon="-0.29721">
        <ele>84</ele>
        <time>2013-04-13T14:46:45Z</time>
      </trkpt>
      <trkpt lat="44.78678" lon="-0.29731">
        <ele>84</ele>
        <time>2013-04-13T14:46:50Z</time>
      </trkpt>
      <trkpt lat="44.78677" lon="-0.29732">
        <ele>84</ele>
        <time>2013-04-13T14:46:59Z</time>
      </trkpt>
      <trkpt lat="44.78678" lon="-0.29736">
        <ele>84</ele>
        <time>2013-04-13T14:47:03Z</time>
      </trkpt>
      <trkpt lat="44.78681" lon="-0.29745">
        <ele>84</ele>
        <time>2013-04-13T14:47:09Z</time>
      </trkpt>
      <trkpt lat="44.78684" lon="-0.29763">
        <ele>84</ele>
        <time>2013-04-13T14:47:16Z</time>
      </trkpt>
      <trkpt lat="44.78688" lon="-0.29783">
        <ele>84</ele>
        <time>2013-04-13T14:47:23Z</time>
      </trkpt>
      <trkpt lat="44.78689" lon="-0.29812">
        <ele>83</ele>
        <time>2013-04-13T14:47:30Z</time>
      </trkpt>
      <trkpt lat="44.78691" lon="-0.29847">
        <ele>82</ele>
        <time>2013-04-13T14:47:37Z</time>
      </trkpt>
      <trkpt lat="44.78693" lon="-0.29881">
        <ele>81</ele>
        <time>2013-04-13T14:47:44Z</time>
      </trkpt>
      <trkpt lat="44.78696" lon="-0.29924">
        <ele>81</ele>
        <time>2013-04-13T14:47:52Z</time>
      </trkpt>
      <trkpt lat="44.78699" lon="-0.29966">
        <ele>80</ele>
        <time>2013-04-13T14:47:59Z</time>
      </trkpt>
      <trkpt lat="44.78703" lon="-0.30023">
        <ele>79</ele>
        <time>2013-04-13T14:48:08Z</time>
      </trkpt>
      <trkpt lat="44.78707" lon="-0.30072">
        <ele>77</ele>
        <time>2013-04-13T14:48:15Z</time>
      </trkpt>
      <trkpt lat="44.78705" lon="-0.30094">
        <ele>77</ele>
        <time>2013-04-13T14:48:20Z</time>
      </trkpt>
      <trkpt lat="44.78708" lon="-0.30101">
        <ele>77</ele>
        <time>2013-04-13T14:48:26Z</time>
      </trkpt>
      <trkpt lat="44.78708" lon="-0.30103">
        <ele>77</ele>
        <time>2013-04-13T14:48:34Z</time>
      </trkpt>
      <trkpt lat="44.78707" lon="-0.30105">
        <ele>76</ele>
        <time>2013-04-13T14:48:42Z</time>
      </trkpt>
      <trkpt lat="44.78708" lon="-0.30106">
        <ele>76</ele>
        <time>2013-04-13T14:48:50Z</time>
      </trkpt>
      <trkpt lat="44.78705" lon="-0.30104">
        <ele>76</ele>
        <time>2013-04-13T14:48:56Z</time>
      </trkpt>
      <trkpt lat="44.78704" lon="-0.30105">
        <ele>76</ele>
        <time>2013-04-13T14:49:00Z</time>
      </trkpt>
      <trkpt lat="44.78701" lon="-0.30107">
        <ele>76</ele>
        <time>2013-04-13T14:49:02Z</time>
      </trkpt>
      <trkpt lat="44.78699" lon="-0.30128">
        <ele>76</ele>
        <time>2013-04-13T14:49:08Z</time>
      </trkpt>
      <trkpt lat="44.78701" lon="-0.30135">
        <ele>76</ele>
        <time>2013-04-13T14:49:10Z</time>
      </trkpt>
      <trkpt lat="44.78703" lon="-0.30166">
        <ele>75</ele>
        <time>2013-04-13T14:49:17Z</time>
      </trkpt>
      <trkpt lat="44.78706" lon="-0.30198">
        <ele>75</ele>
        <time>2013-04-13T14:49:24Z</time>
      </trkpt>
      <trkpt lat="44.78708" lon="-0.30233">
        <ele>74</ele>
        <time>2013-04-13T14:49:32Z</time>
      </trkpt>
      <trkpt lat="44.78712" lon="-0.30268">
        <ele>74</ele>
        <time>2013-04-13T14:49:40Z</time>
      </trkpt>
      <trkpt lat="44.78717" lon="-0.30274">
        <ele>74</ele>
        <time>2013-04-13T14:49:43Z</time>
      </trkpt>
      <trkpt lat="44.78718" lon="-0.30286">
        <ele>74</ele>
        <time>2013-04-13T14:49:50Z</time>
      </trkpt>
      <trkpt lat="44.78718" lon="-0.30288">
        <ele>74</ele>
        <time>2013-04-13T14:49:57Z</time>
      </trkpt>
      <trkpt lat="44.7872" lon="-0.30288">
        <ele>74</ele>
        <time>2013-04-13T14:50:04Z</time>
      </trkpt>
      <trkpt lat="44.78722" lon="-0.30289">
        <ele>74</ele>
        <time>2013-04-13T14:50:11Z</time>
      </trkpt>
      <trkpt lat="44.78722" lon="-0.30291">
        <ele>74</ele>
        <time>2013-04-13T14:50:22Z</time>
      </trkpt>
      <trkpt lat="44.78724" lon="-0.30296">
        <ele>74</ele>
        <time>2013-04-13T14:50:30Z</time>
      </trkpt>
      <trkpt lat="44.78725" lon="-0.30301">
        <ele>74</ele>
        <time>2013-04-13T14:50:37Z</time>
      </trkpt>
      <trkpt lat="44.78726" lon="-0.30304">
        <ele>74</ele>
        <time>2013-04-13T14:50:47Z</time>
      </trkpt>
      <trkpt lat="44.78727" lon="-0.30306">
        <ele>74</ele>
        <time>2013-04-13T14:50:54Z</time>
      </trkpt>
      <trkpt lat="44.78728" lon="-0.30315">
        <ele>73</ele>
        <time>2013-04-13T14:51:05Z</time>
      </trkpt>
      <trkpt lat="44.78729" lon="-0.30324">
        <ele>73</ele>
        <time>2013-04-13T14:51:13Z</time>
      </trkpt>
      <trkpt lat="44.78728" lon="-0.30329">
        <ele>73</ele>
        <time>2013-04-13T14:51:17Z</time>
      </trkpt>
      <trkpt lat="44.78726" lon="-0.30335">
        <ele>73</ele>
        <time>2013-04-13T14:51:22Z</time>
      </trkpt>
      <trkpt lat="44.78726" lon="-0.30337">
        <ele>73</ele>
        <time>2013-04-13T14:51:28Z</time>
      </trkpt>
      <trkpt lat="44.78726" lon="-0.30344">
        <ele>73</ele>
        <time>2013-04-13T14:51:34Z</time>
      </trkpt>
      <trkpt lat="44.78725" lon="-0.30348">
        <ele>73</ele>
        <time>2013-04-13T14:51:40Z</time>
      </trkpt>
      <trkpt lat="44.78725" lon="-0.30352">
        <ele>73</ele>
        <time>2013-04-13T14:51:46Z</time>
      </trkpt>
      <trkpt lat="44.78725" lon="-0.30352">
        <ele>73</ele>
        <time>2013-04-13T14:51:57Z</time>
      </trkpt>
      <trkpt lat="44.78725" lon="-0.30352">
        <ele>73</ele>
        <time>2013-04-13T14:52:07Z</time>
      </trkpt>
      <trkpt lat="44.78725" lon="-0.30352">
        <ele>73</ele>
        <time>2013-04-13T14:52:16Z</time>
      </trkpt>
      <trkpt lat="44.78725" lon="-0.30352">
        <ele>73</ele>
        <time>2013-04-13T14:52:26Z</time>
      </trkpt>
      <trkpt lat="44.78725" lon="-0.30353">
        <ele>73</ele>
        <time>2013-04-13T14:52:41Z</time>
      </trkpt>
      <trkpt lat="44.78725" lon="-0.30353">
        <ele>73</ele>
        <time>2013-04-13T14:52:58Z</time>
      </trkpt>
      <trkpt lat="44.78725" lon="-0.30352">
        <ele>73</ele>
        <time>2013-04-13T14:53:10Z</time>
      </trkpt>
      <trkpt lat="44.78725" lon="-0.30352">
        <ele>73</ele>
        <time>2013-04-13T14:53:26Z</time>
      </trkpt>
      <trkpt lat="44.78725" lon="-0.30351">
        <ele>73</ele>
        <time>2013-04-13T14:53:38Z</time>
      </trkpt>
      <trkpt lat="44.78726" lon="-0.30353">
        <ele>73</ele>
        <time>2013-04-13T14:53:49Z</time>
      </trkpt>
      <trkpt lat="44.78726" lon="-0.30371">
        <ele>73</ele>
        <time>2013-04-13T14:53:57Z</time>
      </trkpt>
      <trkpt lat="44.78726" lon="-0.30398">
        <ele>73</ele>
        <time>2013-04-13T14:54:05Z</time>
      </trkpt>
      <trkpt lat="44.78727" lon="-0.30427">
        <ele>73</ele>
        <time>2013-04-13T14:54:13Z</time>
      </trkpt>
      <trkpt lat="44.78729" lon="-0.30446">
        <ele>72</ele>
        <time>2013-04-13T14:54:18Z</time>
      </trkpt>
      <trkpt lat="44.7873" lon="-0.30475">
        <ele>72</ele>
        <time>2013-04-13T14:54:25Z</time>
      </trkpt>
      <trkpt lat="44.7873" lon="-0.30507">
        <ele>72</ele>
        <time>2013-04-13T14:54:32Z</time>
      </trkpt>
      <trkpt lat="44.78729" lon="-0.30559">
        <ele>72</ele>
        <time>2013-04-13T14:54:42Z</time>
      </trkpt>
      <trkpt lat="44.78729" lon="-0.30581">
        <ele>71</ele>
        <time>2013-04-13T14:54:46Z</time>
      </trkpt>
      <trkpt lat="44.78727" lon="-0.30636">
        <ele>71</ele>
        <time>2013-04-13T14:54:55Z</time>
      </trkpt>
      <trkpt lat="44.78724" lon="-0.30678">
        <ele>72</ele>
        <time>2013-04-13T14:55:03Z</time>
      </trkpt>
      <trkpt lat="44.7872" lon="-0.30721">
        <ele>72</ele>
        <time>2013-04-13T14:55:11Z</time>
      </trkpt>
      <trkpt lat="44.7872" lon="-0.30726">
        <ele>72</ele>
        <time>2013-04-13T14:55:12Z</time>
      </trkpt>
      <trkpt lat="44.78716" lon="-0.30778">
        <ele>71</ele>
        <time>2013-04-13T14:55:21Z</time>
      </trkpt>
      <trkpt lat="44.78714" lon="-0.30813">
        <ele>71</ele>
        <time>2013-04-13T14:55:27Z</time>
      </trkpt>
      <trkpt lat="44.78711" lon="-0.30858">
        <ele>70</ele>
        <time>2013-04-13T14:55:35Z</time>
      </trkpt>
      <trkpt lat="44.78709" lon="-0.30903">
        <ele>70</ele>
        <time>2013-04-13T14:55:43Z</time>
      </trkpt>
      <trkpt lat="44.78706" lon="-0.30953">
        <ele>70</ele>
        <time>2013-04-13T14:55:52Z</time>
      </trkpt>
      <trkpt lat="44.78703" lon="-0.3101">
        <ele>70</ele>
        <time>2013-04-13T14:56:02Z</time>
      </trkpt>
      <trkpt lat="44.78697" lon="-0.31058">
        <ele>69</ele>
        <time>2013-04-13T14:56:10Z</time>
      </trkpt>
      <trkpt lat="44.78696" lon="-0.31064">
        <ele>69</ele>
        <time>2013-04-13T14:56:11Z</time>
      </trkpt>
      <trkpt lat="44.78696" lon="-0.31071">
        <ele>69</ele>
        <time>2013-04-13T14:56:12Z</time>
      </trkpt>
      <trkpt lat="44.78693" lon="-0.31122">
        <ele>69</ele>
        <time>2013-04-13T14:56:21Z</time>
      </trkpt>
      <trkpt lat="44.78691" lon="-0.31181">
        <ele>70</ele>
        <time>2013-04-13T14:56:31Z</time>
      </trkpt>
      <trkpt lat="44.78688" lon="-0.31236">
        <ele>71</ele>
        <time>2013-04-13T14:56:42Z</time>
      </trkpt>
      <trkpt lat="44.78685" lon="-0.31279">
        <ele>72</ele>
        <time>2013-04-13T14:56:51Z</time>
      </trkpt>
      <trkpt lat="44.78686" lon="-0.31313">
        <ele>72</ele>
        <time>2013-04-13T14:56:58Z</time>
      </trkpt>
      <trkpt lat="44.78688" lon="-0.31347">
        <ele>72</ele>
        <time>2013-04-13T14:57:05Z</time>
      </trkpt>
      <trkpt lat="44.78689" lon="-0.31381">
        <ele>72</ele>
        <time>2013-04-13T14:57:11Z</time>
      </trkpt>
      <trkpt lat="44.7869" lon="-0.31387">
        <ele>72</ele>
        <time>2013-04-13T14:57:12Z</time>
      </trkpt>
      <trkpt lat="44.78693" lon="-0.31442">
        <ele>71</ele>
        <time>2013-04-13T14:57:20Z</time>
      </trkpt>
      <trkpt lat="44.78696" lon="-0.31504">
        <ele>70</ele>
        <time>2013-04-13T14:57:29Z</time>
      </trkpt>
      <trkpt lat="44.78697" lon="-0.31524">
        <ele>69</ele>
        <time>2013-04-13T14:57:32Z</time>
      </trkpt>
      <trkpt lat="44.78696" lon="-0.31583">
        <ele>68</ele>
        <time>2013-04-13T14:57:40Z</time>
      </trkpt>
      <trkpt lat="44.78694" lon="-0.31612">
        <ele>68</ele>
        <time>2013-04-13T14:57:44Z</time>
      </trkpt>
      <trkpt lat="44.78693" lon="-0.31619">
        <ele>68</ele>
        <time>2013-04-13T14:57:45Z</time>
      </trkpt>
      <trkpt lat="44.78692" lon="-0.31626">
        <ele>68</ele>
        <time>2013-04-13T14:57:46Z</time>
      </trkpt>
      <trkpt lat="44.78684" lon="-0.31658">
        <ele>67</ele>
        <time>2013-04-13T14:57:52Z</time>
      </trkpt>
      <trkpt lat="44.78673" lon="-0.31703">
        <ele>66</ele>
        <time>2013-04-13T14:58:00Z</time>
      </trkpt>
      <trkpt lat="44.78664" lon="-0.31743">
        <ele>66</ele>
        <time>2013-04-13T14:58:07Z</time>
      </trkpt>
      <trkpt lat="44.78656" lon="-0.31776">
        <ele>66</ele>
        <time>2013-04-13T14:58:14Z</time>
      </trkpt>
      <trkpt lat="44.78654" lon="-0.31787">
        <ele>66</ele>
        <time>2013-04-13T14:58:19Z</time>
      </trkpt>
      <trkpt lat="44.78654" lon="-0.31788">
        <ele>66</ele>
        <time>2013-04-13T14:58:33Z</time>
      </trkpt>
      <trkpt lat="44.78654" lon="-0.31789">
        <ele>66</ele>
        <time>2013-04-13T14:58:43Z</time>
      </trkpt>
      <trkpt lat="44.78654" lon="-0.31788">
        <ele>66</ele>
        <time>2013-04-13T14:58:54Z</time>
      </trkpt>
      <trkpt lat="44.78652" lon="-0.31794">
        <ele>66</ele>
        <time>2013-04-13T14:58:59Z</time>
      </trkpt>
      <trkpt lat="44.78652" lon="-0.31794">
        <ele>66</ele>
        <time>2013-04-13T14:59:10Z</time>
      </trkpt>
      <trkpt lat="44.78648" lon="-0.31804">
        <ele>66</ele>
        <time>2013-04-13T14:59:15Z</time>
      </trkpt>
      <trkpt lat="44.78646" lon="-0.31804">
        <ele>66</ele>
        <time>2013-04-13T14:59:16Z</time>
      </trkpt>
      <trkpt lat="44.78635" lon="-0.31805">
        <ele>66</ele>
        <time>2013-04-13T14:59:23Z</time>
      </trkpt>
      <trkpt lat="44.7862" lon="-0.31804">
        <ele>65</ele>
        <time>2013-04-13T14:59:31Z</time>
      </trkpt>
      <trkpt lat="44.78601" lon="-0.31802">
        <ele>64</ele>
        <time>2013-04-13T14:59:39Z</time>
      </trkpt>
      <trkpt lat="44.78574" lon="-0.31795">
        <ele>63</ele>
        <time>2013-04-13T14:59:49Z</time>
      </trkpt>
      <trkpt lat="44.78559" lon="-0.3179">
        <ele>63</ele>
        <time>2013-04-13T14:59:54Z</time>
      </trkpt>
      <trkpt lat="44.78541" lon="-0.3178">
        <ele>62</ele>
        <time>2013-04-13T15:00:01Z</time>
      </trkpt>
      <trkpt lat="44.78526" lon="-0.31774">
        <ele>61</ele>
        <time>2013-04-13T15:00:06Z</time>
      </trkpt>
      <trkpt lat="44.78505" lon="-0.31764">
        <ele>61</ele>
        <time>2013-04-13T15:00:13Z</time>
      </trkpt>
      <trkpt lat="44.78482" lon="-0.31758">
        <ele>60</ele>
        <time>2013-04-13T15:00:20Z</time>
      </trkpt>
      <trkpt lat="44.78455" lon="-0.3175">
        <ele>60</ele>
        <time>2013-04-13T15:00:29Z</time>
      </trkpt>
      <trkpt lat="44.78437" lon="-0.31745">
        <ele>60</ele>
        <time>2013-04-13T15:00:36Z</time>
      </trkpt>
      <trkpt lat="44.78424" lon="-0.3175">
        <ele>60</ele>
        <time>2013-04-13T15:00:41Z</time>
      </trkpt>
      <trkpt lat="44.78405" lon="-0.31756">
        <ele>61</ele>
        <time>2013-04-13T15:00:47Z</time>
      </trkpt>
      <trkpt lat="44.78383" lon="-0.31762">
        <ele>63</ele>
        <time>2013-04-13T15:00:54Z</time>
      </trkpt>
      <trkpt lat="44.78366" lon="-0.31763">
        <ele>64</ele>
        <time>2013-04-13T15:01:01Z</time>
      </trkpt>
      <trkpt lat="44.78356" lon="-0.31762">
        <ele>64</ele>
        <time>2013-04-13T15:01:05Z</time>
      </trkpt>
      <trkpt lat="44.78346" lon="-0.3176">
        <ele>65</ele>
        <time>2013-04-13T15:01:13Z</time>
      </trkpt>
      <trkpt lat="44.78338" lon="-0.31759">
        <ele>65</ele>
        <time>2013-04-13T15:01:21Z</time>
      </trkpt>
      <trkpt lat="44.78336" lon="-0.3176">
        <ele>65</ele>
        <time>2013-04-13T15:01:28Z</time>
      </trkpt>
      <trkpt lat="44.78328" lon="-0.31762">
        <ele>66</ele>
        <time>2013-04-13T15:01:34Z</time>
      </trkpt>
      <trkpt lat="44.78315" lon="-0.3176">
        <ele>66</ele>
        <time>2013-04-13T15:01:41Z</time>
      </trkpt>
      <trkpt lat="44.78304" lon="-0.31758">
        <ele>66</ele>
        <time>2013-04-13T15:01:47Z</time>
      </trkpt>
      <trkpt lat="44.78289" lon="-0.31752">
        <ele>66</ele>
        <time>2013-04-13T15:01:53Z</time>
      </trkpt>
      <trkpt lat="44.78271" lon="-0.3175">
        <ele>67</ele>
        <time>2013-04-13T15:02:01Z</time>
      </trkpt>
      <trkpt lat="44.7825" lon="-0.31746">
        <ele>67</ele>
        <time>2013-04-13T15:02:10Z</time>
      </trkpt>
      <trkpt lat="44.78232" lon="-0.31749">
        <ele>67</ele>
        <time>2013-04-13T15:02:17Z</time>
      </trkpt>
      <trkpt lat="44.78214" lon="-0.31745">
        <ele>67</ele>
        <time>2013-04-13T15:02:25Z</time>
      </trkpt>
      <trkpt lat="44.782" lon="-0.3174">
        <ele>67</ele>
        <time>2013-04-13T15:02:33Z</time>
      </trkpt>
      <trkpt lat="44.78185" lon="-0.31738">
        <ele>67</ele>
        <time>2013-04-13T15:02:39Z</time>
      </trkpt>
      <trkpt lat="44.78161" lon="-0.3174">
        <ele>67</ele>
        <time>2013-04-13T15:02:49Z</time>
      </trkpt>
      <trkpt lat="44.78141" lon="-0.31741">
        <ele>67</ele>
        <time>2013-04-13T15:02:57Z</time>
      </trkpt>
      <trkpt lat="44.78123" lon="-0.31744">
        <ele>67</ele>
        <time>2013-04-13T15:03:04Z</time>
      </trkpt>
      <trkpt lat="44.78105" lon="-0.31742">
        <ele>66</ele>
        <time>2013-04-13T15:03:12Z</time>
      </trkpt>
      <trkpt lat="44.78105" lon="-0.31742">
        <ele>66</ele>
        <time>2013-04-13T15:03:20Z</time>
      </trkpt>
      <trkpt lat="44.78104" lon="-0.31742">
        <ele>66</ele>
        <time>2013-04-13T15:03:30Z</time>
      </trkpt>
      <trkpt lat="44.78105" lon="-0.31742">
        <ele>66</ele>
        <time>2013-04-13T15:03:48Z</time>
      </trkpt>
      <trkpt lat="44.78104" lon="-0.31742">
        <ele>66</ele>
        <time>2013-04-13T15:04:02Z</time>
      </trkpt>
      <trkpt lat="44.78104" lon="-0.31742">
        <ele>66</ele>
        <time>2013-04-13T15:04:17Z</time>
      </trkpt>
      <trkpt lat="44.78104" lon="-0.31742">
        <ele>66</ele>
        <time>2013-04-13T15:04:27Z</time>
      </trkpt>
      <trkpt lat="44.78105" lon="-0.31742">
        <ele>66</ele>
        <time>2013-04-13T15:04:40Z</time>
      </trkpt>
      <trkpt lat="44.78104" lon="-0.31742">
        <ele>66</ele>
        <time>2013-04-13T15:04:44Z</time>
      </trkpt>
      <trkpt lat="44.78106" lon="-0.31751">
        <ele>66</ele>
        <time>2013-04-13T15:04:49Z</time>
      </trkpt>
      <trkpt lat="44.78114" lon="-0.31773">
        <ele>66</ele>
        <time>2013-04-13T15:04:58Z</time>
      </trkpt>
      <trkpt lat="44.78121" lon="-0.31791">
        <ele>66</ele>
        <time>2013-04-13T15:05:05Z</time>
      </trkpt>
      <trkpt lat="44.78133" lon="-0.31823">
        <ele>66</ele>
        <time>2013-04-13T15:05:14Z</time>
      </trkpt>
      <trkpt lat="44.78149" lon="-0.31865">
        <ele>65</ele>
        <time>2013-04-13T15:05:24Z</time>
      </trkpt>
      <trkpt lat="44.78162" lon="-0.31897">
        <ele>64</ele>
        <time>2013-04-13T15:05:32Z</time>
      </trkpt>
      <trkpt lat="44.78176" lon="-0.31935">
        <ele>63</ele>
        <time>2013-04-13T15:05:40Z</time>
      </trkpt>
      <trkpt lat="44.78194" lon="-0.31979">
        <ele>62</ele>
        <time>2013-04-13T15:05:49Z</time>
      </trkpt>
      <trkpt lat="44.78205" lon="-0.32007">
        <ele>61</ele>
        <time>2013-04-13T15:05:55Z</time>
      </trkpt>
      <trkpt lat="44.78215" lon="-0.32035">
        <ele>60</ele>
        <time>2013-04-13T15:06:01Z</time>
      </trkpt>
      <trkpt lat="44.78225" lon="-0.32061">
        <ele>60</ele>
        <time>2013-04-13T15:06:07Z</time>
      </trkpt>
      <trkpt lat="44.78237" lon="-0.32092">
        <ele>59</ele>
        <time>2013-04-13T15:06:14Z</time>
      </trkpt>
      <trkpt lat="44.78239" lon="-0.32097">
        <ele>59</ele>
        <time>2013-04-13T15:06:15Z</time>
      </trkpt>
      <trkpt lat="44.78241" lon="-0.32103">
        <ele>59</ele>
        <time>2013-04-13T15:06:16Z</time>
      </trkpt>
      <trkpt lat="44.78251" lon="-0.32134">
        <ele>59</ele>
        <time>2013-04-13T15:06:22Z</time>
      </trkpt>
      <trkpt lat="44.78253" lon="-0.3214">
        <ele>59</ele>
        <time>2013-04-13T15:06:23Z</time>
      </trkpt>
      <trkpt lat="44.78267" lon="-0.32175">
        <ele>59</ele>
        <time>2013-04-13T15:06:30Z</time>
      </trkpt>
      <trkpt lat="44.78287" lon="-0.32224">
        <ele>61</ele>
        <time>2013-04-13T15:06:40Z</time>
      </trkpt>
      <trkpt lat="44.783" lon="-0.32259">
        <ele>62</ele>
        <time>2013-04-13T15:06:48Z</time>
      </trkpt>
      <trkpt lat="44.78313" lon="-0.32292">
        <ele>64</ele>
        <time>2013-04-13T15:06:56Z</time>
      </trkpt>
      <trkpt lat="44.78321" lon="-0.32316">
        <ele>65</ele>
        <time>2013-04-13T15:07:02Z</time>
      </trkpt>
      <trkpt lat="44.78333" lon="-0.32343">
        <ele>66</ele>
        <time>2013-04-13T15:07:09Z</time>
      </trkpt>
      <trkpt lat="44.78345" lon="-0.32381">
        <ele>67</ele>
        <time>2013-04-13T15:07:18Z</time>
      </trkpt>
      <trkpt lat="44.78365" lon="-0.32433">
        <ele>67</ele>
        <time>2013-04-13T15:07:30Z</time>
      </trkpt>
      <trkpt lat="44.78377" lon="-0.32463">
        <ele>67</ele>
        <time>2013-04-13T15:07:37Z</time>
      </trkpt>
      <trkpt lat="44.78386" lon="-0.32485">
        <ele>67</ele>
        <time>2013-04-13T15:07:45Z</time>
      </trkpt>
      <trkpt lat="44.78389" lon="-0.3249">
        <ele>67</ele>
        <time>2013-04-13T15:07:49Z</time>
      </trkpt>
      <trkpt lat="44.7839" lon="-0.32494">
        <ele>67</ele>
        <time>2013-04-13T15:07:54Z</time>
      </trkpt>
      <trkpt lat="44.7839" lon="-0.32494">
        <ele>67</ele>
        <time>2013-04-13T15:08:06Z</time>
      </trkpt>
      <trkpt lat="44.78392" lon="-0.32498">
        <ele>67</ele>
        <time>2013-04-13T15:08:18Z</time>
      </trkpt>
      <trkpt lat="44.78399" lon="-0.32514">
        <ele>67</ele>
        <time>2013-04-13T15:08:25Z</time>
      </trkpt>
      <trkpt lat="44.78408" lon="-0.32536">
        <ele>68</ele>
        <time>2013-04-13T15:08:31Z</time>
      </trkpt>
      <trkpt lat="44.78412" lon="-0.32547">
        <ele>68</ele>
        <time>2013-04-13T15:08:34Z</time>
      </trkpt>
      <trkpt lat="44.78418" lon="-0.32567">
        <ele>68</ele>
        <time>2013-04-13T15:08:40Z</time>
      </trkpt>
      <trkpt lat="44.78426" lon="-0.32583">
        <ele>69</ele>
        <time>2013-04-13T15:08:45Z</time>
      </trkpt>
      <trkpt lat="44.78437" lon="-0.3261">
        <ele>70</ele>
        <time>2013-04-13T15:08:53Z</time>
      </trkpt>
      <trkpt lat="44.78438" lon="-0.32612">
        <ele>71</ele>
        <time>2013-04-13T15:08:54Z</time>
      </trkpt>
      <trkpt lat="44.7845" lon="-0.32637">
        <ele>72</ele>
        <time>2013-04-13T15:09:02Z</time>
      </trkpt>
      <trkpt lat="44.78458" lon="-0.32675">
        <ele>73</ele>
        <time>2013-04-13T15:09:11Z</time>
      </trkpt>
      <trkpt lat="44.78464" lon="-0.32704">
        <ele>73</ele>
        <time>2013-04-13T15:09:18Z</time>
      </trkpt>
      <trkpt lat="44.78466" lon="-0.32732">
        <ele>74</ele>
        <time>2013-04-13T15:09:24Z</time>
      </trkpt>
      <trkpt lat="44.7847" lon="-0.3276">
        <ele>74</ele>
        <time>2013-04-13T15:09:30Z</time>
      </trkpt>
      <trkpt lat="44.78473" lon="-0.32787">
        <ele>74</ele>
        <time>2013-04-13T15:09:36Z</time>
      </trkpt>
      <trkpt lat="44.78479" lon="-0.32813">
        <ele>74</ele>
        <time>2013-04-13T15:09:42Z</time>
      </trkpt>
      <trkpt lat="44.78481" lon="-0.32816">
        <ele>74</ele>
        <time>2013-04-13T15:09:43Z</time>
      </trkpt>
      <trkpt lat="44.78483" lon="-0.3282">
        <ele>74</ele>
        <time>2013-04-13T15:09:44Z</time>
      </trkpt>
      <trkpt lat="44.78484" lon="-0.32823">
        <ele>74</ele>
        <time>2013-04-13T15:09:45Z</time>
      </trkpt>
      <trkpt lat="44.78485" lon="-0.32828">
        <ele>74</ele>
        <time>2013-04-13T15:09:46Z</time>
      </trkpt>
      <trkpt lat="44.78486" lon="-0.32833">
        <ele>74</ele>
        <time>2013-04-13T15:09:47Z</time>
      </trkpt>
      <trkpt lat="44.78485" lon="-0.32838">
        <ele>74</ele>
        <time>2013-04-13T15:09:48Z</time>
      </trkpt>
      <trkpt lat="44.78485" lon="-0.32843">
        <ele>74</ele>
        <time>2013-04-13T15:09:49Z</time>
      </trkpt>
      <trkpt lat="44.78485" lon="-0.32848">
        <ele>74</ele>
        <time>2013-04-13T15:09:50Z</time>
      </trkpt>
      <trkpt lat="44.78486" lon="-0.32853">
        <ele>74</ele>
        <time>2013-04-13T15:09:51Z</time>
      </trkpt>
      <trkpt lat="44.78486" lon="-0.32858">
        <ele>73</ele>
        <time>2013-04-13T15:09:52Z</time>
      </trkpt>
      <trkpt lat="44.78486" lon="-0.32863">
        <ele>73</ele>
        <time>2013-04-13T15:09:53Z</time>
      </trkpt>
      <trkpt lat="44.78486" lon="-0.32869">
        <ele>73</ele>
        <time>2013-04-13T15:09:54Z</time>
      </trkpt>
      <trkpt lat="44.78486" lon="-0.32905">
        <ele>74</ele>
        <time>2013-04-13T15:10:01Z</time>
      </trkpt>
      <trkpt lat="44.78486" lon="-0.32928">
        <ele>74</ele>
        <time>2013-04-13T15:10:06Z</time>
      </trkpt>
      <trkpt lat="44.78487" lon="-0.32958">
        <ele>74</ele>
        <time>2013-04-13T15:10:14Z</time>
      </trkpt>
      <trkpt lat="44.78486" lon="-0.32979">
        <ele>74</ele>
        <time>2013-04-13T15:10:20Z</time>
      </trkpt>
      <trkpt lat="44.78483" lon="-0.33011">
        <ele>74</ele>
        <time>2013-04-13T15:10:27Z</time>
      </trkpt>
      <trkpt lat="44.78484" lon="-0.3304">
        <ele>74</ele>
        <time>2013-04-13T15:10:34Z</time>
      </trkpt>
      <trkpt lat="44.78483" lon="-0.33068">
        <ele>73</ele>
        <time>2013-04-13T15:10:41Z</time>
      </trkpt>
      <trkpt lat="44.78481" lon="-0.33095">
        <ele>73</ele>
        <time>2013-04-13T15:10:47Z</time>
      </trkpt>
      <trkpt lat="44.7848" lon="-0.33117">
        <ele>73</ele>
        <time>2013-04-13T15:10:52Z</time>
      </trkpt>
      <trkpt lat="44.78477" lon="-0.33151">
        <ele>74</ele>
        <time>2013-04-13T15:11:00Z</time>
      </trkpt>
      <trkpt lat="44.78476" lon="-0.33181">
        <ele>75</ele>
        <time>2013-04-13T15:11:07Z</time>
      </trkpt>
      <trkpt lat="44.78476" lon="-0.33185">
        <ele>75</ele>
        <time>2013-04-13T15:11:08Z</time>
      </trkpt>
      <trkpt lat="44.78476" lon="-0.33189">
        <ele>75</ele>
        <time>2013-04-13T15:11:09Z</time>
      </trkpt>
      <trkpt lat="44.78477" lon="-0.33192">
        <ele>76</ele>
        <time>2013-04-13T15:11:10Z</time>
      </trkpt>
      <trkpt lat="44.78477" lon="-0.33195">
        <ele>76</ele>
        <time>2013-04-13T15:11:11Z</time>
      </trkpt>
      <trkpt lat="44.78477" lon="-0.33199">
        <ele>76</ele>
        <time>2013-04-13T15:11:12Z</time>
      </trkpt>
      <trkpt lat="44.78477" lon="-0.33203">
        <ele>76</ele>
        <time>2013-04-13T15:11:13Z</time>
      </trkpt>
      <trkpt lat="44.78478" lon="-0.33207">
        <ele>76</ele>
        <time>2013-04-13T15:11:14Z</time>
      </trkpt>
      <trkpt lat="44.78477" lon="-0.3321">
        <ele>76</ele>
        <time>2013-04-13T15:11:15Z</time>
      </trkpt>
      <trkpt lat="44.78477" lon="-0.33223">
        <ele>77</ele>
        <time>2013-04-13T15:11:18Z</time>
      </trkpt>
      <trkpt lat="44.78477" lon="-0.33225">
        <ele>77</ele>
        <time>2013-04-13T15:11:19Z</time>
      </trkpt>
      <trkpt lat="44.78478" lon="-0.33229">
        <ele>77</ele>
        <time>2013-04-13T15:11:20Z</time>
      </trkpt>
      <trkpt lat="44.78479" lon="-0.33232">
        <ele>77</ele>
        <time>2013-04-13T15:11:21Z</time>
      </trkpt>
      <trkpt lat="44.78479" lon="-0.33236">
        <ele>77</ele>
        <time>2013-04-13T15:11:22Z</time>
      </trkpt>
      <trkpt lat="44.78479" lon="-0.3324">
        <ele>77</ele>
        <time>2013-04-13T15:11:23Z</time>
      </trkpt>
      <trkpt lat="44.78479" lon="-0.33245">
        <ele>77</ele>
        <time>2013-04-13T15:11:24Z</time>
      </trkpt>
      <trkpt lat="44.78475" lon="-0.33279">
        <ele>78</ele>
        <time>2013-04-13T15:11:30Z</time>
      </trkpt>
      <trkpt lat="44.78472" lon="-0.33313">
        <ele>79</ele>
        <time>2013-04-13T15:11:37Z</time>
      </trkpt>
      <trkpt lat="44.7847" lon="-0.33339">
        <ele>79</ele>
        <time>2013-04-13T15:11:43Z</time>
      </trkpt>
      <trkpt lat="44.78468" lon="-0.33366">
        <ele>79</ele>
        <time>2013-04-13T15:11:49Z</time>
      </trkpt>
      <trkpt lat="44.78464" lon="-0.33404">
        <ele>79</ele>
        <time>2013-04-13T15:11:57Z</time>
      </trkpt>
      <trkpt lat="44.78459" lon="-0.33436">
        <ele>79</ele>
        <time>2013-04-13T15:12:04Z</time>
      </trkpt>
      <trkpt lat="44.78455" lon="-0.33475">
        <ele>79</ele>
        <time>2013-04-13T15:12:12Z</time>
      </trkpt>
      <trkpt lat="44.78449" lon="-0.33508">
        <ele>79</ele>
        <time>2013-04-13T15:12:19Z</time>
      </trkpt>
      <trkpt lat="44.78444" lon="-0.3354">
        <ele>79</ele>
        <time>2013-04-13T15:12:26Z</time>
      </trkpt>
      <trkpt lat="44.78438" lon="-0.33567">
        <ele>80</ele>
        <time>2013-04-13T15:12:32Z</time>
      </trkpt>
      <trkpt lat="44.78436" lon="-0.33577">
        <ele>80</ele>
        <time>2013-04-13T15:12:34Z</time>
      </trkpt>
      <trkpt lat="44.78432" lon="-0.33594">
        <ele>79</ele>
        <time>2013-04-13T15:12:38Z</time>
      </trkpt>
      <trkpt lat="44.78422" lon="-0.33632">
        <ele>79</ele>
        <time>2013-04-13T15:12:46Z</time>
      </trkpt>
      <trkpt lat="44.78414" lon="-0.33664">
        <ele>78</ele>
        <time>2013-04-13T15:12:53Z</time>
      </trkpt>
      <trkpt lat="44.78404" lon="-0.33701">
        <ele>78</ele>
        <time>2013-04-13T15:13:02Z</time>
      </trkpt>
      <trkpt lat="44.78395" lon="-0.33733">
        <ele>79</ele>
        <time>2013-04-13T15:13:09Z</time>
      </trkpt>
      <trkpt lat="44.78384" lon="-0.33761">
        <ele>81</ele>
        <time>2013-04-13T15:13:16Z</time>
      </trkpt>
      <trkpt lat="44.78377" lon="-0.33784">
        <ele>83</ele>
        <time>2013-04-13T15:13:22Z</time>
      </trkpt>
      <trkpt lat="44.78365" lon="-0.3381">
        <ele>85</ele>
        <time>2013-04-13T15:13:29Z</time>
      </trkpt>
      <trkpt lat="44.78354" lon="-0.33832">
        <ele>86</ele>
        <time>2013-04-13T15:13:35Z</time>
      </trkpt>
      <trkpt lat="44.78338" lon="-0.33862">
        <ele>87</ele>
        <time>2013-04-13T15:13:43Z</time>
      </trkpt>
      <trkpt lat="44.78325" lon="-0.33889">
        <ele>87</ele>
        <time>2013-04-13T15:13:50Z</time>
      </trkpt>
      <trkpt lat="44.78314" lon="-0.33909">
        <ele>87</ele>
        <time>2013-04-13T15:13:55Z</time>
      </trkpt>
      <trkpt lat="44.78304" lon="-0.33927">
        <ele>87</ele>
        <time>2013-04-13T15:14:00Z</time>
      </trkpt>
      <trkpt lat="44.7829" lon="-0.3395">
        <ele>86</ele>
        <time>2013-04-13T15:14:06Z</time>
      </trkpt>
      <trkpt lat="44.78274" lon="-0.33973">
        <ele>86</ele>
        <time>2013-04-13T15:14:13Z</time>
      </trkpt>
      <trkpt lat="44.78251" lon="-0.34006">
        <ele>85</ele>
        <time>2013-04-13T15:14:21Z</time>
      </trkpt>
      <trkpt lat="44.78231" lon="-0.34035">
        <ele>85</ele>
        <time>2013-04-13T15:14:29Z</time>
      </trkpt>
      <trkpt lat="44.78212" lon="-0.34059">
        <ele>86</ele>
        <time>2013-04-13T15:14:36Z</time>
      </trkpt>
      <trkpt lat="44.78195" lon="-0.34077">
        <ele>87</ele>
        <time>2013-04-13T15:14:42Z</time>
      </trkpt>
      <trkpt lat="44.7818" lon="-0.34096">
        <ele>88</ele>
        <time>2013-04-13T15:14:48Z</time>
      </trkpt>
      <trkpt lat="44.78162" lon="-0.34113">
        <ele>90</ele>
        <time>2013-04-13T15:14:54Z</time>
      </trkpt>
      <trkpt lat="44.78142" lon="-0.34133">
        <ele>91</ele>
        <time>2013-04-13T15:15:01Z</time>
      </trkpt>
      <trkpt lat="44.78118" lon="-0.34153">
        <ele>92</ele>
        <time>2013-04-13T15:15:09Z</time>
      </trkpt>
      <trkpt lat="44.78097" lon="-0.34171">
        <ele>93</ele>
        <time>2013-04-13T15:15:16Z</time>
      </trkpt>
      <trkpt lat="44.78076" lon="-0.34189">
        <ele>93</ele>
        <time>2013-04-13T15:15:23Z</time>
      </trkpt>
      <trkpt lat="44.78056" lon="-0.34204">
        <ele>93</ele>
        <time>2013-04-13T15:15:30Z</time>
      </trkpt>
      <trkpt lat="44.78034" lon="-0.3422">
        <ele>92</ele>
        <time>2013-04-13T15:15:37Z</time>
      </trkpt>
      <trkpt lat="44.78009" lon="-0.34236">
        <ele>92</ele>
        <time>2013-04-13T15:15:45Z</time>
      </trkpt>
      <trkpt lat="44.78006" lon="-0.34238">
        <ele>92</ele>
        <time>2013-04-13T15:15:46Z</time>
      </trkpt>
      <trkpt lat="44.77981" lon="-0.34257">
        <ele>93</ele>
        <time>2013-04-13T15:15:54Z</time>
      </trkpt>
      <trkpt lat="44.77962" lon="-0.34269">
        <ele>93</ele>
        <time>2013-04-13T15:16:00Z</time>
      </trkpt>
      <trkpt lat="44.77938" lon="-0.34288">
        <ele>94</ele>
        <time>2013-04-13T15:16:08Z</time>
      </trkpt>
      <trkpt lat="44.77905" lon="-0.34311">
        <ele>94</ele>
        <time>2013-04-13T15:16:18Z</time>
      </trkpt>
      <trkpt lat="44.77883" lon="-0.34326">
        <ele>94</ele>
        <time>2013-04-13T15:16:25Z</time>
      </trkpt>
      <trkpt lat="44.77862" lon="-0.34344">
        <ele>93</ele>
        <time>2013-04-13T15:16:32Z</time>
      </trkpt>
      <trkpt lat="44.77841" lon="-0.34361">
        <ele>93</ele>
        <time>2013-04-13T15:16:39Z</time>
      </trkpt>
      <trkpt lat="44.77818" lon="-0.34388">
        <ele>95</ele>
        <time>2013-04-13T15:16:47Z</time>
      </trkpt>
      <trkpt lat="44.77798" lon="-0.34416">
        <ele>97</ele>
        <time>2013-04-13T15:16:55Z</time>
      </trkpt>
      <trkpt lat="44.77784" lon="-0.34438">
        <ele>99</ele>
        <time>2013-04-13T15:17:01Z</time>
      </trkpt>
      <trkpt lat="44.77765" lon="-0.34473">
        <ele>101</ele>
        <time>2013-04-13T15:17:10Z</time>
      </trkpt>
      <trkpt lat="44.7775" lon="-0.34508">
        <ele>103</ele>
        <time>2013-04-13T15:17:18Z</time>
      </trkpt>
      <trkpt lat="44.77732" lon="-0.34556">
        <ele>104</ele>
        <time>2013-04-13T15:17:29Z</time>
      </trkpt>
      <trkpt lat="44.77727" lon="-0.34582">
        <ele>104</ele>
        <time>2013-04-13T15:17:35Z</time>
      </trkpt>
      <trkpt lat="44.77721" lon="-0.34612">
        <ele>104</ele>
        <time>2013-04-13T15:17:41Z</time>
      </trkpt>
      <trkpt lat="44.7771" lon="-0.34658">
        <ele>104</ele>
        <time>2013-04-13T15:17:50Z</time>
      </trkpt>
      <trkpt lat="44.777" lon="-0.34697">
        <ele>103</ele>
        <time>2013-04-13T15:17:58Z</time>
      </trkpt>
      <trkpt lat="44.77692" lon="-0.34731">
        <ele>102</ele>
        <time>2013-04-13T15:18:05Z</time>
      </trkpt>
      <trkpt lat="44.77683" lon="-0.34771">
        <ele>101</ele>
        <time>2013-04-13T15:18:13Z</time>
      </trkpt>
      <trkpt lat="44.77678" lon="-0.34796">
        <ele>100</ele>
        <time>2013-04-13T15:18:19Z</time>
      </trkpt>
      <trkpt lat="44.77665" lon="-0.34836">
        <ele>100</ele>
        <time>2013-04-13T15:18:29Z</time>
      </trkpt>
      <trkpt lat="44.77658" lon="-0.34846">
        <ele>100</ele>
        <time>2013-04-13T15:18:34Z</time>
      </trkpt>
      <trkpt lat="44.77654" lon="-0.34858">
        <ele>100</ele>
        <time>2013-04-13T15:18:40Z</time>
      </trkpt>
      <trkpt lat="44.77649" lon="-0.34879">
        <ele>99</ele>
        <time>2013-04-13T15:18:49Z</time>
      </trkpt>
      <trkpt lat="44.77647" lon="-0.34879">
        <ele>99</ele>
        <time>2013-04-13T15:18:50Z</time>
      </trkpt>
      <trkpt lat="44.77645" lon="-0.34878">
        <ele>99</ele>
        <time>2013-04-13T15:18:51Z</time>
      </trkpt>
      <trkpt lat="44.77643" lon="-0.34877">
        <ele>99</ele>
        <time>2013-04-13T15:18:52Z</time>
      </trkpt>
      <trkpt lat="44.77642" lon="-0.34877">
        <ele>99</ele>
        <time>2013-04-13T15:18:53Z</time>
      </trkpt>
      <trkpt lat="44.77641" lon="-0.34875">
        <ele>99</ele>
        <time>2013-04-13T15:18:54Z</time>
      </trkpt>
      <trkpt lat="44.77641" lon="-0.34873">
        <ele>100</ele>
        <time>2013-04-13T15:18:55Z</time>
      </trkpt>
      <trkpt lat="44.77641" lon="-0.3487">
        <ele>100</ele>
        <time>2013-04-13T15:18:56Z</time>
      </trkpt>
      <trkpt lat="44.77642" lon="-0.34868">
        <ele>100</ele>
        <time>2013-04-13T15:18:57Z</time>
      </trkpt>
      <trkpt lat="44.77642" lon="-0.34867">
        <ele>100</ele>
        <time>2013-04-13T15:18:58Z</time>
      </trkpt>
      <trkpt lat="44.77643" lon="-0.34864">
        <ele>100</ele>
        <time>2013-04-13T15:18:59Z</time>
      </trkpt>
      <trkpt lat="44.77643" lon="-0.34862">
        <ele>100</ele>
        <time>2013-04-13T15:19:00Z</time>
      </trkpt>
      <trkpt lat="44.77643" lon="-0.34861">
        <ele>100</ele>
        <time>2013-04-13T15:19:01Z</time>
      </trkpt>
      <trkpt lat="44.77643" lon="-0.3486">
        <ele>100</ele>
        <time>2013-04-13T15:19:06Z</time>
      </trkpt>
      <trkpt lat="44.77644" lon="-0.34858">
        <ele>100</ele>
        <time>2013-04-13T15:19:13Z</time>
      </trkpt>
      <trkpt lat="44.77645" lon="-0.34858">
        <ele>100</ele>
        <time>2013-04-13T15:19:25Z</time>
      </trkpt>
      <trkpt lat="44.77645" lon="-0.34858">
        <ele>100</ele>
        <time>2013-04-13T15:19:35Z</time>
      </trkpt>
      <trkpt lat="44.77645" lon="-0.34858">
        <ele>100</ele>
        <time>2013-04-13T15:19:51Z</time>
      </trkpt>
      <trkpt lat="44.77645" lon="-0.34858">
        <ele>100</ele>
        <time>2013-04-13T15:20:08Z</time>
      </trkpt>
      <trkpt lat="44.77645" lon="-0.34858">
        <ele>100</ele>
        <time>2013-04-13T15:20:21Z</time>
      </trkpt>
      <trkpt lat="44.77645" lon="-0.34859">
        <ele>100</ele>
        <time>2013-04-13T15:20:37Z</time>
      </trkpt>
      <trkpt lat="44.77644" lon="-0.3486">
        <ele>100</ele>
        <time>2013-04-13T15:20:59Z</time>
      </trkpt>
      <trkpt lat="44.77645" lon="-0.3486">
        <ele>100</ele>
        <time>2013-04-13T15:21:18Z</time>
      </trkpt>
      <trkpt lat="44.77645" lon="-0.3486">
        <ele>100</ele>
        <time>2013-04-13T15:21:45Z</time>
      </trkpt>
      <trkpt lat="44.77645" lon="-0.3486">
        <ele>100</ele>
        <time>2013-04-13T15:22:11Z</time>
      </trkpt>
      <trkpt lat="44.77645" lon="-0.3486">
        <ele>100</ele>
        <time>2013-04-13T15:22:28Z</time>
      </trkpt>
      <trkpt lat="44.77645" lon="-0.34858">
        <ele>100</ele>
        <time>2013-04-13T15:22:48Z</time>
      </trkpt>
      <trkpt lat="44.77645" lon="-0.34858">
        <ele>100</ele>
        <time>2013-04-13T15:23:08Z</time>
      </trkpt>
      <trkpt lat="44.77646" lon="-0.34859">
        <ele>100</ele>
        <time>2013-04-13T15:23:32Z</time>
      </trkpt>
      <trkpt lat="44.77645" lon="-0.34858">
        <ele>100</ele>
        <time>2013-04-13T15:23:56Z</time>
      </trkpt>
      <trkpt lat="44.77645" lon="-0.34858">
        <ele>100</ele>
        <time>2013-04-13T15:24:23Z</time>
      </trkpt>
      <trkpt lat="44.77645" lon="-0.34859">
        <ele>100</ele>
        <time>2013-04-13T15:24:45Z</time>
      </trkpt>
      <trkpt lat="44.77645" lon="-0.34859">
        <ele>100</ele>
        <time>2013-04-13T15:25:04Z</time>
      </trkpt>
      <trkpt lat="44.77645" lon="-0.34859">
        <ele>100</ele>
        <time>2013-04-13T15:25:15Z</time>
      </trkpt>
      <trkpt lat="44.77646" lon="-0.3486">
        <ele>100</ele>
        <time>2013-04-13T15:25:22Z</time>
      </trkpt>
    </trkseg>
  </trk>
</gpx>